[[{"header":{"parameterUnit":"m.s-1","parameterCategory":1,"la1":30.6,"la2":28.766,"lo1":-90.7593,"lo2":-88.6598,"dy":0.0162,"dx":0.0183,"nx":116,"ny":114,"refTime":"2023-03-01T06:00:00:Z","depth":0,"parameterNumber":2,"parameterNumberName":"U-component_of_WINDS"},"data":[0.0,0.0,0.0,0.0,0.0,0.0,0.0,0.0,0.0,0.0,0.0,0.0,0.0,0.0,0.0,0.0,0.0,0.0,0.0,0.0,0.0,0.0,0.0,0.0,0.0,0.0,0.0,0.0,0.0,0.0,0.0,0.0,0.0,0.0,0.0,0.0,0.0,0.0,0.0,0.0,0.0,0.0,0.0,0.0,0.0,0.0,0.0,0.0,0.0,0.0,0.0,0.0,0.0,0.0,0.0,0.0,0.0,0.0,0.0,0.0,0.0,0.0,0.0,0.0,0.0,0.0,0.0,0.0,0.0,0.0,0.0,0.0,0.0,0.0,0.0,0.0,0.0,0.0,0.0,0.0,0.0,0.0,0.0,0.0,0.0,0.0,0.0,0.0,0.0,0.0,0.0,0.0,0.0,0.0,0.0,0.0,0.0,0.0,0.0,0.0,0.0,0.0,0.0,0.0,0.0,0.0,0.0,0.0,0.0,0.0,0.0,0.0,0.0,0.0,0.0,0.0,0.0,0.0,0.0,0.0,0.0,0.0,0.0,0.0,0.0,0.0,0.0,0.0,0.0,0.0,0.0,0.0,0.0,0.0,0.0,0.0,0.0,0.0,0.0,0.0,0.0,0.0,0.0,0.0,0.0,0.0,0.0,0.0,0.0,0.0,0.0,0.0,0.0,0.0,0.0,0.0,0.0,0.0,0.0,0.0,0.0,0.0,0.0,0.0,0.0,0.0,0.0,0.0,0.0,0.0,0.0,0.0,0.0,0.0,0.0,0.0,0.0,0.0,0.0,0.0,0.0,0.0,0.0,0.0,0.0,0.0,0.0,0.0,0.0,0.0,0.0,0.0,0.0,0.0,0.0,0.0,0.0,0.0,0.0,0.0,0.0,0.0,0.0,0.0,0.0,0.0,0.0,0.0,0.0,0.0,0.0,0.0,0.0,0.0,0.0,0.0,0.0,0.0,0.0,0.0,0.0,0.0,0.0,0.0,0.0,0.0,0.0,0.0,0.0,0.0,0.0,0.0,0.0,0.0,0.0,0.0,0.0,0.0,0.0,0.0,0.0,0.0,0.0,0.0,0.0,0.0,0.0,0.0,0.0,0.0,0.0,0.0,0.0,0.0,0.0,0.0,0.0,0.0,0.0,0.0,0.0,0.0,0.0,0.0,0.0,0.0,0.0,0.0,0.0,0.0,0.0,0.0,0.0,0.0,0.0,0.0,0.0,0.0,0.0,0.0,0.0,0.0,0.0,0.0,0.0,0.0,0.0,0.0,0.0,0.0,0.0,0.0,0.0,0.0,0.0,0.0,0.0,0.0,0.0,0.0,0.0,0.0,0.0,0.0,0.0,0.0,0.0,0.0,0.0,0.0,0.0,0.0,0.0,0.0,0.0,0.0,0.0,0.0,0.0,0.0,0.0,0.0,0.0,0.0,0.0,0.0,0.0,0.0,0.0,0.0,0.0,0.0,0.0,0.0,0.0,0.0,0.0,0.0,0.0,0.0,0.0,0.0,0.0,0.0,0.0,0.0,0.0,0.0,0.0,0.0,0.0,0.0,0.0,0.0,0.0,0.0,0.0,0.0,0.0,0.0,0.0,0.0,0.0,0.0,0.0,0.0,0.0,0.0,0.0,0.0,0.0,0.0,0.0,0.0,0.0,0.0,0.0,0.0,0.0,0.0,0.0,0.0,0.0,0.0,0.0,0.0,0.0,0.0,0.0,0.0,0.0,0.0,0.0,0.0,0.0,0.0,0.0,0.0,0.0,0.0,0.0,0.0,0.0,0.0,0.0,0.0,0.0,0.0,0.0,0.0,0.0,0.0,0.0,0.0,0.0,0.0,0.0,0.0,0.0,0.0,0.0,0.0,0.0,0.0,0.0,0.0,0.0,0.0,0.0,0.0,0.0,0.0,0.0,0.0,0.0,0.0,0.0,0.0,0.0,0.0,0.0,0.0,0.0,0.0,0.0,0.0,0.0,0.0,0.0,0.0,0.0,0.0,0.0,0.0,0.0,0.0,0.0,0.0,0.0,0.0,0.0,0.0,0.0,0.0,0.0,0.0,0.0,0.0,0.0,0.0,0.0,0.0,0.0,0.0,0.0,0.0,0.0,0.0,0.0,0.0,0.0,0.0,0.0,0.0,0.0,0.0,0.0,0.0,0.0,0.0,0.0,0.0,0.0,0.0,0.0,0.0,0.0,0.0,0.0,0.0,0.0,0.0,0.0,0.0,0.0,0.0,0.0,0.0,0.0,0.0,0.0,0.0,0.0,0.0,0.0,0.0,0.0,0.0,0.0,0.0,0.0,0.0,0.0,0.0,0.0,0.0,0.0,0.0,0.0,0.0,0.0,0.0,0.0,0.0,0.0,0.0,0.0,0.0,0.0,0.0,0.0,0.0,0.0,0.0,0.0,0.0,0.0,0.0,0.0,0.0,0.0,0.0,0.0,0.0,0.0,0.0,0.0,0.0,0.0,0.0,0.0,0.0,0.0,0.0,0.0,0.0,0.0,0.0,0.0,0.0,0.0,0.0,0.0,0.0,0.0,0.0,0.0,0.0,0.0,0.0,0.0,0.0,0.0,0.0,0.0,0.0,0.0,0.0,0.0,0.0,0.0,0.0,0.0,0.0,0.0,0.0,0.0,0.0,0.0,0.0,0.0,0.0,0.0,0.0,0.0,0.0,0.0,0.0,0.0,0.0,0.0,0.0,0.0,0.0,0.0,0.0,0.0,0.0,0.0,0.0,0.0,0.0,0.0,0.0,0.0,0.0,0.0,0.0,0.0,0.0,0.0,0.0,0.0,0.0,0.0,0.0,0.0,0.0,0.0,0.0,0.0,0.0,0.0,0.0,0.0,0.0,0.0,0.0,0.0,0.0,0.0,0.0,0.0,0.0,0.0,0.0,0.0,0.0,0.0,0.0,0.0,0.0,0.0,0.0,0.0,0.0,0.0,0.0,0.0,0.0,0.0,0.0,0.0,0.0,0.0,0.0,0.0,0.0,0.0,0.0,0.0,0.0,0.0,0.0,0.0,0.0,0.0,0.0,0.0,0.0,0.0,0.0,0.0,0.0,0.0,0.0,0.0,0.0,0.0,0.0,0.0,0.0,0.0,0.0,0.0,0.0,0.0,0.0,0.0,0.0,0.0,0.0,0.0,0.0,0.0,0.0,0.0,0.0,0.0,0.0,0.0,0.0,0.0,0.0,0.0,0.0,0.0,0.0,0.0,0.0,0.0,0.0,0.0,0.0,0.0,0.0,0.0,0.0,0.0,0.0,0.0,0.0,0.0,0.0,0.0,0.0,0.0,0.0,0.0,0.0,0.0,0.0,0.0,0.0,0.0,0.0,0.0,0.0,0.0,0.0,0.0,0.0,0.0,0.0,0.0,0.0,0.0,0.0,0.0,0.0,0.0,0.0,0.0,0.0,0.0,0.0,0.0,0.0,0.0,0.0,0.0,0.0,0.0,0.0,0.0,0.0,0.0,0.0,0.0,0.0,0.0,0.0,0.0,0.0,0.0,0.0,0.0,0.0,0.0,0.0,0.0,0.0,0.0,0.0,0.0,0.0,0.0,0.0,0.0,0.0,0.0,0.0,0.0,0.0,0.0,0.0,0.0,0.0,0.0,0.0,0.0,0.0,0.0,0.0,0.0,0.0,0.0,0.0,0.0,0.0,0.0,0.0,0.0,0.0,0.0,0.0,0.0,0.0,0.0,0.0,0.0,0.0,0.0,0.0,0.0,0.0,0.0,0.0,0.0,0.0,0.0,0.0,0.0,0.0,0.0,0.0,0.0,0.0,0.0,0.0,0.0,0.0,0.0,0.0,0.0,0.0,0.0,0.0,0.0,0.0,0.0,0.0,0.0,0.0,0.0,0.0,0.0,0.0,0.0,0.0,0.0,0.0,0.0,0.0,0.0,0.0,0.0,0.0,0.0,0.0,0.0,0.0,0.0,0.0,0.0,0.0,0.0,0.0,0.0,0.0,0.0,0.0,0.0,0.0,0.0,0.0,0.0,0.0,0.0,0.0,0.0,0.0,0.0,0.0,0.0,0.0,0.0,0.0,0.0,0.0,0.0,0.0,0.0,0.0,0.0,0.0,0.0,0.0,0.0,0.0,0.0,0.0,0.0,0.0,0.0,0.0,0.0,0.0,0.0,0.0,0.0,0.0,0.0,0.0,0.0,0.0,0.0,0.0,0.0,0.0,0.0,0.0,0.0,0.0,0.0,0.0,0.0,0.0,0.0,0.0,0.0,0.0,0.0,0.0,0.0,0.0,0.0,0.0,0.0,0.0,0.0,0.0,0.0,0.0,0.0,0.0,0.0,0.0,0.0,0.0,0.0,0.0,0.0,0.0,0.0,0.0,0.0,0.0,0.0,0.0,0.0,0.0,0.0,0.0,0.0,0.0,0.0,0.0,0.0,0.0,0.0,0.0,0.0,0.0,0.0,0.0,0.0,0.0,0.0,0.0,0.0,0.0,0.0,0.0,0.0,0.0,0.0,0.0,0.0,0.0,0.0,0.0,0.0,0.0,0.0,0.0,0.0,0.0,0.0,0.0,0.0,0.0,0.0,0.0,0.0,0.0,0.0,0.0,0.0,0.0,0.0,0.0,0.0,0.0,0.0,0.0,0.0,0.0,0.0,0.0,0.0,0.0,0.0,0.0,0.0,0.0,0.0,0.0,0.0,0.0,0.0,0.0,0.0,0.0,0.0,0.0,0.0,0.0,0.0,0.0,0.0,0.0,0.0,0.0,0.0,0.0,0.0,0.0,0.0,0.0,0.0,0.0,0.0,0.0,0.0,0.0,0.0,0.0,0.0,0.0,0.0,0.0,0.0,0.0,0.0,0.0,0.0,0.0,0.0,0.0,0.0,0.0,0.0,0.0,0.0,0.0,0.0,0.0,0.0,0.0,0.0,0.0,0.0,0.0,0.0,0.0,0.0,0.0,0.0,0.0,0.0,0.0,0.0,0.0,0.0,0.0,0.0,0.0,0.0,0.0,0.0,0.0,0.0,0.0,0.0,0.0,0.0,0.0,0.0,0.0,0.0,0.0,0.0,0.0,0.0,0.0,0.0,0.0,0.0,0.0,0.0,0.0,0.0,0.0,0.0,0.0,0.0,0.0,0.0,0.0,0.0,0.0,0.0,0.0,0.0,0.0,0.0,0.0,0.0,0.0,0.0,0.0,0.0,0.0,0.0,0.0,0.0,0.0,0.0,0.0,0.0,0.0,0.0,0.0,0.0,0.0,0.0,0.0,0.0,0.0,0.0,0.0,0.0,0.0,0.0,0.0,0.0,0.0,0.0,0.0,0.0,0.0,0.0,0.0,0.0,0.0,0.0,0.0,0.0,0.0,0.0,0.0,0.0,0.0,0.0,0.0,0.0,0.0,0.0,0.0,0.0,0.0,0.0,0.0,0.0,0.0,0.0,0.0,0.0,0.0,0.0,0.0,0.0,0.0,0.0,0.0,0.0,0.0,0.0,0.0,0.0,0.0,0.0,0.0,0.0,0.0,0.0,0.0,0.0,0.0,0.0,0.0,0.0,0.0,0.0,0.0,0.0,0.0,0.0,0.0,0.0,0.0,0.0,0.0,0.0,0.0,0.0,0.0,0.0,0.0,0.0,0.0,0.0,0.0,0.0,0.0,0.0,0.0,0.0,0.0,0.0,0.0,0.0,0.0,0.0,0.0,0.0,0.0,0.0,0.0,0.0,0.0,0.0,0.0,0.0,0.0,0.0,0.0,0.0,0.0,0.0,0.0,0.0,0.0,0.0,0.0,0.0,0.0,0.0,0.0,0.0,0.0,0.0,0.0,0.0,0.0,0.0,0.0,0.0,0.0,0.0,0.0,0.0,0.0,0.0,0.0,0.0,0.0,0.0,0.0,0.0,0.0,0.0,0.0,0.0,0.0,0.0,0.0,0.0,0.0,0.0,0.0,0.0,0.0,0.0,0.0,0.0,0.0,0.0,0.0,0.0,0.0,0.0,0.0,0.0,0.0,0.0,0.0,0.0,0.0,0.0,0.0,0.0,0.0,0.0,0.0,0.0,0.0,0.0,0.0,0.0,0.0,0.0,0.0,0.0,0.0,0.0,0.0,0.0,0.0,-2.5437,0.0,0.0,0.0,0.0,0.0,0.0,0.0,0.0,0.0,0.0,0.0,0.0,0.0,0.0,0.0,0.0,0.0,0.0,0.0,0.0,0.0,0.0,0.0,0.0,0.0,0.0,0.0,0.0,0.0,0.0,0.0,0.0,0.0,0.0,0.0,0.0,0.0,0.0,0.0,-2.8405,-2.8838,-2.9308,-2.9023,-2.9116,-2.9487,0.0,0.0,0.0,0.0,0.0,0.0,0.0,0.0,0.0,0.0,0.0,0.0,0.0,0.0,0.0,0.0,0.0,0.0,0.0,0.0,0.0,0.0,0.0,0.0,0.0,0.0,0.0,0.0,0.0,0.0,0.0,0.0,0.0,0.0,0.0,0.0,0.0,0.0,0.0,0.0,0.0,0.0,0.0,0.0,0.0,0.0,0.0,0.0,0.0,0.0,0.0,0.0,0.0,0.0,0.0,0.0,0.0,0.0,0.0,0.0,0.0,0.0,0.0,0.0,0.0,0.0,0.0,0.0,0.0,0.0,0.0,-2.5002,0.0,0.0,0.0,0.0,0.0,0.0,0.0,0.0,0.0,0.0,0.0,0.0,0.0,0.0,0.0,0.0,0.0,0.0,0.0,0.0,0.0,0.0,0.0,-2.6933,-2.6798,-2.6921,-2.6809,-2.6715,0.0,0.0,0.0,0.0,0.0,0.0,0.0,-2.6839,-2.6884,-2.6798,-2.7775,-2.8448,-2.8795,-2.8838,-2.9164,-2.9738,-2.9382,0.0,0.0,0.0,0.0,0.0,0.0,0.0,0.0,0.0,0.0,0.0,0.0,0.0,0.0,0.0,0.0,0.0,0.0,0.0,0.0,0.0,0.0,0.0,0.0,0.0,0.0,0.0,0.0,0.0,0.0,0.0,0.0,0.0,0.0,0.0,0.0,0.0,0.0,0.0,0.0,0.0,0.0,0.0,0.0,0.0,0.0,0.0,0.0,0.0,0.0,0.0,0.0,0.0,0.0,0.0,0.0,0.0,0.0,0.0,0.0,0.0,0.0,0.0,-2.2444,-2.2955,-2.4012,-2.3777,-2.4476,-2.5836,-2.5458,-2.5613,-2.6013,-2.5098,0.0,0.0,0.0,0.0,0.0,0.0,0.0,0.0,0.0,0.0,0.0,0.0,0.0,0.0,0.0,0.0,0.0,0.0,0.0,0.0,0.0,-2.6445,-2.5955,-2.5997,-2.5295,-2.484,-2.484,0.0,0.0,0.0,0.0,0.0,-2.452,-2.5495,-2.6069,-2.6291,-2.8315,-2.9232,-2.9045,-2.9289,-2.9343,-2.9228,-2.9506,-2.9189,-2.8463,0.0,0.0,0.0,0.0,0.0,0.0,0.0,0.0,0.0,0.0,0.0,0.0,0.0,0.0,0.0,0.0,0.0,0.0,0.0,0.0,0.0,0.0,0.0,0.0,0.0,0.0,0.0,0.0,0.0,0.0,0.0,0.0,0.0,0.0,0.0,0.0,0.0,0.0,0.0,0.0,0.0,-2.3159,-2.3066,0.0,0.0,0.0,0.0,0.0,0.0,0.0,0.0,0.0,0.0,0.0,0.0,0.0,-2.222,-2.2416,-2.2757,-2.3072,-2.3265,-2.366,-2.3932,-2.4079,-2.403,-2.4156,-2.4349,-2.4303,0.0,-2.5681,-2.5719,0.0,0.0,0.0,0.0,0.0,0.0,0.0,0.0,0.0,0.0,0.0,0.0,0.0,0.0,0.0,0.0,0.0,0.0,0.0,0.0,0.0,-2.5797,-2.5334,-2.5728,-2.5409,-2.5096,-2.4848,-2.4828,0.0,0.0,0.0,-2.4456,-2.4317,-2.4748,-2.5161,-2.5628,-2.695,-2.7667,-2.7811,-2.7914,-2.8202,-2.866,-2.8847,-2.8784,-2.8538,-2.8907,0.0,0.0,0.0,0.0,0.0,0.0,0.0,0.0,0.0,0.0,0.0,0.0,0.0,0.0,0.0,0.0,0.0,0.0,0.0,0.0,0.0,0.0,0.0,0.0,0.0,0.0,0.0,0.0,0.0,0.0,0.0,0.0,0.0,0.0,0.0,0.0,0.0,0.0,0.0,-2.2851,-2.2325,-2.251,-2.2584,-2.2617,0.0,0.0,0.0,0.0,0.0,0.0,0.0,0.0,0.0,-2.1753,-2.185,-2.1799,-2.1577,-2.1745,-2.192,-2.202,-2.2181,-2.261,-2.3211,-2.3211,-2.3552,-2.4088,-2.4088,-2.4205,-2.4381,-2.4455,-2.4187,-2.3748,0.0,0.0,0.0,0.0,-2.3222,-2.3001,0.0,0.0,0.0,0.0,0.0,0.0,0.0,0.0,0.0,0.0,0.0,0.0,-2.6012,-2.5199,-2.4781,-2.5295,-2.5007,-2.473,-2.4556,-2.4391,-2.4252,-2.4119,-2.3857,-2.3759,-2.3825,-2.3908,-2.4372,-2.5102,-2.5664,-2.6189,-2.6597,-2.6693,-2.7121,-2.7908,-2.7945,-2.8233,-2.8733,-2.8809,-2.8491,-2.8022,0.0,0.0,0.0,0.0,0.0,0.0,0.0,0.0,0.0,0.0,0.0,0.0,0.0,0.0,0.0,0.0,0.0,0.0,0.0,0.0,0.0,0.0,0.0,0.0,0.0,0.0,0.0,0.0,0.0,0.0,0.0,0.0,0.0,0.0,0.0,0.0,0.0,-2.1835,-2.1558,-2.1724,-2.1813,-2.1724,0.0,0.0,0.0,0.0,0.0,0.0,-2.19,-2.19,-2.1704,-2.1371,-2.147,-2.1344,-2.0917,-2.0925,-2.0925,-2.0925,-2.0925,-2.1326,-2.2072,-2.2072,-2.2518,-2.3294,-2.3294,-2.3084,-2.2801,-2.3229,-2.3322,-2.3195,-2.2893,-2.2774,-2.2699,-2.2609,-2.2503,-2.2375,0.0,0.0,0.0,0.0,0.0,0.0,0.0,0.0,0.0,0.0,0.0,-2.513,-2.515,-2.4646,-2.4319,-2.4385,-2.3084,-2.2481,-2.2961,-2.251,-2.2454,-2.2981,-2.2187,-2.1835,-2.1907,-2.273,-2.3688,-2.481,-2.5352,-2.5779,-2.6031,-2.63,-2.6597,-2.6877,-2.6894,-2.7586,-2.8791,-2.9059,-2.8709,-2.7972,-2.7745,0.0,0.0,0.0,0.0,0.0,0.0,0.0,0.0,0.0,0.0,0.0,0.0,0.0,0.0,0.0,0.0,0.0,0.0,0.0,0.0,0.0,0.0,0.0,0.0,0.0,0.0,0.0,0.0,0.0,0.0,0.0,0.0,0.0,0.0,0.0,0.0,0.0,0.0,-2.0071,-2.1103,0.0,0.0,0.0,0.0,-2.141,-2.1331,-2.1067,-2.0544,-2.051,-2.0628,-2.0936,-2.0944,-2.0952,-2.0925,-2.0925,-2.0925,-2.0925,-2.0925,-2.0925,-2.0968,-2.0968,-2.1019,-2.107,-2.107,-2.1062,-2.1167,-2.2721,-2.3158,-2.2755,-2.2971,-2.2915,-2.2679,-2.2338,-2.2057,-2.1741,0.0,0.0,0.0,0.0,0.0,0.0,0.0,0.0,-2.5592,-2.5261,-2.4618,-2.4406,-2.4917,-2.4248,-2.3745,-2.3657,-2.3197,-2.2708,-2.2285,-2.2065,-2.1839,-2.155,-2.1478,-2.1379,-2.1334,-2.1991,-2.24,-2.2527,-2.3263,-2.3732,-2.3998,-2.4079,-2.4728,-2.5819,-2.5809,-2.6812,-2.8462,-2.8405,-2.8405,-2.8422,-2.8198,-2.7806,0.0,0.0,0.0,0.0,0.0,0.0,0.0,0.0,0.0,0.0,0.0,0.0,0.0,0.0,0.0,0.0,0.0,0.0,0.0,0.0,0.0,0.0,0.0,0.0,0.0,0.0,0.0,0.0,0.0,0.0,0.0,0.0,0.0,0.0,0.0,0.0,0.0,-1.9957,-2.0466,0.0,-2.0427,-2.0882,-2.1072,-2.0737,-2.0907,-2.0944,-2.0726,-2.0734,-2.079,-2.0917,-2.0925,-2.0925,-2.0925,-2.0925,-2.0925,-2.0925,-2.0925,-2.0925,-2.0925,-2.0925,-2.0925,-2.0925,-2.0925,-2.0925,-2.096,-2.1526,-2.1687,-2.157,-2.1669,-2.162,-2.1537,-2.1419,-2.1325,-2.1198,0.0,0.0,0.0,0.0,0.0,0.0,0.0,0.0,-2.4848,-2.4659,-2.3932,-2.366,-2.4345,-2.3832,-2.3399,-2.3302,-2.3029,-2.2515,-2.1612,-2.1684,-2.1447,-2.0654,-2.1063,-2.112,-2.0891,-2.1304,-2.1436,-2.1173,-2.1725,-2.2123,-2.2476,-2.2476,-2.317,-2.4353,-2.4452,-2.5412,-2.7026,-2.6921,-2.7717,-2.8936,-2.8723,-2.8188,-2.75,0.0,0.0,0.0,0.0,0.0,0.0,0.0,0.0,0.0,0.0,0.0,0.0,0.0,0.0,0.0,0.0,0.0,0.0,0.0,0.0,0.0,0.0,0.0,0.0,0.0,0.0,0.0,0.0,0.0,0.0,0.0,0.0,0.0,0.0,0.0,-2.0265,-1.9957,-2.0281,-2.0432,-2.0075,-2.0361,-2.0567,-2.0567,-2.0841,-2.1019,-2.0925,-2.0976,-2.0968,-2.0925,-2.0925,-2.0925,-2.0925,-2.0925,-2.0925,-2.0925,-2.0925,-2.0925,-2.0925,-2.0925,-2.0925,-2.0925,-2.0925,-2.0925,-2.0925,-2.0925,-2.0925,-2.0925,-2.0925,-2.0925,-2.0925,-2.0925,-2.0925,-2.0925,0.0,0.0,0.0,0.0,0.0,0.0,0.0,-2.4253,-2.3262,-2.3641,-2.3205,-2.3012,-2.3471,-2.3354,-2.3279,-2.3229,-2.2526,-2.1692,-2.088,-2.1246,-2.1098,-2.0305,-2.08,-2.0891,-2.0408,-2.0742,-2.0925,-2.0917,-2.0925,-2.1173,-2.1725,-2.1725,-2.1979,-2.2526,-2.2778,-2.3461,-2.4492,-2.4737,-2.6607,-2.9395,-2.9139,-2.8578,-2.7847,0.0,0.0,0.0,0.0,0.0,0.0,0.0,0.0,0.0,0.0,0.0,0.0,0.0,0.0,0.0,0.0,0.0,0.0,0.0,0.0,0.0,0.0,0.0,0.0,0.0,0.0,0.0,0.0,0.0,0.0,0.0,0.0,0.0,-1.9972,-2.0235,-2.0281,-1.9988,-2.0504,-2.079,-2.049,-2.0718,-2.0925,-2.0925,-2.1173,-2.1173,-2.0925,-2.1173,-2.1173,-2.0925,-2.0925,-2.0873,-2.0865,-2.0873,-2.0873,-2.0865,-2.0873,-2.0925,-2.0925,-2.0925,-2.0925,-2.0925,-2.0925,-2.0925,-2.0925,-2.0925,-2.0925,-2.0925,-2.0925,-2.0925,-2.0925,-2.0925,-2.0925,-2.0925,0.0,0.0,0.0,0.0,0.0,0.0,0.0,-2.4445,-2.3863,-2.3195,-2.2671,-2.256,-2.3296,-2.3167,-2.2518,-2.1344,-2.1242,-2.0511,-1.8884,-1.8941,-1.9149,-1.9567,-1.9617,-1.9992,-2.0774,-2.0869,-2.1019,-2.1173,-2.1019,-2.1267,-2.1979,-2.1776,-2.1979,-2.2476,-2.2577,-2.3211,-2.4187,-2.4295,-2.5344,-2.7016,-2.7723,-2.7237,-2.6078,0.0,0.0,0.0,0.0,0.0,0.0,0.0,0.0,0.0,0.0,0.0,0.0,0.0,0.0,0.0,0.0,0.0,0.0,0.0,0.0,0.0,0.0,0.0,0.0,0.0,0.0,0.0,0.0,0.0,0.0,0.0,0.0,-2.0941,-2.0843,-2.0803,-2.0894,-2.1185,-2.1204,-2.1234,-2.1332,-2.1414,-2.1471,-2.1471,-2.1377,-2.1275,-2.1173,-2.107,-2.0968,-2.0925,-2.0925,-2.0498,-1.9702,-2.0498,-2.0498,-1.9702,-2.0498,-2.0925,-2.0925,-2.0925,-2.0925,-2.0925,-2.0925,-2.0925,-2.0925,-2.0925,-2.0925,-2.0925,-2.0925,-2.0925,-2.0925,-2.0925,-2.0925,-2.0925,0.0,0.0,0.0,0.0,0.0,0.0,0.0,-2.4188,-2.3683,-2.2981,-2.2404,-2.2547,-2.3696,-2.3079,-2.2165,-2.1089,-2.075,-1.9613,-1.7442,-1.716,-1.756,-1.8673,-1.9121,-1.9633,-2.0395,-2.0814,-2.1121,-2.1326,-2.1121,-2.1326,-2.1776,-2.1623,-2.1623,-2.1827,-2.2072,-2.2518,-2.3103,-2.3352,-2.384,-2.462,-2.5838,-2.6094,-2.5854,-2.605,-2.5631,-2.4815,-2.4628,-2.4411,-2.425,-2.425,0.0,0.0,0.0,0.0,0.0,0.0,0.0,0.0,0.0,0.0,0.0,0.0,0.0,0.0,0.0,0.0,0.0,0.0,0.0,0.0,0.0,0.0,0.0,0.0,-1.9386,-1.975,-2.0004,-2.0707,-2.1369,-2.1674,-2.1573,-2.1471,-2.1522,-2.1097,-2.0783,-2.068,-2.0218,-1.9849,-1.9746,-2.0122,-2.0277,-2.0181,-2.0181,-1.9864,-1.9228,-1.9391,-1.9391,-1.9176,-1.9443,-2.0027,-2.0873,-2.0388,-2.0447,-2.0925,-2.0925,-2.0925,-2.0925,-2.0925,-2.0925,0.0,0.0,0.0,0.0,0.0,-2.0925,-2.0925,0.0,0.0,0.0,0.0,0.0,0.0,0.0,-2.3877,-2.3196,-2.3075,-2.2499,-2.2691,-2.4239,-2.3029,-2.1996,-2.1626,-2.0594,-1.8947,-1.6523,-1.6113,-1.6557,-1.7888,-1.8948,-1.957,-1.9724,-2.0806,-2.1377,-2.1369,-2.1377,-2.1377,-2.1326,-2.1318,-2.1173,-2.0925,-2.142,-2.1623,-2.1623,-2.2173,-2.2426,-2.2627,-2.385,-2.508,-2.6069,-2.5692,-2.5439,-2.5295,-2.4808,-2.4594,-2.4555,-2.4555,0.0,0.0,0.0,0.0,0.0,0.0,0.0,0.0,0.0,0.0,0.0,0.0,0.0,0.0,0.0,0.0,0.0,0.0,0.0,0.0,0.0,0.0,0.0,0.0,-1.7712,-1.7857,-1.8307,-2.0092,-2.1361,-2.1353,-2.1302,-2.1208,-2.1003,-2.0055,-1.9369,-1.9117,-1.8433,-1.7903,-1.7654,0.0,0.0,0.0,0.0,-1.8968,-1.8805,-1.8021,-1.8021,-1.8805,-1.7969,-1.8603,-2.0498,-1.9495,-1.9546,-2.0557,-2.0557,-2.0609,-2.0712,-2.0712,-2.0763,-2.0925,-2.0925,-2.0925,-2.0925,-2.0925,-2.0925,-2.0925,0.0,0.0,0.0,0.0,0.0,0.0,0.0,-2.4776,-2.4166,-2.4057,-2.2905,-2.2547,-2.3737,-2.2979,-2.1988,-2.0964,-1.9984,-1.8685,-1.7038,-1.6941,-1.7361,-1.8281,-1.8744,-1.9287,-2.0027,-2.1062,-2.1725,-2.1928,-2.1725,-2.1623,-2.1623,-2.142,-2.1173,-2.0925,-2.1027,-2.107,-2.107,-2.1623,-2.2072,-2.2577,-2.327,-2.3569,-2.3651,-2.4202,-2.3879,-2.3047,-2.252,-2.2156,-2.1916,-2.1916,-2.1702,-2.1427,-2.1358,-2.1333,0.0,0.0,0.0,0.0,0.0,0.0,0.0,0.0,0.0,0.0,0.0,0.0,0.0,0.0,0.0,0.0,0.0,0.0,0.0,-1.719,-1.7964,-1.8426,-1.8105,-1.8842,-1.9258,-1.9036,-1.8835,-1.879,-1.8932,-1.8776,-1.862,-1.8568,-1.821,-1.7955,-1.7903,-1.7962,-1.7969,-1.7916,-1.7916,-1.7496,-1.6546,-1.7233,-1.7233,-1.6546,0.0,0.0,-1.823,-1.8021,-1.8021,-1.8237,-1.8237,-1.8708,-1.9546,-1.9546,-2.0071,-2.0925,-2.0925,-2.0925,-2.0925,-2.0925,-2.0925,-2.0925,0.0,0.0,0.0,0.0,0.0,0.0,0.0,-2.5411,-2.4855,-2.4085,-2.3111,-2.2738,-2.3455,-2.2646,-2.1867,-2.1199,-1.9911,-1.8721,-1.7924,-1.7966,-1.8258,-1.8767,-1.9501,-2.0012,-2.0277,-2.1361,-2.1928,-2.1928,-2.1928,-2.1818,-2.1725,-2.1725,-2.1479,-2.1121,-2.1121,-2.1027,-2.0925,-2.1173,-2.1623,-2.2131,-2.2677,-2.2979,-2.3179,-2.3877,-2.3827,-2.3288,-2.2728,-2.2415,-2.2261,-2.2261,-2.2133,-2.1936,-2.1707,-2.1647,-2.1488,0.0,0.0,0.0,0.0,0.0,0.0,0.0,0.0,0.0,0.0,0.0,0.0,0.0,0.0,-1.7034,0.0,0.0,-1.6439,-1.59,-1.6293,-1.6599,-1.6333,-1.6387,-1.6962,-1.8255,-1.8255,-1.821,-1.821,-1.7679,-1.7312,-1.716,-1.6493,-1.618,-1.628,-1.6704,-1.6975,-1.6975,-1.7087,-1.6823,-1.6133,-1.624,-1.6293,-1.6293,-1.6187,-1.6711,-1.7765,-1.7074,-1.7074,-1.7601,-1.7601,-1.7916,-1.8387,-1.8387,-1.8708,-1.9287,-1.9864,-2.0395,-2.0925,-2.0925,-2.0925,-2.0925,0.0,0.0,0.0,0.0,0.0,0.0,0.0,-2.5913,-2.5445,-2.436,-2.3516,-2.3189,-2.3625,-2.2584,-2.1735,-2.1479,-2.0432,-1.9602,-1.9172,-1.9315,-1.9511,-1.9723,-2.0467,-2.0834,-2.0688,-2.1564,-2.1928,-2.1725,-2.1928,-2.192,-2.1725,-2.1928,-2.1776,-2.1326,-2.1369,-2.1224,-2.0925,-2.1173,-2.1522,-2.192,-2.2577,-2.3088,-2.3538,-2.3994,-2.4152,-2.3945,-2.3379,-2.3129,-2.3129,-2.3129,-2.3079,-2.2926,-2.2621,-2.2374,-2.2085,-2.107,-2.0972,0.0,0.0,0.0,0.0,0.0,0.0,0.0,0.0,0.0,-1.7583,-1.7753,-1.7005,-1.6113,-1.5257,-1.5298,-1.5258,-1.4626,-1.4552,-1.4606,-1.4552,-1.4401,-1.5083,-1.7318,-1.7574,-1.7476,-1.7272,-1.6486,-1.5908,-1.5648,-1.4821,-1.4455,-1.4659,-1.5559,-1.6033,-1.598,-1.6193,-1.6146,-1.5873,-1.5196,-1.5303,-1.6205,-1.5083,-1.5506,-1.7193,-1.608,-1.608,-1.6975,-1.718,-1.7285,-1.7285,-1.7496,-1.7601,-1.7706,-1.8544,-1.9443,-2.0285,-2.0498,-2.0447,-2.0233,0.0,0.0,0.0,0.0,0.0,0.0,0.0,0.0,-2.5867,-2.6077,-2.4666,-2.3926,-2.4788,-2.3392,-2.1987,-2.0955,-2.1843,-2.2085,-2.1123,-2.1486,-2.1736,-2.1777,-2.1234,-2.0987,-2.1183,-2.1556,-2.1725,-2.1725,-2.1725,-2.1725,-2.1725,-2.1725,-2.1573,-2.1318,-2.1522,-2.1369,-2.0968,-2.2173,-2.2577,-2.2476,-2.3587,-2.4053,-2.4102,-2.4152,-2.3895,-2.3329,-2.2778,-2.2577,-2.2577,-2.2577,-2.2274,-2.1869,-2.1828,-2.1294,-2.0661,-2.0613,-2.0721,-2.0869,-2.0849,-2.0088,-1.932,-1.9548,-1.8203,-1.7018,0.0,0.0,-1.6883,-1.6289,-1.6035,-1.563,-1.4519,-1.4363,-1.4374,-1.4245,-1.445,-1.4498,-1.4299,-1.4396,-1.4606,-1.4665,-1.4665,-1.4665,-1.4611,-1.4713,-1.4761,-1.4761,-1.4874,-1.4934,-1.4928,-1.5089,-1.5035,-1.4815,-1.4815,-1.4713,-1.4461,-1.4353,-1.4353,-1.4461,-1.4299,-1.4407,-1.4617,-1.4455,-1.4455,-1.4617,-1.5654,-1.6068,-1.618,-1.718,-1.7601,-1.7601,-1.7706,-1.7864,-1.8073,-1.902,-1.8812,-1.7975,0.0,0.0,0.0,0.0,0.0,0.0,0.0,0.0,0.0,-2.6092,-2.5391,-2.4656,-2.4024,-2.2953,-2.1989,-2.1391,-2.2288,-2.265,-2.2072,-2.2551,-2.287,-2.287,-2.2518,-2.2417,-2.2526,-2.2274,-2.208,-2.192,-2.1776,-2.1623,-2.1471,-2.1623,-2.1573,-2.1318,-2.1573,-2.1573,-2.142,-2.2123,-2.2627,-2.3029,-2.3488,-2.3895,-2.4202,-2.4202,-2.3848,-2.3345,-2.2804,-2.2606,0.0,-2.2606,-2.2458,-2.23,-2.23,-2.2049,-2.1605,-2.0934,-2.0886,-2.0937,-2.0254,-1.9541,-1.8855,0.0,-1.742,-1.6886,-1.7176,-1.6626,-1.6004,-1.5913,-1.5393,-1.4773,-1.4299,-1.4353,-1.445,0.0,-1.4552,-1.4552,-1.445,-1.4396,-1.4353,-1.4191,-1.4347,-1.445,-1.445,-1.4552,-1.4654,-1.4821,-1.4767,-1.4821,-1.4982,-1.4874,-1.4713,-1.4606,-1.4767,-1.4713,-1.445,-1.4611,-1.4671,-1.4671,-1.4504,-1.445,-1.445,-1.4245,-1.4196,-1.425,-1.4713,-1.4928,-1.4922,-1.5405,-1.5613,-1.5666,-1.634,-1.6187,-1.582,-1.7601,-1.7969,-1.7601,0.0,0.0,0.0,0.0,0.0,0.0,0.0,0.0,0.0,0.0,-2.5913,-2.5231,-2.3661,-2.295,-2.2476,-2.2211,-2.2648,-2.2878,-2.2706,-2.3205,-2.3579,-2.3696,-2.3497,-2.3397,-2.3497,-2.2828,-2.2375,-2.2224,-2.2021,-2.1878,-2.1725,-2.1928,-2.1928,-2.1776,-2.203,-2.208,-2.1928,-2.2384,-2.2828,-2.3329,-2.3488,-2.3786,-2.4192,-2.4073,-2.3804,-2.345,-2.3053,-2.2836,-2.2756,-2.2756,-2.265,-2.2545,-2.2545,-2.2377,-2.204,-2.1246,-2.11,-2.0967,-1.9801,-1.8992,0.0,-1.7014,-1.6491,-1.6243,-1.6243,-1.5584,-1.5071,-1.5352,-1.4767,-1.4196,-1.4196,-1.4347,-1.4504,-1.4504,-1.4504,-1.4504,-1.4504,-1.4293,-1.425,-1.4299,-1.4396,-1.4557,-1.4821,-1.4874,-1.4874,-1.4982,-1.4934,-1.4874,-1.4982,-1.4821,-1.4659,-1.4606,-1.4767,-1.4767,-1.4498,-1.4665,-1.4773,-1.4773,-1.4557,-1.4504,-1.4504,-1.4299,-1.4196,-1.4196,-1.4196,-1.4196,-1.4196,-1.4196,-1.4196,-1.4299,-1.5137,-1.4922,-1.4407,-1.6033,-1.6664,-1.6664,0.0,0.0,0.0,0.0,0.0,0.0,0.0,0.0,0.0,0.0,0.0,0.0,0.0,-2.4016,-2.3671,-2.3454,-2.3233,-2.3128,-2.3261,-2.368,-2.408,-2.447,-2.3728,-2.3429,-2.3678,-2.2929,-2.2476,-2.2476,-2.2476,-2.2577,-2.2828,-2.2878,-2.2878,-2.2878,-2.3188,-2.3038,-2.2526,-2.3397,-2.3587,-2.3329,-2.3945,-2.4202,-2.4156,-2.3712,-2.3508,-2.3499,-2.3499,-2.3251,-2.2875,-2.2875,-2.2526,-2.212,-2.212,-2.1543,-2.0938,-2.136,-2.1279,0.0,0.0,0.0,-1.7057,-1.6298,-1.5194,-1.4288,-1.4288,-1.424,-1.424,-1.4245,-1.4191,-1.4196,-1.4196,-1.4196,-1.4191,-1.4191,-1.4191,-1.4191,-1.4191,-1.4196,-1.4299,-1.4552,-1.4347,-1.4515,0.0,-1.5482,-1.5315,-1.5041,-1.5315,-1.5315,-1.5041,-1.4982,-1.4874,-1.4606,-1.4606,-1.4504,-1.4191,-1.4191,-1.4191,-1.4191,-1.4191,-1.4191,-1.4191,-1.4196,-1.4196,-1.4196,-1.4196,-1.4196,-1.4196,-1.4196,-1.4196,-1.4196,-1.4245,-1.425,-1.4196,-1.4299,-1.4299,-1.4299,0.0,0.0,0.0,0.0,0.0,0.0,0.0,0.0,0.0,0.0,0.0,0.0,0.0,0.0,0.0,0.0,-2.4345,-2.4436,-2.4506,-2.4545,-2.4622,-2.4766,-2.4233,-2.3945,-2.4044,-2.3379,-2.3029,-2.3029,-2.2677,-2.2526,-2.2627,-2.2627,-2.2627,-2.2627,-2.2929,-2.3029,-2.3079,-2.3596,-2.3845,-2.3895,-2.4102,-2.3987,-2.373,-2.3544,-2.316,-2.2684,0.0,-2.2602,-2.2492,-2.2492,-2.239,-2.2242,-2.2242,-2.1741,0.0,-1.9904,0.0,0.0,0.0,0.0,-1.6196,-1.5094,-1.4497,-1.4196,-1.4196,-1.4196,-1.4196,-1.4196,-1.4062,-1.3943,-1.3943,-1.3943,-1.3943,-1.3943,-1.4083,-1.4196,-1.4196,-1.4196,-1.4245,-1.4293,-1.4396,0.0,0.0,0.0,0.0,-1.5315,-1.5208,-1.5041,-1.4767,-1.4563,-1.4401,-1.4347,-1.4347,-1.4293,-1.4196,-1.4196,-1.4196,-1.4196,-1.4196,-1.4196,-1.4196,-1.4196,-1.4196,-1.4196,-1.4196,-1.4196,-1.4196,-1.4196,-1.4196,-1.4196,-1.4196,-1.4196,-1.4196,-1.4196,-1.4196,-1.4196,0.0,0.0,0.0,0.0,0.0,0.0,0.0,0.0,0.0,0.0,0.0,0.0,0.0,0.0,0.0,0.0,0.0,-2.481,-2.4964,-2.4977,-2.5046,-2.5195,-2.4926,-2.4746,-2.4746,-2.4343,-2.4141,-2.4141,-2.3617,-2.3345,-2.3345,-2.3208,-2.3138,-2.3138,-2.3288,-2.3388,-2.3479,-2.3642,-2.3735,-2.3825,-2.3727,-2.3565,-2.327,-2.3123,-2.273,0.0,-2.2117,-2.2071,-2.2071,-2.2071,-2.2071,-2.2071,-2.2071,-2.1699,0.0,0.0,0.0,0.0,0.0,-1.5831,-1.5523,-1.4449,-1.4196,-1.4196,-1.4196,-1.4196,-1.4196,-1.4196,-1.3997,-1.382,-1.382,-1.382,-1.3793,-1.3712,-1.39,-1.4062,-1.4062,-1.4062,-1.4142,-1.4337,-1.4396,-1.4552,0.0,0.0,0.0,-1.5148,-1.4987,-1.4719,-1.445,-1.4293,-1.4196,-1.4196,-1.4196,-1.4196,-1.4196,-1.4196,-1.4196,-1.4196,-1.4196,-1.4196,-1.4196,-1.4196,-1.4196,-1.4196,-1.4196,-1.4196,-1.4196,-1.4196,-1.4196,-1.4196,-1.4196,-1.4196,-1.4196,-1.4196,-1.4196,-1.4196,0.0,0.0,0.0,0.0,0.0,0.0,0.0,0.0,0.0,0.0,0.0,0.0,0.0,0.0,0.0,0.0,0.0,0.0,-2.4771,-2.5008,-2.5303,-2.5681,-2.5677,-2.5643,-2.5643,-2.5643,-2.5643,-2.5643,-2.5149,-2.4896,-2.4905,-2.4423,-2.4236,-2.4236,-2.4236,-2.4088,-2.3863,-2.3627,-2.3365,-2.3087,-2.2908,-2.2848,-2.2784,-2.2428,-2.2263,-2.2199,-2.1824,-2.1696,-2.1696,-2.1696,0.0,0.0,0.0,0.0,0.0,0.0,0.0,-1.7967,-1.6419,-1.5625,-1.5094,-1.44,-1.4191,-1.4196,-1.425,-1.4191,-1.4191,-1.4175,-1.3976,-1.3798,0.0,0.0,-1.3733,-1.3513,-1.368,-1.3841,-1.3841,-1.3841,-1.4028,0.0,0.0,0.0,0.0,0.0,0.0,-1.4606,0.0,-1.4504,-1.4191,-1.4196,-1.4196,-1.4196,-1.4196,-1.4196,-1.4196,-1.4196,-1.4196,-1.4196,-1.4196,-1.4196,-1.4196,-1.4196,-1.4196,-1.4196,-1.4196,-1.4196,-1.4196,-1.4196,-1.4196,-1.4196,-1.4196,-1.4196,-1.4196,-1.4196,-1.4196,-1.4196,0.0,0.0,0.0,0.0,0.0,0.0,0.0,0.0,0.0,0.0,0.0,0.0,0.0,0.0,0.0,0.0,0.0,0.0,-2.6122,-2.5819,-2.5662,-2.5777,-2.5399,-2.5164,-2.5164,-2.5164,-2.5164,-2.5164,-2.5045,-2.4967,-2.4977,-2.4854,-2.482,-2.482,-2.482,-2.4773,-2.4623,-2.3909,-2.3542,-2.3429,-2.2686,-2.2337,-2.2206,-2.2106,-2.1971,-2.1833,-2.1733,-2.1696,-2.1696,0.0,0.0,0.0,0.0,-2.0703,-1.9576,0.0,0.0,-1.6846,-1.4913,-1.4737,-1.5009,-1.4863,-1.4509,-1.4299,-1.4719,-1.4509,-1.4143,-1.3954,-1.3728,-1.3507,0.0,0.0,0.0,-1.3486,-1.383,0.0,-1.4099,-1.4099,0.0,-1.4288,0.0,-1.4245,-1.4407,-1.4353,0.0,0.0,-1.4504,-1.4504,-1.4191,-1.4196,-1.4196,-1.4196,-1.4196,-1.4196,-1.4196,-1.4196,-1.4196,-1.4196,-1.4196,-1.4196,-1.4196,-1.4196,-1.4196,-1.4196,-1.4196,-1.4196,-1.4196,-1.4196,-1.4196,-1.4196,-1.4196,-1.4196,-1.4196,-1.4196,-1.4196,-1.4196,0.0,0.0,0.0,0.0,0.0,0.0,0.0,0.0,0.0,0.0,0.0,0.0,0.0,0.0,0.0,0.0,0.0,0.0,0.0,-2.6251,-2.6139,-2.6139,-2.5871,-2.5693,-2.5693,-2.5693,-2.5693,-2.5693,-2.5461,-2.5331,-2.5341,-2.5128,-2.4991,-2.4991,-2.4991,-2.4945,-2.4788,-2.4189,-2.3883,0.0,0.0,-2.2245,-2.2143,-2.1853,-2.1672,-2.1562,-2.1651,-2.1806,-2.198,0.0,0.0,-2.2035,-2.1755,-2.0899,-1.9718,-1.7956,0.0,-1.6649,-1.5118,-1.5033,-1.541,-1.541,-1.4987,-1.4589,-1.484,-1.445,-1.3959,-1.3723,-1.3685,0.0,-1.318,0.0,0.0,0.0,0.0,0.0,-1.4029,-1.4029,-1.4073,0.0,-1.4196,0.0,-1.4196,-1.4196,-1.4196,0.0,-1.4347,-1.4347,-1.4196,-1.4196,-1.4196,-1.4196,-1.4196,-1.4196,-1.4196,-1.4196,-1.4196,-1.4196,-1.4196,-1.4196,-1.4196,-1.4196,-1.4196,-1.4196,0.0,-1.4196,-1.4196,-1.4196,-1.4196,-1.4196,-1.4196,-1.4196,-1.4196,-1.4196,-1.4196,-1.4196,0.0,0.0,0.0,0.0,0.0,0.0,0.0,0.0,0.0,0.0,-2.7319,0.0,0.0,0.0,0.0,0.0,0.0,0.0,0.0,0.0,-2.652,-2.652,-2.652,-2.652,-2.652,-2.652,-2.652,-2.652,-2.6033,-2.5785,-2.5796,-2.5358,-2.5138,-2.5138,-2.5138,-2.4992,-2.4781,-2.451,-2.4295,-2.3945,-2.2767,-2.235,-2.2271,0.0,-2.1347,-2.1437,-2.1607,-2.1943,-2.2346,0.0,-2.2893,-2.2806,-2.2461,-2.159,-2.0468,-1.9177,-1.8105,-1.7145,-1.619,-1.5945,-1.5998,-1.5998,-1.5571,-1.5074,-1.492,-1.4444,-1.3953,-1.3685,0.0,-1.3844,-1.3358,-1.3802,-1.4061,-1.3379,0.0,-1.3883,-1.3863,-1.3868,-1.3949,-1.4169,-1.4196,-1.4196,-1.4196,-1.4196,-1.4196,-1.4196,-1.4196,-1.4196,-1.4196,-1.4196,-1.4196,-1.4196,-1.4196,-1.4196,-1.4196,-1.4196,-1.4196,-1.4196,-1.4196,-1.4196,-1.4196,-1.4196,-1.4196,-1.4196,-1.4196,-1.4196,-1.4196,-1.4196,-1.4196,-1.4196,-1.4196,-1.4196,-1.4196,-1.4196,-1.4196,-1.4196,0.0,0.0,0.0,0.0,0.0,0.0,0.0,0.0,0.0,0.0,-2.8518,-2.781,0.0,0.0,0.0,0.0,0.0,0.0,0.0,0.0,0.0,-2.6021,-2.6199,-2.6188,-2.6021,-2.6188,-2.6188,-2.6021,-2.5941,-2.5889,-2.5889,-2.5807,-2.5754,-2.5754,-2.5754,-2.5711,-2.5616,-2.4826,-2.444,-2.4257,-2.2511,-2.1961,-2.205,-2.1141,0.0,0.0,-2.1607,-2.1943,-2.2346,-2.2767,-2.2838,-2.2766,-2.3028,-2.2362,-2.1208,-1.9582,-1.8992,-1.8435,-1.6452,-1.6205,-1.6571,-1.6571,-1.6152,-1.5766,-1.5964,-1.5539,0.0,0.0,-1.4523,-1.4477,-1.4159,-1.438,-1.4463,-1.4078,0.0,0.0,0.0,0.0,-1.4148,0.0,0.0,0.0,0.0,0.0,0.0,0.0,0.0,-1.4196,-1.4196,-1.4196,-1.4196,-1.4196,-1.4196,-1.4196,-1.4196,-1.4196,-1.4196,-1.4196,-1.4196,-1.4196,-1.4196,-1.4196,-1.4196,-1.4196,-1.4196,0.0,-1.4196,-1.4196,-1.4196,-1.4196,-1.4196,-1.4196,-1.4196,-1.4196,-1.4196,-1.4196,0.0,0.0,0.0,0.0,0.0,0.0,0.0,-3.066,-3.0495,-3.0011,-2.9832,-2.9225,-2.781,-2.777,-2.7487,0.0,0.0,0.0,0.0,0.0,0.0,0.0,-2.599,-2.5979,-2.5895,-2.599,0.0,0.0,0.0,-2.5895,-2.5895,0.0,0.0,-2.5728,-2.5853,-2.5853,-2.5728,-2.538,-2.5242,-2.5105,-2.3714,-2.2921,-2.2536,0.0,0.0,0.0,0.0,0.0,-2.2309,-2.251,-2.2844,-2.3174,-2.3619,-2.3029,-2.1954,-2.1132,-2.0107,-1.8968,-1.7923,-1.7411,-1.7153,-1.7153,-1.6736,-1.6259,-1.6151,0.0,0.0,0.0,-1.4734,-1.4788,-1.437,0.0,0.0,0.0,0.0,0.0,0.0,0.0,0.0,0.0,0.0,0.0,0.0,0.0,0.0,0.0,0.0,-1.4832,-1.425,-1.4455,-1.4617,-1.4617,-1.4934,-1.4934,-1.4617,-1.4617,-1.4617,-1.4617,-1.4353,-1.4196,-1.4196,-1.4196,-1.4196,-1.4196,-1.4196,0.0,-1.4196,-1.4196,-1.4196,-1.4196,-1.4196,-1.4196,-1.4196,-1.4196,-1.4196,-1.4196,0.0,0.0,0.0,0.0,0.0,0.0,0.0,-3.066,-3.0571,-3.0406,-3.0672,-3.0355,-2.903,-2.8743,-2.8359,0.0,0.0,0.0,0.0,0.0,0.0,0.0,0.0,0.0,0.0,0.0,0.0,0.0,0.0,0.0,0.0,0.0,0.0,0.0,0.0,0.0,-2.5686,-2.5812,-2.5895,0.0,0.0,0.0,0.0,0.0,0.0,0.0,0.0,0.0,-2.2163,-2.2254,-2.2702,-2.3306,-2.3767,-2.335,-2.2657,-2.2448,-2.0969,-1.9391,-1.9258,-1.8401,-1.7582,-1.7582,-1.7265,-1.6741,-1.6183,-1.5758,0.0,0.0,-1.4975,-1.5124,-1.4682,0.0,-1.5365,0.0,-1.4898,0.0,0.0,0.0,0.0,0.0,0.0,0.0,0.0,0.0,0.0,0.0,0.0,0.0,-1.4617,-1.4934,-1.5196,-1.5196,-1.5678,-1.5624,-1.4987,-1.4987,-1.4934,-1.4826,-1.4407,-1.4196,-1.4196,-1.4196,-1.4196,-1.4196,-1.4196,0.0,0.0,-1.4196,-1.4196,-1.4196,-1.4196,-1.4196,-1.4196,-1.4196,-1.4196,-1.4196,0.0,0.0,0.0,0.0,0.0,0.0,0.0,-3.0444,-3.0406,-3.0406,-3.0444,-3.0444,-3.0495,-2.996,-2.9225,0.0,0.0,0.0,0.0,0.0,0.0,0.0,0.0,0.0,0.0,0.0,0.0,0.0,0.0,0.0,0.0,0.0,0.0,0.0,0.0,0.0,0.0,-2.5906,0.0,0.0,0.0,0.0,0.0,0.0,0.0,0.0,0.0,0.0,0.0,0.0,0.0,-2.2465,-2.2885,-2.3213,-2.3205,-2.225,0.0,0.0,-1.9406,-1.8401,-1.7582,-1.7582,-1.7582,-1.7376,-1.6739,0.0,0.0,-1.5808,-1.5689,-1.5737,-1.5683,-1.5709,-1.5671,-1.5396,-1.5595,-1.5674,0.0,0.0,0.0,0.0,0.0,0.0,0.0,0.0,0.0,0.0,0.0,0.0,-1.5731,-1.5785,-1.5838,-1.5838,-1.5891,-1.5624,-1.4987,-1.4987,-1.4773,-1.4245,-1.4191,-1.4196,-1.4196,-1.4196,-1.4196,-1.4196,-1.4196,0.0,0.0,-1.4196,-1.4196,-1.4196,-1.4196,-1.4196,-1.4196,-1.4196,-1.4196,-1.4196,0.0,0.0,0.0,0.0,0.0,0.0,-3.0406,-3.0406,-3.0406,-3.0406,-3.0406,-3.0444,-3.0495,-3.0406,-2.9999,-2.9264,0.0,0.0,0.0,0.0,0.0,0.0,0.0,0.0,0.0,0.0,0.0,0.0,0.0,0.0,0.0,0.0,0.0,0.0,0.0,0.0,0.0,0.0,0.0,0.0,0.0,0.0,0.0,0.0,0.0,0.0,0.0,0.0,0.0,0.0,0.0,0.0,-2.2199,-2.2446,0.0,0.0,-2.1641,-2.0266,-2.022,-1.8923,-1.7582,-1.7582,-1.7507,-1.7266,-1.68,0.0,-1.6326,-1.5912,-1.5784,-1.5784,-1.5784,-1.5784,-1.577,-1.565,-1.5618,0.0,0.0,0.0,0.0,0.0,0.0,0.0,0.0,0.0,0.0,0.0,0.0,0.0,-1.6895,-1.6577,-1.6365,-1.6365,-1.6736,-1.663,-1.6045,-1.5672,-1.541,-1.5202,-1.4509,-1.4196,-1.4196,-1.4196,-1.4196,-1.4196,-1.4196,0.0,0.0,-1.4196,-1.4196,-1.4196,-1.4196,-1.4196,-1.4196,-1.4196,-1.4196,-1.4196,0.0,0.0,0.0,0.0,0.0,-3.0228,-3.0228,-3.0228,-3.0228,-3.0228,-3.0228,-3.0254,-3.0292,-3.0457,-3.0381,-2.9947,-2.9781,0.0,0.0,0.0,0.0,0.0,0.0,0.0,0.0,0.0,-2.6787,-2.5895,-2.5895,0.0,0.0,0.0,0.0,0.0,0.0,0.0,0.0,0.0,0.0,0.0,0.0,0.0,0.0,0.0,0.0,0.0,0.0,0.0,0.0,0.0,0.0,0.0,0.0,-2.1879,-2.2245,0.0,-2.193,-2.0612,-2.0673,-1.9413,-1.7996,-1.7687,-1.742,-1.7125,0.0,0.0,-1.6186,-1.5892,-1.5784,-1.5784,-1.5784,-1.5784,-1.5784,-1.5784,-1.5735,-1.568,-1.568,0.0,0.0,0.0,0.0,0.0,0.0,0.0,0.0,0.0,0.0,0.0,-1.7582,-1.7206,-1.6942,-1.6942,-1.7371,-1.7318,-1.673,-1.6311,-1.6045,-1.5891,-1.5095,-1.4724,-1.4724,-1.4724,-1.4724,-1.4671,-1.4515,0.0,0.0,-1.425,-1.4196,-1.4196,-1.4196,-1.4196,-1.4196,-1.4196,-1.4196,-1.4196,0.0,0.0,0.0,0.0,0.0,0.0,-2.9792,-2.9792,-2.9792,-2.9792,-2.9792,-2.9869,-3.0075,-3.0113,-3.019,-3.0368,-2.9947,0.0,0.0,0.0,0.0,0.0,0.0,0.0,0.0,0.0,-2.6787,-2.5895,-2.5895,-2.5895,-2.5895,0.0,0.0,0.0,0.0,0.0,0.0,0.0,0.0,0.0,0.0,0.0,0.0,0.0,0.0,0.0,0.0,0.0,0.0,0.0,0.0,0.0,0.0,-2.1696,-2.1778,-2.2172,-2.181,-2.1136,-2.0505,-1.9737,-1.8916,-1.7891,-1.742,-1.7125,0.0,0.0,-1.6186,-1.5892,-1.5784,-1.5784,-1.5784,-1.5784,-1.5784,-1.5784,-1.6079,-1.6273,-1.6273,0.0,0.0,0.0,0.0,0.0,0.0,0.0,0.0,0.0,0.0,0.0,-1.7582,-1.7582,-1.7582,-1.7582,-1.7582,-1.7318,-1.673,-1.6677,-1.6418,-1.5891,-1.5891,-1.5891,-1.5891,-1.5891,-1.5891,-1.5838,0.0,0.0,0.0,-1.4407,-1.4196,-1.4196,-1.4196,-1.4196,-1.4196,-1.4196,-1.4196,-1.4196,0.0,0.0,0.0,0.0,0.0,0.0,0.0,-2.9792,-2.9792,-2.9792,-2.9792,-2.983,-2.9908,-3.0011,-3.0113,-3.019,-3.0165,0.0,0.0,0.0,0.0,0.0,0.0,0.0,0.0,-2.8912,-2.8478,-2.7597,-2.7597,-2.7325,-2.6787,-2.6787,-2.6456,0.0,0.0,0.0,0.0,0.0,0.0,0.0,0.0,0.0,0.0,0.0,0.0,0.0,0.0,0.0,0.0,0.0,0.0,0.0,0.0,0.0,0.0,-2.1842,0.0,0.0,-2.0975,-2.0271,-1.9319,-1.8283,-1.7804,-1.7408,-1.663,0.0,-1.5945,-1.5798,-1.5784,-1.5784,-1.5784,-1.5784,-1.5784,-1.5784,-1.5905,-1.6039,0.0,0.0,0.0,0.0,0.0,0.0,0.0,0.0,0.0,0.0,0.0,0.0,-1.7582,-1.7582,-1.7582,-1.7582,-1.7582,-1.7529,-1.7312,-1.6889,-1.6624,-1.6418,-1.6099,-1.5891,-1.5891,-1.5891,-1.5891,0.0,0.0,0.0,0.0,-1.4826,-1.4509,-1.4196,-1.4196,-1.4196,-1.4196,-1.4196,-1.4196,-1.4196,0.0,0.0,0.0,0.0,0.0,0.0,0.0,-2.9792,-2.9792,-2.9792,-2.9792,-2.9792,-2.9792,-2.9895,-2.9972,-2.9972,-3.0113,0.0,0.0,0.0,0.0,0.0,0.0,0.0,-2.96,-2.96,-2.9186,-2.8386,-2.8386,-2.8148,-2.7649,-2.7649,-2.7366,-2.6846,-2.6846,0.0,0.0,0.0,0.0,0.0,0.0,0.0,-2.502,0.0,0.0,0.0,0.0,0.0,0.0,0.0,0.0,0.0,0.0,0.0,0.0,0.0,0.0,0.0,0.0,-2.0695,-2.0079,-1.9014,-1.8286,0.0,0.0,0.0,-1.5784,-1.5784,-1.5784,-1.5784,-1.5784,-1.5784,-1.5784,-1.5784,-1.5784,-1.5932,0.0,0.0,0.0,0.0,0.0,0.0,0.0,0.0,0.0,0.0,0.0,0.0,-1.7582,-1.7582,-1.7582,-1.7582,-1.7582,-1.7582,-1.7582,-1.7206,-1.7054,-1.7054,-1.6683,-1.6524,-1.6524,-1.6524,-1.6524,0.0,0.0,0.0,0.0,-1.541,-1.5148,-1.4832,-1.4832,-1.4724,-1.4509,-1.4509,-1.4353,-1.4196,0.0,0.0,0.0,0.0,0.0,0.0,0.0,-2.9792,-2.9792,-2.9792,-2.9792,-2.9792,-2.9792,-2.9792,-2.9792,-2.9792,0.0,0.0,0.0,0.0,0.0,0.0,0.0,0.0,-2.9535,-2.9496,-2.9211,-2.8585,-2.8585,-2.8545,-2.8505,-2.8505,-2.8466,-2.8386,-2.8386,-2.7959,0.0,0.0,0.0,0.0,0.0,0.0,0.0,0.0,0.0,0.0,0.0,0.0,0.0,0.0,0.0,0.0,0.0,0.0,0.0,0.0,0.0,0.0,0.0,0.0,0.0,0.0,0.0,0.0,0.0,0.0,0.0,-1.5784,-1.5784,-1.5784,-1.5784,-1.5784,-1.5784,-1.5784,-1.5798,0.0,0.0,0.0,0.0,0.0,0.0,0.0,0.0,0.0,0.0,0.0,0.0,0.0,-1.7582,-1.7582,-1.7582,-1.7582,-1.7582,-1.7582,-1.7582,-1.7582,-1.7582,-1.7582,-1.7582,-1.7582,-1.7582,-1.7582,-1.7582,0.0,0.0,0.0,0.0,-1.6152,-1.5945,-1.5891,-1.5891,-1.5571,-1.5035,-1.5035,-1.4778,-1.4299,0.0,0.0,0.0,0.0,0.0,0.0,0.0,0.0,0.0,0.0,-2.9792,-2.9792,-2.9792,-2.9792,-2.9792,0.0,0.0,0.0,0.0,0.0,0.0,0.0,0.0,0.0,-3.0634,-3.0457,-3.0406,-3.0381,-3.0381,-3.0063,-2.9381,-2.9381,-2.903,-2.8386,-2.8386,-2.7959,0.0,0.0,0.0,0.0,0.0,0.0,0.0,0.0,0.0,0.0,-2.4231,-2.328,0.0,0.0,0.0,0.0,0.0,0.0,0.0,0.0,-2.1696,0.0,0.0,0.0,0.0,0.0,0.0,0.0,0.0,0.0,0.0,0.0,0.0,0.0,0.0,-1.5784,-1.5784,-1.5784,-1.6019,-1.6273,0.0,0.0,0.0,0.0,0.0,0.0,0.0,0.0,0.0,0.0,0.0,-1.7582,-1.7582,-1.7582,-1.7582,-1.7582,-1.7582,-1.7582,-1.7582,-1.7582,-1.7582,-1.7582,-1.7582,-1.7582,-1.7582,-1.7582,-1.7582,0.0,0.0,0.0,-1.6677,-1.6571,-1.6258,-1.5891,-1.5891,-1.5838,-1.5678,-1.5678,-1.5624,-1.541,0.0,0.0,0.0,0.0,0.0,0.0,0.0,0.0,0.0,0.0,0.0,-2.9792,-2.9792,-2.9792,0.0,0.0,0.0,0.0,0.0,0.0,0.0,0.0,0.0,-3.0457,-3.0836,-3.0773,-3.0811,-3.0986,-3.0986,-3.0748,-3.0305,-3.0305,-3.0063,-2.9549,-2.8743,-2.8148,0.0,0.0,0.0,0.0,-2.6093,0.0,0.0,0.0,0.0,0.0,-2.4754,-2.3747,0.0,-2.2526,-2.1971,-2.1284,0.0,0.0,0.0,0.0,-2.1696,0.0,0.0,0.0,0.0,0.0,0.0,0.0,0.0,0.0,0.0,0.0,0.0,0.0,0.0,0.0,0.0,0.0,-1.6279,0.0,0.0,0.0,0.0,0.0,0.0,0.0,0.0,0.0,0.0,0.0,0.0,-1.7582,-1.7582,-1.7582,-1.7582,-1.7582,-1.7582,-1.7582,-1.7582,-1.7582,-1.7582,-1.7582,-1.7582,-1.7582,-1.7582,-1.7582,-1.7582,0.0,0.0,0.0,-1.71,-1.71,-1.6948,-1.6683,-1.6683,-1.6524,-1.6258,-1.6258,-1.6099,-1.5838,0.0,0.0,0.0,0.0,0.0,0.0,0.0,0.0,0.0,0.0,0.0,0.0,0.0,0.0,0.0,0.0,0.0,0.0,0.0,0.0,0.0,0.0,-3.0228,-3.0267,-3.0698,-3.066,-3.0761,-3.0986,-3.0986,-3.0986,-3.0986,-3.0986,-3.0986,-3.0936,-2.9369,-2.8624,-2.8426,-2.7191,-2.6404,0.0,-2.629,0.0,0.0,0.0,0.0,0.0,0.0,0.0,0.0,-2.2867,-2.1996,-2.1087,-2.1508,0.0,0.0,0.0,0.0,0.0,0.0,0.0,-2.1724,-2.1517,-2.0121,-1.8742,0.0,0.0,0.0,0.0,0.0,0.0,0.0,-1.6106,0.0,0.0,0.0,0.0,0.0,0.0,0.0,0.0,0.0,0.0,0.0,0.0,0.0,0.0,0.0,-1.7582,-1.7582,-1.7582,-1.7582,-1.7582,-1.7582,-1.7582,-1.7582,-1.7582,-1.7582,-1.7582,-1.7582,-1.7582,-1.7582,-1.7582,-1.7582,-1.7582,0.0,0.0,-1.7582,-1.7582,-1.7582,-1.7582,-1.7582,-1.7312,-1.6836,-1.6836,-1.6577,-1.6152,0.0,0.0,0.0,0.0,0.0,0.0,0.0,0.0,0.0,0.0,0.0,0.0,0.0,0.0,0.0,0.0,0.0,0.0,0.0,0.0,0.0,-3.0406,-3.0228,-3.0267,-3.0698,-3.0533,-3.0647,-3.0986,-3.0986,-3.0986,-3.0986,-3.0986,-3.0986,-3.0986,-3.0304,-2.9628,-2.8912,-2.7952,-2.7087,-2.6362,-2.6093,0.0,0.0,0.0,0.0,0.0,0.0,0.0,0.0,-2.3323,-2.2315,-2.1042,-2.1338,0.0,0.0,0.0,0.0,0.0,-2.1696,-2.1934,-2.1916,-2.0797,-1.9658,-1.8557,-1.7738,0.0,0.0,0.0,0.0,0.0,0.0,-1.6295,-1.6353,0.0,0.0,0.0,0.0,0.0,0.0,0.0,0.0,0.0,0.0,0.0,0.0,0.0,0.0,-1.7582,-1.7582,-1.7582,-1.7582,-1.7582,-1.7582,-1.7582,-1.7582,-1.7582,-1.7582,-1.7582,-1.7582,-1.7582,-1.7582,-1.7582,-1.7582,-1.7582,0.0,-1.7582,-1.7582,-1.7582,-1.7582,-1.7582,-1.7582,-1.7529,-1.7477,-1.7477,-1.7424,-1.7265,0.0,0.0,0.0,0.0,0.0,0.0,0.0,0.0,0.0,0.0,0.0,0.0,0.0,0.0,0.0,0.0,0.0,0.0,0.0,0.0,-3.0292,-3.0406,-3.0292,-3.0419,-3.0698,-3.0723,-3.0823,-3.0986,-3.0986,-3.0986,-3.0986,-3.1235,-3.1384,-3.1471,-3.0771,-2.9858,-2.8848,-2.8191,-2.725,-2.6177,0.0,0.0,0.0,0.0,0.0,0.0,0.0,0.0,0.0,0.0,-2.2482,-2.1042,-2.1302,0.0,0.0,0.0,0.0,0.0,-2.1696,-2.1446,-2.0981,-1.9941,-1.9959,-1.9966,-1.8924,-1.7878,0.0,0.0,0.0,0.0,0.0,0.0,0.0,0.0,0.0,0.0,0.0,0.0,0.0,0.0,0.0,0.0,0.0,0.0,0.0,0.0,0.0,0.0,-1.7582,-1.7582,-1.7582,-1.7582,-1.7582,-1.7582,-1.7582,-1.7582,-1.7582,-1.7582,-1.7582,-1.7582,-1.7582,-1.7582,-1.7582,-1.7582,0.0,-1.7582,-1.7582,-1.7582,-1.7582,-1.7582,-1.7582,-1.7582,-1.7582,-1.7582,-1.7582,-1.7529,0.0,0.0,0.0,0.0,0.0,0.0,0.0,0.0,0.0,0.0,0.0,0.0,0.0,0.0,0.0,0.0,0.0,0.0,0.0,-3.0292,-3.033,-3.033,-3.0406,-3.0533,-3.0698,-3.0849,-3.0949,-3.0986,-3.0986,-3.0898,-3.0785,-3.0872,-3.1035,-3.1161,-3.057,-2.9615,-2.8481,-2.8152,-2.7261,-2.6146,0.0,0.0,0.0,0.0,0.0,0.0,0.0,0.0,0.0,0.0,0.0,0.0,0.0,0.0,0.0,-2.1696,-2.1696,-2.1696,-2.1696,-2.1248,-2.0592,-1.9805,-2.0064,-2.0253,-1.9295,-1.8505,-1.7689,0.0,0.0,0.0,0.0,-1.7077,0.0,0.0,0.0,0.0,0.0,0.0,0.0,0.0,0.0,0.0,0.0,0.0,0.0,0.0,0.0,0.0,-1.7582,-1.7582,-1.7582,-1.7582,-1.7582,-1.7582,-1.7582,-1.7582,-1.7582,-1.7582,-1.7582,-1.7582,-1.7582,-1.7582,-1.7582,-1.7582,-1.7582,-1.7582,-1.7582,-1.7582,-1.7582,-1.7582,-1.7582,-1.7582,-1.7582,-1.7582,-1.7582,-1.7529,0.0,0.0,0.0,0.0,0.0,0.0,0.0,0.0,0.0,0.0,0.0,0.0,0.0,0.0,0.0,0.0,0.0,0.0,0.0,-3.0011,-3.0113,-3.0113,-3.047,-3.0698,-3.0698,-3.0698,-3.0811,-3.0986,-3.0986,-3.0672,-3.0037,-2.9341,-2.9028,-2.9028,-2.9279,-2.8836,-2.7879,-2.778,-2.7371,-2.6768,-2.6396,0.0,0.0,0.0,0.0,0.0,0.0,0.0,0.0,0.0,0.0,0.0,0.0,0.0,-2.1482,-2.1651,-2.1696,-2.1696,-2.1696,-2.1907,-2.1915,-2.1017,-1.9191,-1.7498,-1.7019,-1.6845,-1.6876,-1.7032,0.0,0.0,0.0,-1.7542,0.0,0.0,0.0,0.0,0.0,0.0,0.0,0.0,0.0,0.0,0.0,0.0,0.0,0.0,0.0,0.0,-1.7582,-1.7582,-1.7582,-1.7582,-1.7582,-1.7582,-1.7582,-1.7582,-1.7582,-1.7582,-1.7582,-1.7582,-1.7582,-1.7582,-1.7582,-1.7582,-1.7582,-1.7582,-1.7582,-1.7582,-1.7582,-1.7582,-1.7582,-1.7582,-1.7582,-1.7582,-1.7582,-1.7582,0.0,0.0,0.0,0.0,0.0,0.0,0.0,0.0,0.0,0.0,0.0,0.0,0.0,0.0,0.0,0.0,0.0,0.0,0.0,-3.0049,-3.0152,-3.0292,-3.0533,-3.0773,-3.0874,-3.0874,-3.0911,-3.0986,-3.1123,-3.096,-3.0558,-3.0126,-2.9935,-2.9884,-2.9499,-2.8679,-2.7637,-2.7735,-2.7191,-2.6271,-2.6229,-2.6115,0.0,0.0,0.0,0.0,0.0,0.0,0.0,0.0,-2.2658,-2.1659,-2.1168,-2.1195,-2.1437,-2.1651,-2.1696,-2.1696,-2.1696,-2.1563,-2.1157,-2.0113,-1.8745,-1.7786,-1.8174,-1.8232,-1.8089,-1.7525,-1.7763,0.0,0.0,0.0,0.0,0.0,0.0,0.0,0.0,0.0,0.0,0.0,0.0,0.0,0.0,0.0,0.0,0.0,0.0,0.0,-1.7582,-1.7582,-1.7582,-1.7582,-1.7582,-1.7582,-1.7582,-1.7582,-1.7582,-1.7582,-1.7582,-1.7582,-1.7582,-1.7582,-1.7582,-1.7582,-1.7582,-1.7582,-1.7582,-1.7582,-1.7582,-1.7582,-1.7582,-1.7582,-1.7582,-1.7582,-1.7582,-1.7582,0.0,0.0,0.0,0.0,0.0,0.0,0.0,0.0,0.0,0.0,0.0,0.0,0.0,0.0,0.0,0.0,0.0,0.0,-3.019,-3.0152,-3.0228,-3.0482,-3.0622,-3.0811,-3.0986,-3.1123,-3.1198,-3.1198,-3.0784,-3.0469,-3.0216,-2.9524,-2.924,-2.9318,-2.8718,-2.7936,-2.708,-2.7255,-2.6775,-2.6032,-2.6157,-2.6104,0.0,0.0,0.0,0.0,0.0,0.0,0.0,0.0,-2.2945,-2.2129,-2.1257,-2.1141,-2.1338,-2.1607,-2.1778,-2.1879,-2.1879,-2.1616,-2.1043,-1.9724,-1.886,-1.839,-1.8757,-1.878,-1.8571,-1.8086,-1.8283,-1.8488,-1.8327,0.0,0.0,0.0,0.0,0.0,0.0,0.0,0.0,0.0,0.0,0.0,0.0,0.0,0.0,0.0,0.0,0.0,0.0,-1.7582,-1.7582,-1.7582,-1.7582,-1.7582,-1.7582,-1.7582,-1.7582,-1.7582,-1.7582,-1.7582,-1.7582,-1.7582,-1.7582,-1.7582,-1.7582,-1.7582,-1.7582,-1.7582,-1.7582,-1.7582,-1.7582,-1.7582,-1.7582,-1.7582,-1.7582,-1.7582,0.0,0.0,0.0,0.0,0.0,0.0,0.0,0.0,0.0,0.0,0.0,0.0,0.0,0.0,0.0,0.0,0.0,0.0,-3.0368,-3.0228,-3.0279,-3.0698,-3.0698,-3.0811,-3.0986,-3.1384,-3.1593,-3.1593,-2.9833,-2.8915,-2.8752,-2.7033,-2.6354,-2.6603,-2.6603,-2.6437,-2.6199,-2.6199,-2.6199,-2.6199,-2.6199,-2.6199,-2.624,0.0,0.0,0.0,0.0,0.0,0.0,0.0,-2.3023,-2.1908,-2.1212,-2.0997,-2.1087,-2.1553,-2.197,-2.2272,-2.2272,-2.2282,-2.1903,-2.0199,0.0,0.0,-1.8174,-1.7787,-1.7852,-1.874,-1.8921,-1.8921,-1.8921,0.0,0.0,0.0,0.0,0.0,0.0,0.0,0.0,0.0,0.0,0.0,0.0,0.0,0.0,0.0,0.0,0.0,0.0,-1.7582,-1.7582,-1.7582,-1.7582,-1.7582,-1.7582,-1.7582,-1.7582,-1.7582,-1.7582,-1.7582,-1.7582,-1.7582,-1.7582,-1.7582,-1.7582,-1.7582,-1.7582,-1.7582,-1.7582,-1.7582,-1.7582,-1.7582,-1.7582,-1.7582,-1.7582,-1.7582,0.0,0.0,0.0,0.0,0.0,0.0,0.0,0.0,0.0,0.0,0.0,0.0,0.0,0.0,0.0,0.0,0.0,0.0,-3.0406,-3.0495,-3.0685,-3.1086,-3.1272,-3.1347,-3.1421,-3.0959,-3.057,-3.0241,-2.9266,-2.8612,-2.8303,-2.762,-2.7307,-2.7196,-2.6592,-2.6199,-2.5979,-2.6157,-2.6199,-2.624,-2.6396,-2.6354,-2.6199,0.0,0.0,0.0,0.0,0.0,0.0,0.0,0.0,0.0,-2.1472,-2.0997,-2.1087,-2.1553,-2.1769,-2.187,-2.187,-2.2282,0.0,-1.9924,0.0,0.0,0.0,-1.7955,0.0,0.0,-1.9026,-1.8921,-1.8921,0.0,0.0,0.0,0.0,0.0,0.0,0.0,0.0,0.0,0.0,0.0,0.0,0.0,0.0,0.0,0.0,0.0,0.0,-1.7582,-1.7582,-1.7582,-1.7582,-1.7582,-1.7582,-1.7582,-1.7582,-1.7582,-1.7582,-1.7582,-1.7582,-1.7582,-1.7582,-1.7582,-1.7582,-1.7582,-1.7582,-1.7582,-1.7582,-1.7582,-1.7582,-1.7582,-1.7582,-1.7582,-1.7582,-1.7582,0.0,0.0,0.0,0.0,0.0,0.0,0.0,0.0,0.0,0.0,-3.033,-3.0406,0.0,0.0,0.0,0.0,0.0,0.0,0.0,-3.0861,-3.1011,-3.1272,-3.1421,-3.1371,-3.1071,-3.0088,-2.9395,-2.9057,-2.8639,-2.8255,-2.7862,-2.7377,-2.7144,-2.7115,-2.6479,-2.6188,-2.6188,-2.6313,-2.6324,-2.6199,-2.6396,-2.6313,-2.6104,0.0,0.0,0.0,0.0,0.0,0.0,0.0,0.0,0.0,-2.2041,-2.1302,-2.1122,-2.1654,-2.1889,-2.1998,-2.2318,-2.2657,0.0,-2.0403,-2.0138,-1.9992,-1.8525,0.0,0.0,0.0,0.0,-1.9078,-1.9078,-1.9175,0.0,0.0,0.0,0.0,0.0,0.0,0.0,0.0,0.0,0.0,0.0,0.0,0.0,0.0,0.0,0.0,0.0,-1.7582,-1.7582,-1.7582,-1.7582,-1.7582,-1.7582,-1.7582,-1.7582,-1.7582,-1.7582,-1.7582,-1.7582,-1.7582,-1.7582,-1.7582,-1.7582,-1.7582,-1.7582,-1.7582,-1.7582,-1.7582,-1.7582,-1.7582,-1.7582,-1.7582,-1.7582,-1.7582,0.0,0.0,0.0,0.0,0.0,0.0,0.0,0.0,0.0,0.0,-3.0444,-3.0482,0.0,0.0,0.0,0.0,0.0,0.0,0.0,-3.1246,-3.1246,-3.1347,-3.1347,-3.1009,-3.0266,-2.9071,-2.8255,-2.7936,-2.7896,-2.7718,-2.74,-2.6603,-2.6313,-2.6561,-2.6313,-2.6354,-2.6561,-2.6561,-2.6437,-2.6199,-2.6199,-2.6104,-2.5948,-2.6115,0.0,0.0,0.0,0.0,0.0,0.0,0.0,0.0,-2.2692,-2.1739,-2.1113,-2.1761,-2.2117,-2.2446,-2.3178,-2.3178,0.0,-2.1184,-2.0463,0.0,-1.8665,-1.8848,-1.9272,-1.9272,0.0,-1.9279,-1.9279,0.0,0.0,0.0,0.0,0.0,0.0,0.0,0.0,0.0,0.0,0.0,0.0,0.0,0.0,0.0,0.0,0.0,0.0,-1.7582,-1.7582,-1.7582,-1.7582,-1.7582,-1.7582,-1.7582,-1.7582,-1.7582,-1.7582,-1.7582,-1.7582,-1.7582,-1.7582,-1.7582,-1.7582,-1.7582,-1.7582,-1.7582,-1.7582,-1.7582,-1.7582,-1.7582,-1.7582,-1.7582,-1.7582,-1.7582,0.0,0.0,0.0,0.0,0.0,0.0,0.0,0.0,0.0,0.0,0.0,0.0,0.0,0.0,0.0,0.0,0.0,0.0,0.0,-3.131,-3.1421,-3.178,-3.178,-3.1196,-3.0025,-2.9086,-2.7976,-2.6622,-2.6456,-2.6498,-2.6798,-2.6396,-2.624,-2.6271,-2.6437,-2.6354,-2.6063,-2.6229,-2.6229,-2.6199,-2.6199,-2.6157,-2.6157,-2.6199,-2.624,0.0,0.0,0.0,0.0,0.0,0.0,0.0,-2.2692,-2.1739,-2.106,-2.1437,-2.1907,-2.2364,-2.2492,-2.295,0.0,0.0,-1.9454,-1.8495,-1.8408,-1.8698,-1.9026,-1.9279,-1.9279,-1.9279,0.0,0.0,0.0,0.0,0.0,0.0,0.0,0.0,0.0,0.0,0.0,0.0,0.0,0.0,0.0,0.0,0.0,0.0,-1.7582,-1.7582,-1.7582,-1.7582,-1.7582,-1.7582,-1.7582,-1.7582,-1.7582,0.0,-1.7582,-1.7582,-1.7582,-1.7582,-1.7582,-1.7582,-1.7582,-1.7582,-1.7582,-1.7582,-1.7582,-1.7582,-1.7582,-1.7582,-1.7582,-1.7582,-1.7582,-1.7582,0.0,0.0,0.0,0.0,0.0,0.0,0.0,0.0,0.0,0.0,0.0,0.0,0.0,0.0,0.0,0.0,0.0,0.0,0.0,0.0,-3.1923,-3.2119,-3.179,-3.0884,-2.9346,-2.8824,-2.7839,-2.6396,-2.6146,-2.6188,-2.6396,-2.6396,-2.6313,-2.6199,-2.6354,-2.6271,-2.6074,-2.6157,-2.6199,-2.6199,-2.6199,-2.6157,-2.6074,-2.6074,-2.6115,-2.624,-2.652,0.0,0.0,0.0,0.0,0.0,0.0,0.0,-2.1651,-2.1518,-2.168,-2.2044,-2.2702,0.0,0.0,-2.1021,0.0,-1.8691,-1.8325,-1.8548,-1.8921,-1.9078,0.0,0.0,0.0,0.0,0.0,0.0,0.0,0.0,0.0,0.0,0.0,0.0,0.0,0.0,0.0,0.0,0.0,0.0,0.0,-1.7582,-1.7582,-1.7582,-1.7582,-1.7582,-1.7582,-1.7582,-1.7582,-1.7582,-1.7582,-1.7582,-1.7582,-1.7582,-1.7582,-1.7582,-1.7582,-1.7582,-1.7582,-1.7582,-1.7582,-1.7582,-1.7582,-1.7582,-1.7582,-1.7582,-1.7582,-1.7582,-1.7582,-1.7582,0.0,0.0,0.0,0.0,0.0,0.0,0.0,0.0,0.0,0.0,0.0,0.0,0.0,0.0,0.0,0.0,0.0,0.0,0.0,0.0,0.0,-3.2322,-3.1716,-3.0558,-2.8915,-2.8652,-2.7931,-2.6644,-2.6354,-2.6199,-2.6199,-2.6437,-2.6396,-2.6199,-2.6199,-2.6199,-2.6146,-2.6199,-2.6199,-2.6146,-2.6146,-2.6074,-2.5895,-2.5937,-2.6074,-2.624,-2.652,0.0,-2.6933,-2.7149,0.0,0.0,0.0,0.0,-2.2337,-2.1889,-2.1635,-2.1753,-2.2966,0.0,-2.2442,-2.1233,-2.0225,0.0,-1.8227,-1.8391,-1.8764,0.0,0.0,0.0,0.0,0.0,0.0,0.0,0.0,0.0,0.0,0.0,0.0,0.0,0.0,0.0,0.0,0.0,0.0,0.0,0.0,-1.7582,-1.7582,-1.7582,-1.7582,-1.7582,-1.7582,-1.7582,-1.7582,-1.7582,-1.7582,-1.7582,-1.7582,-1.7582,-1.7582,-1.7582,-1.7582,-1.7582,-1.7582,-1.7582,-1.7582,-1.7582,-1.7582,-1.7582,-1.7582,-1.7582,-1.7582,-1.7582,-1.7582,-1.7589,0.0,0.0,0.0,0.0,0.0,0.0,0.0,0.0,0.0,0.0,-3.1913,-3.2096,0.0,0.0,0.0,0.0,0.0,0.0,0.0,0.0,0.0,-3.195,-3.1706,-3.0923,-2.9614,-2.9186,-2.8291,-2.685,-2.6396,-2.6199,-2.6199,-2.624,-2.6229,-2.6199,-2.6199,-2.6104,-2.5948,-2.6115,-2.6115,-2.5937,-2.5937,-2.5937,-2.5906,-2.6104,-2.6199,-2.6282,-2.6685,-2.6891,-2.6933,-2.7149,-2.6445,0.0,0.0,0.0,-2.2403,-2.2504,-2.2268,-2.2025,0.0,0.0,-2.1872,0.0,-2.0063,-1.9027,0.0,0.0,0.0,0.0,0.0,0.0,0.0,0.0,0.0,0.0,0.0,0.0,0.0,0.0,0.0,0.0,0.0,0.0,0.0,0.0,0.0,0.0,-1.7747,-1.7582,-1.7582,-1.7582,-1.7582,-1.7582,-1.7582,-1.7582,-1.7582,-1.7582,-1.7582,-1.7582,-1.7582,-1.7582,-1.7582,-1.7582,-1.7582,-1.7582,-1.7582,-1.7582,-1.7582,-1.7582,-1.7582,-1.7582,-1.7582,-1.7582,-1.7582,-1.7582,-1.7582,-1.7622,0.0,0.0,0.0,0.0,0.0,0.0,0.0,0.0,0.0,0.0,0.0,-3.2467,0.0,0.0,0.0,0.0,0.0,0.0,0.0,0.0,0.0,-3.2191,-3.1913,-3.1073,-2.9575,-2.9096,-2.8159,-2.6727,-2.652,-2.6561,-2.6745,-2.6745,-2.6622,-2.6385,-2.6229,-2.6229,-2.6218,-2.6104,-2.6074,-2.6074,-2.6074,-2.6323,-2.6659,-2.6507,-2.6574,-2.6816,-2.687,-2.6891,-2.6933,-2.7149,-2.688,-2.6362,-2.5704,0.0,0.0,0.0,-2.2482,-2.2432,-2.2594,-2.2709,-2.2637,0.0,-2.0987,-1.9901,-1.8878,0.0,0.0,0.0,0.0,0.0,0.0,0.0,0.0,0.0,0.0,0.0,0.0,0.0,0.0,0.0,0.0,0.0,0.0,0.0,0.0,0.0,-1.7747,-1.7582,-1.7582,-1.7582,-1.7582,-1.7582,-1.7582,-1.7582,-1.7582,-1.7582,-1.7582,-1.7582,-1.7582,-1.7582,-1.7582,-1.7582,-1.7582,-1.7582,-1.7582,-1.7582,-1.7582,-1.7582,-1.7582,-1.7582,-1.7582,-1.7582,-1.7582,-1.7582,-1.7582,-1.7622,0.0,0.0,0.0,0.0,0.0,0.0,0.0,0.0,0.0,0.0,0.0,0.0,0.0,0.0,0.0,0.0,0.0,0.0,0.0,0.0,0.0,0.0,-3.1838,-3.0878,-2.9369,-2.8909,-2.8028,-2.6685,-2.6798,-2.6951,-2.7185,-2.7062,-2.6899,-2.6693,-2.6385,-2.6343,-2.6415,-2.6093,-2.6104,-2.6324,-2.6415,-2.6808,-2.7278,-2.7116,-2.7293,-2.7552,-2.7266,-2.7167,-2.7186,-2.7195,-2.719,-2.6974,-2.6102,-2.5663,0.0,0.0,0.0,-2.2333,0.0,0.0,-2.297,-2.246,-2.177,-2.0817,0.0,0.0,0.0,0.0,0.0,0.0,0.0,0.0,0.0,0.0,0.0,0.0,0.0,0.0,0.0,0.0,0.0,0.0,0.0,0.0,0.0,0.0,-1.7747,-1.7582,-1.7582,-1.7582,-1.7582,-1.7582,-1.7582,-1.7582,-1.7582,-1.7582,-1.7582,-1.7582,-1.7582,-1.7582,-1.7582,-1.7582,-1.7582,-1.7582,-1.7582,-1.7582,-1.7582,-1.7582,-1.7582,-1.7582,-1.7582,-1.7582,-1.7582,-1.7582,-1.7629,-1.7742,0.0,0.0,0.0,0.0,0.0,0.0,0.0,0.0,0.0,0.0,0.0,0.0,-3.2668,-3.2444,-3.2336,-3.2632,0.0,0.0,0.0,0.0,0.0,0.0,0.0,0.0,-2.9147,-2.8782,-2.8047,-2.6891,-2.7278,-2.7348,-2.7185,-2.6734,-2.6764,-2.7144,-2.6693,-2.6373,-2.6199,-2.6188,-2.6365,-2.6606,-2.7077,-2.729,-2.7357,-2.8053,-2.8332,-2.833,-2.8042,-2.7943,-2.7874,-2.7351,0.0,-2.6903,-2.685,-2.6113,-2.502,0.0,0.0,0.0,0.0,-2.2069,0.0,-2.1936,0.0,0.0,0.0,0.0,0.0,0.0,0.0,0.0,0.0,0.0,0.0,0.0,0.0,0.0,0.0,0.0,0.0,0.0,0.0,0.0,0.0,0.0,0.0,0.0,-1.7747,-1.7582,-1.7582,-1.7582,-1.7582,-1.7582,-1.7582,-1.7582,-1.7582,-1.7582,-1.7582,-1.7582,-1.7582,-1.7582,-1.7582,-1.7582,-1.7582,-1.7582,-1.7582,-1.7582,-1.7582,-1.7582,-1.7582,-1.7582,-1.7582,-1.7582,-1.7582,-1.7582,-1.7769,-1.8015,0.0,0.0,0.0,0.0,0.0,0.0,0.0,0.0,0.0,0.0,0.0,0.0,0.0,-3.2596,-3.2574,-3.2704,-3.2596,0.0,0.0,0.0,0.0,0.0,0.0,0.0,-2.9679,-2.8768,-2.7845,-2.6891,-2.6933,-2.6962,-2.7003,-2.6839,-2.691,-2.7185,-2.658,-2.6426,-2.6644,-2.652,-2.6603,-2.6854,-2.7299,-2.7768,-2.8211,-2.8171,-2.8525,-2.9026,-2.8287,-2.7977,-2.7954,0.0,0.0,0.0,-2.6933,-2.6715,-2.6155,-2.4478,-2.2482,0.0,0.0,0.0,0.0,-2.2447,0.0,0.0,0.0,0.0,0.0,0.0,0.0,0.0,0.0,0.0,0.0,0.0,0.0,0.0,0.0,0.0,0.0,0.0,0.0,0.0,0.0,0.0,0.0,0.0,0.0,-1.7582,-1.7582,-1.7582,-1.7582,-1.7582,-1.7582,-1.7582,-1.7582,-1.7582,-1.7582,-1.7582,-1.7582,-1.7582,-1.7582,-1.7582,-1.7582,-1.7582,-1.7582,-1.7582,-1.7582,-1.7582,-1.7582,-1.7582,-1.7582,-1.7582,-1.7582,-1.7582,-1.7776,-1.8035,0.0,0.0,0.0,0.0,0.0,0.0,0.0,0.0,-3.4435,-3.3648,0.0,0.0,0.0,0.0,-3.2704,-3.2704,-3.2704,-3.2632,-3.2525,-3.2632,0.0,0.0,0.0,0.0,-2.9782,-2.8572,-2.7577,-2.6891,-2.7044,-2.7208,-2.733,-2.7076,-2.7076,-2.7255,-2.6407,-2.637,-2.7003,-2.6809,-2.6809,-2.7072,-2.7721,-2.8171,-2.8459,-2.8482,-2.8804,-2.9148,-2.8385,-2.8156,0.0,0.0,0.0,0.0,-2.7114,-2.6507,-2.5631,-2.4253,0.0,0.0,-2.1516,0.0,0.0,0.0,0.0,0.0,0.0,0.0,0.0,0.0,0.0,0.0,0.0,0.0,0.0,0.0,0.0,0.0,0.0,0.0,0.0,0.0,0.0,0.0,0.0,0.0,0.0,0.0,0.0,0.0,-1.7582,-1.7582,-1.7582,-1.7582,-1.7582,-1.7582,-1.7582,-1.7582,-1.7582,-1.7582,-1.7582,-1.7582,-1.7582,-1.7582,-1.7582,-1.7582,-1.7582,-1.7582,-1.7582,-1.7582,-1.7582,-1.7582,-1.7582,-1.7582,-1.7582,-1.7582,-1.7842,-1.8223,0.0,0.0,0.0,0.0,0.0,0.0,0.0,0.0,-3.5395,-3.4596,0.0,0.0,0.0,0.0,0.0,-3.2583,-3.2618,-3.2618,-3.2618,-3.2618,-3.2618,-3.2618,-3.0983,-2.9815,-2.928,-2.8179,-2.738,-2.6933,-2.7777,-2.8167,-2.8143,-2.7423,-2.721,-2.7389,-2.6219,-2.6244,-2.7139,-2.6958,-2.6981,-2.7247,-2.8276,-2.8402,-2.8115,-2.9114,-2.9183,0.0,-2.8498,-2.84,0.0,-2.8106,0.0,0.0,0.0,0.0,0.0,0.0,0.0,0.0,0.0,0.0,0.0,0.0,0.0,0.0,0.0,0.0,0.0,0.0,0.0,0.0,0.0,0.0,0.0,0.0,0.0,0.0,0.0,0.0,0.0,0.0,0.0,0.0,0.0,0.0,0.0,0.0,-1.7582,-1.7582,-1.7582,-1.7582,-1.7582,-1.7582,-1.7582,-1.7582,-1.7582,-1.7582,-1.7582,-1.7582,-1.7582,-1.7582,-1.7582,-1.7582,-1.7582,-1.7582,-1.7582,-1.7582,-1.7582,-1.7582,-1.7582,-1.7582,-1.7582,-1.7582,-1.7582,-1.7582,-1.7969,-1.849,0.0,0.0,0.0,0.0,0.0,-3.3567,-3.3727,-3.3542,-3.3105,0.0,0.0,0.0,-3.0558,-3.0494,-3.0481,-3.0317,-3.0392,-3.0454,-3.0454,-3.0592,-3.0768,-3.0957,-2.977,-2.9028,-2.8863,-2.7841,-2.7313,-2.7319,-2.7441,-2.7296,-2.6936,-2.6576,-2.6313,-2.6196,-2.5714,-2.5814,-2.6329,-2.6117,-2.6296,-2.676,-2.777,-2.831,0.0,0.0,0.0,0.0,0.0,-2.876,-2.8596,0.0,-2.7991,-2.7194,0.0,0.0,0.0,0.0,0.0,0.0,-2.0907,0.0,0.0,0.0,0.0,0.0,0.0,0.0,0.0,0.0,0.0,0.0,0.0,0.0,0.0,0.0,0.0,0.0,0.0,0.0,0.0,0.0,0.0,0.0,0.0,0.0,0.0,0.0,-1.7582,-1.7582,-1.7582,-1.7582,-1.7582,-1.7582,-1.7582,-1.7582,-1.7582,-1.7582,-1.7582,-1.7582,-1.7582,-1.7582,-1.7582,-1.7582,-1.7582,-1.7582,-1.7582,-1.7582,-1.7582,-1.7582,-1.7582,-1.7582,-1.7582,-1.7582,-1.7582,-1.7582,-1.7969,-1.849,0.0,0.0,0.0,0.0,0.0,-3.2944,-3.3219,-3.3258,-3.2929,0.0,0.0,0.0,-2.9896,-2.9858,-2.9909,-2.9782,-2.9833,-2.9897,-2.9897,-2.9999,-3.0164,-3.0392,-2.9227,-2.86,-2.8706,-2.762,-2.7075,-2.7088,-2.7048,-2.6938,-2.6716,-2.617,-2.5977,-2.612,-2.5283,-2.5112,-2.5436,-2.5089,-2.5535,0.0,-2.7492,0.0,0.0,-2.9118,-2.9438,0.0,0.0,0.0,-2.8872,-2.8756,-2.8131,0.0,0.0,0.0,0.0,0.0,0.0,0.0,0.0,0.0,0.0,0.0,0.0,0.0,-2.2465,-2.2422,-2.2448,0.0,0.0,0.0,0.0,0.0,0.0,0.0,0.0,0.0,0.0,0.0,0.0,0.0,0.0,0.0,0.0,-1.7582,-1.7582,-1.7582,-1.7582,-1.7582,-1.7582,-1.7582,-1.7582,-1.7582,-1.7582,-1.7582,-1.7582,-1.7582,-1.7582,-1.7582,-1.7582,-1.7582,-1.7582,-1.7582,-1.7582,-1.7582,-1.7582,-1.7582,-1.7582,-1.7582,-1.7582,-1.7582,-1.7582,-1.7582,-1.7582,-1.7582,-1.7969,-1.849,0.0,0.0,-3.3111,-3.2724,-3.2988,-3.339,-3.3936,-3.4014,-3.3736,0.0,-3.213,-3.1128,-2.9716,-2.9782,-2.9923,-2.9846,-2.9884,-2.9923,-2.9923,-2.9961,-3.005,-3.0215,-2.9018,-2.8386,-2.8521,-2.7539,-2.692,-2.6701,-2.6872,-2.696,-2.7003,-2.6071,-2.5993,-2.6479,-2.4869,0.0,-2.4612,-2.4132,0.0,-2.6462,-2.716,-2.7668,0.0,0.0,-2.8953,-2.88,-2.8768,-2.8892,-2.9026,-2.8794,-2.8261,0.0,0.0,0.0,0.0,0.0,-2.1998,0.0,0.0,0.0,0.0,0.0,0.0,0.0,-2.2602,-2.2803,-2.3041,-2.3852,0.0,0.0,0.0,0.0,0.0,0.0,0.0,0.0,0.0,0.0,0.0,0.0,0.0,0.0,-1.7582,-1.7582,-1.7582,-1.7582,-1.7582,-1.7582,-1.7582,-1.7582,-1.7582,-1.7582,-1.7582,-1.7582,-1.7582,-1.7582,-1.7582,-1.7582,-1.7582,-1.7582,-1.7582,-1.7582,-1.7582,-1.7582,-1.7582,-1.7582,-1.7582,-1.7582,-1.7582,-1.7582,-1.7582,-1.7582,-1.7582,-1.7582,-1.7969,-1.849,0.0,-3.1901,-3.2005,-3.193,-3.1962,-3.2085,-3.2183,-3.2208,-3.1937,-3.1198,-3.0079,-2.8857,-2.7609,-2.7689,-2.7609,-2.7051,-2.7348,-2.7551,-2.7551,-2.7862,-2.7971,-2.7891,-2.7966,-2.7857,-2.7487,-2.7615,-2.7742,-2.7865,-2.7905,-2.7439,-2.6447,-2.6145,-2.5642,-2.4983,-2.4092,-2.3947,-2.437,-2.428,0.0,-2.5965,-2.6255,0.0,-2.8352,-2.8733,-2.9038,-2.9296,-2.9089,-2.8912,-2.8701,-2.8299,-2.8065,-2.7718,0.0,0.0,0.0,-2.285,0.0,0.0,0.0,0.0,0.0,0.0,0.0,0.0,-2.1897,-2.2172,-2.2446,0.0,0.0,0.0,0.0,0.0,0.0,0.0,0.0,0.0,0.0,0.0,0.0,0.0,0.0,0.0,-1.7582,-1.7582,-1.7582,-1.7582,-1.7582,-1.7582,-1.7582,-1.7582,-1.7582,-1.7582,-1.7582,-1.7582,-1.7582,-1.7582,-1.7582,-1.7582,-1.7582,-1.7582,-1.7582,-1.7582,-1.7582,-1.7582,-1.7582,-1.7582,-1.7582,-1.7582,-1.7582,-1.7582,-1.7582,-1.7582,-1.7582,-1.7582,-1.7969,-1.849,0.0,-3.0983,-3.1223,-3.0993,-3.1348,-3.1621,-3.1356,-3.1244,-3.0934,-3.0279,-2.9307,-2.825,-2.7031,-2.7074,-2.7062,-2.6715,-2.6715,-2.6768,-2.6768,-2.7115,-2.7267,-2.7074,-2.726,-2.7301,-2.7044,-2.6805,-2.6674,-2.6648,-2.6422,-2.6089,-2.5681,-2.5364,-2.5435,-2.583,-2.4684,-2.4563,-2.5177,0.0,-2.4526,-2.5683,-2.6039,0.0,-2.8248,-2.8489,-2.8835,-2.907,-2.8555,-2.82,-2.7999,-2.843,-2.8254,0.0,0.0,-2.5733,-2.4775,0.0,-2.2062,-2.1824,0.0,0.0,0.0,-2.1472,0.0,0.0,0.0,-2.2181,-2.2336,0.0,0.0,0.0,0.0,0.0,0.0,0.0,0.0,0.0,0.0,0.0,0.0,0.0,0.0,0.0,-1.8356,-1.8408,-1.8408,-1.8408,-1.7891,-1.7582,-1.7582,-1.7582,-1.7838,-1.8356,-1.8408,-1.8662,-1.9235,-1.8662,-1.8408,-1.8401,-1.7838,-1.7582,-1.7582,-1.7582,-1.7582,-1.7582,-1.7582,-1.7582,-1.7582,-1.7582,-1.7582,-1.7582,-1.7582,-1.7582,-1.7582,-1.7582,-1.7969,-1.849,-2.9869,-3.0407,-3.0793,-3.017,-3.0763,-3.1161,-3.0592,-3.0517,-3.0323,-2.9759,-2.9278,-2.8474,-2.7178,-2.7385,-2.7596,-2.7525,-2.7288,-2.7088,-2.6986,-2.7387,-2.7457,-2.711,-2.7195,-2.7142,-2.6998,-2.6296,-2.5806,-2.5509,-2.5104,-2.507,-2.5284,-2.4814,-2.5408,-2.6798,-2.5303,-2.5061,-2.5616,-2.4036,0.0,-2.5304,0.0,-2.6517,-2.7513,-2.7597,-2.7802,-2.8,-2.7421,-2.7094,-2.7074,-2.8208,-2.8011,-2.7178,-2.649,-2.5558,0.0,0.0,0.0,0.0,0.0,0.0,0.0,0.0,0.0,-2.1778,0.0,0.0,0.0,0.0,0.0,0.0,0.0,0.0,0.0,0.0,0.0,0.0,0.0,0.0,0.0,0.0,0.0,0.0,0.0,-1.9383,-1.9361,-1.922,-1.8352,-1.7725,-1.7635,-1.7786,-1.8304,-1.9072,-1.9383,-1.9849,-2.0475,-1.9642,-1.9072,-1.8864,-1.7996,-1.7582,-1.7582,-1.7582,-1.7582,-1.7582,-1.7582,-1.7582,-1.7582,-1.7582,-1.7582,-1.7582,-1.7582,-1.7582,-1.7582,-1.7582,-1.7929,-1.841,-3.045,-3.1037,-3.0897,-2.9699,-2.9839,-2.984,-2.9155,-2.9706,-2.9985,-2.9285,-2.9604,-2.9337,-2.7775,-2.853,-2.9009,-2.8648,-2.8881,-2.8895,-2.8397,-2.8827,-2.8663,-2.782,-2.8145,-2.7999,-2.7254,-2.7485,-2.7429,-2.6972,-2.6915,-2.6565,-2.5978,-2.5723,-2.563,-2.5658,-2.4794,-2.4311,-2.4033,0.0,-2.3988,0.0,-2.4564,-2.5086,0.0,-2.5098,-2.5142,-2.555,-2.5834,-2.5886,-2.5982,0.0,-2.6316,-2.572,0.0,-2.5667,-2.5281,-2.307,0.0,0.0,0.0,0.0,0.0,0.0,-2.1571,0.0,0.0,0.0,-2.1769,-2.1824,0.0,0.0,0.0,0.0,0.0,0.0,0.0,0.0,0.0,0.0,0.0,0.0,0.0,0.0,0.0,-2.02,-1.9922,-1.9258,-1.8767,-1.8224,-1.7621,-1.8513,-1.8975,-1.8826,-2.0063,-2.0166,-1.9027,-1.9124,-1.8715,-1.7786,-1.7687,-1.7582,-1.7582,-1.7582,-1.7582,-1.7582,-1.7582,-1.7582,-1.7582,-1.7582,-1.7582,-1.7582,-1.7582,-1.7582,-1.7582,-1.7582,-1.7802,-1.8082,-2.8519,-2.9196,-2.9662,-2.9152,-2.9829,-3.029,-2.9689,-2.9097,-2.8402,-2.7518,-2.8078,-2.8204,-2.7126,-2.7921,0.0,0.0,0.0,-2.8372,0.0,0.0,-2.8025,-2.6791,-2.7106,-2.7094,-2.6497,-2.6382,-2.6247,-2.6032,-2.5753,-2.5623,-2.5558,-2.5477,-2.556,-2.5698,-2.5072,-2.4693,-2.4483,0.0,-2.3493,0.0,0.0,0.0,0.0,-2.4779,-2.4878,-2.4638,-2.5441,-2.5314,-2.4895,0.0,-2.6056,0.0,0.0,0.0,0.0,0.0,0.0,0.0,0.0,0.0,0.0,0.0,0.0,0.0,-2.1697,0.0,-2.1696,0.0,0.0,0.0,0.0,0.0,0.0,0.0,0.0,0.0,0.0,0.0,0.0,0.0,0.0,0.0,0.0,0.0,0.0,0.0,-1.9412,-1.8528,-1.7628,-1.861,-1.9435,-2.0004,-2.1191,-2.1853,-2.1946,-2.1387,-2.057,-1.9495,-1.8819,-1.8506,-1.8506,-1.7891,-1.7943,-1.8506,-1.7891,-1.7943,-1.8506,-1.8003,-1.822,-1.8736,-1.8115,-1.7852,-1.7799,-1.7641,-1.7882,-1.8354,-2.6357,-2.7668,-2.9003,-2.8621,-2.9376,-2.9864,-2.9454,-2.8225,-2.7113,-2.6576,-2.7156,-2.7433,-2.6979,-2.7863,0.0,0.0,-2.8951,-2.8804,0.0,0.0,-2.8004,-2.7135,-2.6835,-2.6621,-2.6501,-2.5884,-2.5483,-2.5371,-2.5033,-2.5043,-2.5371,-2.5114,-2.5198,-2.5474,-2.4967,-2.467,-2.4499,0.0,-2.3168,-2.3545,-2.2307,-2.2087,-2.2727,-2.4146,-2.4292,-2.38,-2.4581,-2.4335,-2.384,-2.4752,-2.5153,0.0,-2.4085,0.0,0.0,0.0,0.0,0.0,-2.169,0.0,0.0,0.0,0.0,0.0,0.0,0.0,0.0,0.0,0.0,0.0,0.0,0.0,0.0,0.0,0.0,0.0,0.0,0.0,0.0,0.0,0.0,0.0,0.0,0.0,0.0,-2.1241,-2.0421,-1.9545,-1.8558,-1.9539,-2.0416,-2.1097,-2.2316,-2.3138,-2.3497,-2.2828,-2.1962,-2.0885,-2.0055,-1.9694,-1.9642,-1.8871,-1.8923,-1.9642,-1.8819,-1.8767,-1.9176,-1.8572,-1.8691,-1.916,-1.8331,-1.8016,-1.8069,-1.774,-1.7881,-1.8279,-2.4572,-2.7424,-2.95,-2.823,-2.792,-2.7699,-2.7433,-2.6917,-2.6707,-2.722,-2.7698,0.0,0.0,0.0,0.0,0.0,0.0,-3.1372,-3.0812,0.0,-2.9554,0.0,0.0,-2.7448,-2.8017,-2.701,-2.6268,-2.5874,-2.5863,-2.5863,-2.5874,-2.4956,-2.4531,-2.4529,-2.4038,-2.3599,-2.3167,-2.2973,-2.3182,-2.354,-2.2987,-2.2965,-2.3182,0.0,-2.2326,-2.2644,-2.2695,0.0,0.0,-2.3286,-2.2987,0.0,0.0,0.0,0.0,0.0,0.0,0.0,0.0,0.0,0.0,-2.1743,0.0,0.0,0.0,0.0,-2.1696,0.0,0.0,0.0,0.0,0.0,0.0,0.0,0.0,0.0,0.0,0.0,0.0,0.0,0.0,0.0,0.0,0.0,0.0,-2.1927,-2.1805,-2.152,-2.0818,-2.181,-2.2173,-2.1674,-2.3288,-2.3388,-2.1827,-2.2274,-2.1962,-2.0885,-2.0885,-2.0834,-2.0834,-2.0834,-2.0834,-2.0834,-2.0834,-2.021,-1.9176,-1.9176,-1.8722,-1.8069,-1.8016,-1.8167,-1.8318,-1.7793,-1.7589,-1.7695,-2.4521,-2.5492,-2.6173,0.0,0.0,-2.5981,-2.5532,-2.5039,-2.4898,0.0,-2.5816,0.0,0.0,-2.8519,-2.9502,0.0,0.0,-3.0973,-3.049,-2.9765,0.0,0.0,0.0,-2.7341,0.0,-2.6864,-2.629,-2.5895,-2.5895,-2.5591,-2.4978,-2.4627,-2.3844,-2.2633,-2.2768,-2.2695,0.0,0.0,0.0,0.0,0.0,-2.236,-2.244,0.0,-2.2482,-2.2594,-2.2594,-2.2594,0.0,-2.2789,-2.3046,-2.3172,-2.2788,-2.2946,-2.3078,-2.2369,-2.2189,0.0,0.0,0.0,-2.2108,-2.1878,0.0,0.0,0.0,0.0,0.0,0.0,0.0,0.0,0.0,0.0,0.0,0.0,0.0,0.0,0.0,0.0,0.0,0.0,0.0,0.0,0.0,0.0,0.0,-2.1985,-2.2134,-2.1879,-2.0928,-2.1912,-2.2325,-2.1979,-2.3247,-2.3646,-2.3097,-2.3297,-2.2887,-2.1962,-2.1962,-2.1962,-2.1912,-2.1242,-2.1293,-2.1912,-2.1191,-2.1081,-2.1285,-2.0218,-2.0071,-2.0336,-1.9063,-1.8541,-1.837,-1.801,-1.7852,-1.7926,-2.3499,-2.3226,-2.3317,0.0,-2.4666,-2.4606,-2.4057,-2.3894,0.0,0.0,-2.4873,0.0,-2.6896,0.0,-2.8453,0.0,-2.9806,-3.0073,-2.9931,-2.9442,0.0,-2.9562,-2.8395,0.0,0.0,0.0,0.0,-2.5902,-2.5222,-2.4584,-2.3973,-2.3661,-2.2921,-2.1847,-2.1844,-2.2134,-2.2621,-2.2787,-2.3105,0.0,0.0,-2.2341,0.0,0.0,-2.2517,-2.2414,0.0,-2.2594,-2.2594,-2.2594,-2.2912,-2.322,-2.2759,-2.2885,-2.3094,-2.2542,-2.2357,-2.2285,-2.2193,-2.2228,0.0,-2.2011,-2.2046,0.0,-2.1826,0.0,0.0,0.0,0.0,0.0,0.0,0.0,0.0,0.0,0.0,0.0,0.0,-2.1696,0.0,0.0,0.0,0.0,0.0,0.0,-2.2931,-2.2522,-2.2728,-2.2631,0.0,0.0,-2.2937,-2.2585,-2.3347,-2.3746,-2.3646,-2.3746,-2.3546,-2.3088,-2.3038,-2.3038,-2.3088,-2.2266,-2.2367,-2.3088,-2.2367,-2.2266,-2.2426,-2.1404,-2.12,-2.1412,-1.9887,-1.9212,-1.8945,-1.8279,-1.7964,-1.7926,-2.1687,-2.0925,0.0,0.0,-2.3929,0.0,0.0,0.0,-2.3861,0.0,-2.4856,-2.5505,-2.6425,-2.7006,-2.749,-2.7913,-2.8418,-2.8897,-2.9348,-2.8936,0.0,0.0,-2.9476,-2.917,-3.0106,0.0,0.0,0.0,0.0,-2.3096,-2.3008,-2.2129,-2.1828,-2.2015,-2.1302,0.0,-2.3364,-2.3017,-2.3631,-2.4735,-2.3678,-2.2979,-2.2568,-2.2594,-2.2371,-2.2047,-2.2465,-2.2594,-2.2594,-2.2594,-2.2594,-2.2594,-2.2594,-2.2594,-2.2594,-2.2594,-2.2594,-2.2567,-2.2354,-2.2299,-2.2261,-2.2118,-2.2125,0.0,0.0,0.0,-2.1987,0.0,0.0,0.0,0.0,0.0,0.0,0.0,0.0,0.0,0.0,0.0,0.0,0.0,0.0,0.0,0.0,-2.2327,-2.2629,-2.3407,-2.348,0.0,0.0,0.0,-2.3935,-2.3397,-2.3655,-2.3646,-2.3397,-2.3646,-2.3895,-2.4202,-2.3904,-2.3954,-2.4152,-2.3904,-2.3904,-2.4152,-2.4152,-2.3596,-2.2577,-2.2476,-2.2013,-2.1242,-2.0388,-2.0027,-1.9872,-1.8482,-1.7852,-1.7682,-2.1173,-2.0672,-2.0534,0.0,-2.1301,-2.1157,0.0,0.0,0.0,0.0,-2.4113,-2.5211,-2.6843,-2.7139,-2.7577,-2.8403,-2.8604,0.0,0.0,0.0,0.0,-2.9216,-2.8155,-2.8021,-2.9058,-2.6582,0.0,-2.5904,0.0,-2.2746,-2.205,-2.2006,-2.1659,-2.1051,-2.0871,-2.1761,-2.3364,-2.2697,-2.291,-2.3678,-2.3038,-2.2531,-2.2167,0.0,-2.2371,-2.2047,-2.2465,-2.2594,-2.2594,-2.2594,-2.2594,-2.2594,-2.2594,-2.2594,-2.2594,-2.2594,-2.2594,-2.2577,-2.2533,-2.2498,-2.2462,-2.227,-2.2231,-2.2224,0.0,0.0,0.0,0.0,0.0,0.0,0.0,0.0,0.0,0.0,0.0,0.0,0.0,0.0,0.0,0.0,0.0,0.0,0.0,-2.2391,-2.2831,-2.3041,-2.3325,0.0,0.0,0.0,0.0,-2.3388,-2.3456,-2.3456,-2.3397,-2.3456,-2.3646,-2.3904,-2.3845,-2.3746,-2.3596,-2.3546,-2.3546,-2.3596,-2.3805,-2.3755,-2.3397,-2.2333,-2.1768,-2.1463,-2.0034,-1.9376,-1.9123,-1.8279,-1.7852,-1.7629,-2.1199,-2.1027,0.0,-2.0965,0.0,0.0,-2.1053,-2.1587,0.0,-2.3645,-2.4307,0.0,-2.6406,-2.6552,-2.6791,-2.7342,-2.7389,0.0,-2.7693,0.0,0.0,-2.8512,-2.8149,-2.8251,-2.8845,-2.6602,0.0,-2.5286,0.0,-2.2093,-2.1266,-2.1401,-2.132,-2.1024,-2.0789,-2.1534,-2.2982,-2.2853,-2.2924,-2.3058,-2.2968,-2.2665,0.0,-2.2517,-2.2465,-2.227,-2.2525,-2.2594,-2.2594,-2.2594,-2.2594,-2.2594,-2.2594,-2.2594,-2.2594,-2.2594,-2.2594,-2.2594,-2.2594,-2.2594,-2.2593,-2.2477,-2.2425,-2.2371,-2.2241,-2.2298,-2.2442,0.0,-2.2643,-2.2751,0.0,0.0,0.0,0.0,0.0,0.0,0.0,0.0,0.0,0.0,0.0,0.0,0.0,0.0,-2.2904,-2.2904,0.0,0.0,0.0,0.0,0.0,-2.309,-2.3158,-2.3247,-2.3247,-2.3247,-2.3347,-2.3596,-2.3506,-2.3447,-2.3397,-2.3297,-2.3297,-2.3406,-2.3546,-2.3696,-2.3696,-2.2535,-2.2123,-2.2072,-2.0439,-1.9428,-1.8869,-1.8503,-1.8122,-1.7774,-2.1556,0.0,0.0,0.0,0.0,0.0,0.0,-2.2566,0.0,-2.4554,0.0,-2.535,-2.5645,-2.5732,-2.5732,-2.5693,0.0,-2.5894,-2.6268,-2.6993,-2.7551,-2.792,-2.8392,-2.8713,-2.8841,-2.6791,-2.5318,0.0,0.0,-2.1341,-2.0699,-2.0744,-2.097,-2.1347,-2.0925,0.0,0.0,-2.3169,-2.3226,-2.2788,-2.3105,-2.2937,-2.2594,-2.2594,-2.2594,-2.2594,-2.2594,-2.2594,-2.2594,-2.2594,-2.2594,-2.2594,-2.2594,-2.2594,-2.2594,-2.2594,-2.2594,-2.2594,-2.2594,-2.2594,-2.2594,-2.2594,-2.2594,-2.2558,-2.2371,-2.2351,-2.2441,-2.2686,-2.2672,-2.2829,0.0,0.0,0.0,0.0,0.0,0.0,0.0,0.0,0.0,0.0,0.0,0.0,0.0,0.0,0.0,0.0,0.0,0.0,0.0,0.0,0.0,-2.2784,-2.2921,-2.2996,-2.2996,0.0,-2.3097,-2.3347,-2.3097,-2.3097,-2.3297,-2.3046,-2.3046,-2.3297,-2.3356,-2.3546,-2.3646,-2.2728,-2.2375,-2.2215,-2.0893,-1.9776,-1.8921,-1.8921,-1.8555,-1.8069,-2.2406,0.0,0.0,0.0,0.0,-2.3471,-2.435,-2.4249,-2.4146,-2.4431,-2.5333,-2.5876,-2.5732,-2.5917,-2.5965,-2.5742,-2.5917,0.0,0.0,0.0,0.0,-2.6184,-2.6254,-2.6706,-2.7521,-2.5635,-2.4589,0.0,0.0,-2.1341,-2.0699,-2.0871,-2.0997,-2.1087,0.0,0.0,-2.1631,-2.2527,0.0,-2.2659,-2.2719,-2.2695,-2.2594,-2.2594,-2.2594,-2.2594,-2.2594,-2.2594,-2.2594,-2.2594,-2.2594,-2.2594,-2.2594,-2.2594,-2.2594,-2.2594,-2.2594,-2.2594,-2.2594,-2.2594,-2.2594,-2.2594,-2.2594,-2.2577,-2.2567,-2.27,-2.29,-2.295,-2.3088,-2.3188,-2.2944,0.0,0.0,0.0,0.0,0.0,0.0,0.0,0.0,0.0,0.0,0.0,0.0,0.0,0.0,0.0,0.0,0.0,0.0,0.0,0.0,0.0,-2.3111,0.0,0.0,0.0,-2.2996,-2.3046,-2.2996,-2.2896,-2.2745,-2.2695,-2.2695,-2.2745,-2.3197,-2.3456,-2.3347,-2.2055,-2.0739,-1.9583,-1.9532,-1.9376,-1.9175,-1.8974,-1.8817,-1.866,-2.3003,0.0,0.0,0.0,0.0,0.0,0.0,-2.5754,-2.5827,-2.6123,-2.6547,-2.6695,-2.6487,-2.6594,-2.6456,-2.5936,-2.6004,-2.6014,-2.5742,-2.5965,-2.6052,-2.5917,-2.5917,-2.6139,-2.6648,-2.5353,-2.4355,-2.3737,0.0,0.0,-2.0871,-2.1105,-2.1195,-2.1203,0.0,-2.1113,0.0,0.0,0.0,-2.2328,-2.2525,-2.2594,-2.2594,-2.2594,-2.2594,-2.2594,-2.2594,-2.2594,-2.2594,-2.2594,-2.2594,-2.2594,-2.2594,-2.2594,-2.2594,-2.2594,-2.2594,-2.2594,-2.2594,-2.2594,-2.2594,-2.2594,-2.2594,-2.2594,-2.2594,-2.2695,-2.2795,-2.2795,-2.2996,-2.3082,-2.2784,-2.2499,0.0,0.0,0.0,0.0,0.0,0.0,0.0,0.0,0.0,0.0,0.0,0.0,0.0,0.0,0.0,0.0,0.0,0.0,0.0,0.0,0.0,0.0,0.0,0.0,0.0,-2.2795,-2.2795,-2.2695,-2.2594,-2.2594,-2.2594,-2.2594,-2.2274,-2.2577,-2.3297,-2.2013,-2.0798,-1.9732,-1.9879,-1.9931,-1.9931,-1.9783,-1.974,-1.9626,0.0,-2.4125,0.0,0.0,-2.5562,-2.6149,-2.6679,-2.7072,-2.7371,-2.7591,-2.75,-2.7321,-2.7192,-2.7202,-2.7012,-2.6359,-2.6289,-2.6142,-2.5879,-2.6014,-2.6052,-2.6004,-2.6004,-2.6004,-2.6004,-2.5372,-2.4475,0.0,0.0,0.0,0.0,-2.1409,0.0,0.0,0.0,0.0,0.0,0.0,-2.2038,-2.2141,-2.2482,-2.2594,-2.2594,-2.2594,-2.2594,-2.2594,-2.2594,-2.2594,-2.2594,-2.2594,-2.2594,-2.2594,-2.2594,-2.2594,-2.2594,-2.2594,-2.2594,-2.2594,-2.2594,-2.2594,-2.2594,-2.2594,-2.2594,-2.2594,-2.2594,-2.2594,-2.2594,-2.2594,-2.2745,-2.2833,-2.2637,-2.2584,0.0,0.0,0.0,0.0,0.0,0.0,0.0,0.0,0.0,0.0,0.0,0.0,0.0,0.0,0.0,-2.2233,-2.2452,-2.2233,-2.2215,0.0,0.0,-2.2567,-2.2594,0.0,-2.2594,-2.2594,-2.2594,-2.2594,-2.2594,-2.2594,-2.2594,-2.2544,-2.1709,-2.2013,-2.3046,-2.208,-2.131,-2.0688,-2.0534,-2.0585,-2.0747,-2.062,-2.0666,-2.0499,0.0,0.0,0.0,0.0,0.0,-2.7184,-2.7222,-2.7761,-2.7891,-2.7161,-2.7257,-2.7288,-2.7065,-2.7248,-2.7279,-2.6945,-2.6774,-2.6606,-2.6378,-2.6182,-2.6004,-2.5732,-2.5732,-2.5732,-2.5732,-2.5684,-2.516,0.0,0.0,-2.2966,0.0,0.0,0.0,0.0,0.0,0.0,0.0,-2.197,-2.2192,-2.2551,-2.2577,-2.2594,-2.2594,-2.2594,-2.2594,-2.2594,-2.2594,-2.2594,-2.2594,-2.2594,-2.2594,-2.2594,-2.2594,-2.2594,-2.2594,-2.2594,-2.2594,-2.2594,-2.2594,-2.2594,-2.2594,-2.2594,-2.2594,-2.2594,-2.2594,-2.2594,-2.2594,-2.2594,-2.2594,-2.2583,-2.2391,-2.2484,-2.2678,0.0,0.0,0.0,0.0,0.0,0.0,0.0,0.0,0.0,0.0,-2.2577,0.0,0.0,-2.199,-2.1815,-2.2197,-2.2138,-2.2338,-2.2918,0.0,-2.244,-2.2594,-2.2594,-2.2594,-2.2594,-2.2594,-2.2594,-2.2594,-2.2594,-2.2594,-2.2603,-2.2745,-2.2585,-2.2182,-2.1827,-2.1505,-2.1183,-2.0688,-2.0944,-2.1554,-2.1102,-2.0973,-2.0825,0.0,0.0,0.0,0.0,0.0,0.0,0.0,-2.8237,-2.8386,-2.8052,-2.8097,-2.8103,-2.7938,-2.8011,-2.785,-2.7276,-2.719,-2.7051,-2.6768,-2.6457,-2.6222,-2.6133,-2.583,-2.5693,-2.5693,-2.5382,-2.4927,0.0,0.0,0.0,0.0,0.0,0.0,0.0,0.0,-2.2143,-2.2013,-2.2285,-2.2465,-2.2594,-2.2594,-2.2594,-2.2594,-2.2594,-2.2594,-2.2594,-2.2594,-2.2594,-2.2594,-2.2594,-2.2594,-2.2594,-2.2594,-2.2594,-2.2594,-2.2594,-2.2594,-2.2594,-2.2594,-2.2594,-2.2594,-2.2594,-2.2594,-2.2594,-2.2594,-2.2594,-2.2594,-2.2594,-2.2594,-2.2601,-2.2496,-2.246,-2.2475,-2.2752,0.0,0.0,0.0,0.0,0.0,0.0,0.0,0.0,0.0,0.0,0.0,0.0,0.0,-2.2214,-2.2366,-2.2263,-2.2332,-2.2589,0.0,-2.254,-2.2594,-2.2594,-2.2594,-2.2594,-2.2594,-2.2594,-2.2594,-2.2594,-2.2232,-2.1658,-2.2736,-2.2728,-2.1853,-2.1717,-2.192,-2.2182,-2.1175,-2.1721,-2.3014,-2.2532,-2.2433,-2.2492,-2.6698,0.0,-2.7002,0.0,-2.7789,-2.7939,-2.8359,-2.8514,-2.8568,-2.8461,-2.8291,-2.829,-2.8396,-2.8366,-2.8123,-2.7599,-2.7513,-2.7393,-2.7207,-2.6807,-2.6572,-2.6572,-2.6162,0.0,-2.5928,-2.54,-2.5033,-2.4785,-2.4013,0.0,0.0,0.0,0.0,0.0,-2.2912,-2.2644,-2.2175,-2.2482,-2.2594,-2.2594,-2.2594,-2.2594,-2.2594,-2.2594,-2.2594,-2.2594,-2.2594,-2.2594,-2.2594,-2.2594,-2.2594,-2.2594,-2.2594,-2.2594,-2.2594,-2.2594,-2.2594,-2.2594,-2.2594,-2.2594,-2.2594,-2.2594,-2.2594,-2.2594,-2.2594,-2.2594,-2.2594,-2.2594,-2.2594,-2.2594,-2.2594,-2.2479,-2.2484,-2.2702,0.0,0.0,0.0,0.0,0.0,0.0,-2.2446,-2.2282,-2.2183,0.0,0.0,0.0,0.0,0.0,-2.2467,-2.2426,-2.2423,0.0,0.0,0.0,-2.2594,-2.2594,-2.2594,-2.2594,-2.2594,-2.2594,-2.2594,-2.2594,-2.2182,-2.1454,-2.2485,-2.2485,-2.1806,-2.1515,-2.2094,-2.3082,-2.1683,-2.2358,-2.4075,-2.3542,-2.3249,-2.3053,-2.7887,-2.8111,-2.8335,-2.8621,-2.892,-2.8973,-2.8727,-2.8461,-2.8184,-2.796,-2.7368,-2.7368,-2.8228,-2.8067,-2.7897,-2.7887,-2.7785,-2.7708,-2.7708,-2.7246,-2.7012,0.0,0.0,-2.6387,-2.6387,-2.5908,-2.5684,-2.5684,0.0,0.0,-2.4345,0.0,-2.3477,-2.3311,-2.327,-2.3029,-2.2594,-2.2594,-2.2594,-2.2594,-2.2594,-2.2594,-2.2594,-2.2594,-2.2594,-2.2594,-2.2594,-2.2594,-2.2594,-2.2594,-2.2594,-2.2594,-2.2594,-2.2594,-2.2594,-2.2594,-2.2594,-2.2594,-2.2594,-2.2594,-2.2594,-2.2594,-2.2594,-2.2594,-2.2594,-2.2594,-2.2594,-2.2594,-2.2594,-2.2594,-2.2594,-2.2594,-2.2686,-2.2946,0.0,0.0,0.0,0.0,0.0,0.0,-2.2908,-2.2956,-2.2713,0.0,0.0,0.0,0.0,0.0,0.0,0.0,0.0,-2.2577,-2.2423,0.0,-2.2594,-2.2594,-2.2594,-2.2594,-2.2594,-2.2594,-2.2594,-2.2594,-2.2594,-2.2544,-2.1979,-2.188,-2.2105,-2.1057,-2.1933,-2.3842,-2.2148,-2.2675,-2.4368,-2.388,-2.2928,-2.1961,-2.8184,-2.8067,-2.8067,-2.813,-2.8014,-2.7906,-2.7809,-2.7916,-2.8014,-2.7906,-2.7368,-2.7098,-2.7368,-2.7152,-2.7088,0.0,-2.7255,-2.7233,0.0,-2.6782,-2.6441,-2.6284,-2.5839,-2.5624,-2.5624,-2.5232,-2.5217,-2.5548,0.0,0.0,0.0,-2.4587,-2.426,-2.3836,-2.3836,-2.3388,-2.2594,-2.2594,-2.2594,-2.2594,-2.2594,-2.2594,-2.2594,-2.2594,-2.2594,-2.2594,-2.2594,-2.2594,-2.2594,-2.2594,-2.2594,-2.2594,-2.2594,-2.2594,-2.2594,-2.2594,-2.2594,-2.2594,-2.2594,-2.2594,-2.2594,-2.2594,-2.2594,-2.2594,-2.2594,-2.2594,-2.2594,-2.2594,-2.2594,-2.2594,-2.2594,-2.2594,-2.2653,-2.2695,-2.2644,0.0,0.0,0.0,0.0,0.0,-2.2713,-2.2713,0.0,-2.2863,0.0,0.0,0.0,0.0,0.0,0.0,0.0,0.0,-2.2494,0.0,-2.2594,-2.2594,-2.2594,-2.2594,-2.2594,-2.2594,-2.2594,-2.2594,-2.274,-2.2929,-2.2303,-2.2719,-2.3634,-2.1668,-2.2585,-2.5006,-2.2954,-2.3424,-2.5094,-2.4582,-2.3626,-2.2663,-2.8291,-2.8237,-2.8184,-2.8184,-2.8014,-2.7853,-2.7755,-2.7691,-2.7691,-2.7584,-2.6935,-2.6554,-2.6663,-2.6227,0.0,-2.6609,-2.6772,-2.6826,-2.6826,-2.6576,-2.633,-2.6169,-2.5731,-2.5521,-2.5521,-2.5127,0.0,-2.5419,-2.4716,-2.4522,-2.4821,-2.4662,-2.4332,-2.3777,-2.3777,-2.3338,-2.2594,-2.2594,-2.2594,-2.2594,-2.2594,-2.2594,-2.2594,-2.2594,-2.2594,-2.2594,-2.2594,-2.2594,-2.2594,-2.2594,-2.2594,-2.2594,-2.2594,-2.2594,-2.2594,-2.2594,-2.2594,-2.2594,-2.2594,-2.2594,-2.2594,-2.2594,-2.2594,-2.2594,-2.2594,-2.2594,-2.2594,-2.2594,-2.2594,-2.2594,-2.2594,-2.2594,-2.2594,-2.2594,-2.2594,-2.2594,-2.2594,0.0,0.0,0.0,0.0,0.0,0.0,-2.2629,-2.2644,0.0,0.0,0.0,0.0,0.0,0.0,-2.244,-2.2524,0.0,-2.2594,-2.2594,-2.2594,-2.2594,-2.2594,-2.2671,-2.2808,-2.2808,-2.2972,-2.3288,-2.2213,-2.2409,-2.3211,-2.1214,-2.2196,-2.4729,-2.3104,-2.3525,-2.5044,-2.4815,-2.3687,-2.2369,-2.8354,-2.8514,-2.8621,0.0,-2.8601,-2.8538,-2.8237,-2.7755,-2.726,-2.6989,-2.6227,-2.5798,-2.6072,-2.5366,-2.52,-2.5962,0.0,0.0,-2.6491,-2.6491,-2.6491,-2.6491,-2.608,-2.5826,-2.5826,-2.5434,-2.5215,-2.524,-2.4926,-2.4752,-2.4743,-2.435,-2.39,-2.3323,-2.3323,-2.3064,-2.2594,-2.2594,-2.2594,-2.2594,-2.2594,-2.2594,-2.2594,-2.2594,-2.2594,-2.2594,-2.2594,-2.2594,-2.2594,-2.2594,-2.2594,-2.2594,-2.2594,-2.2594,-2.2594,-2.2594,-2.2594,-2.2594,-2.2594,-2.2594,-2.2594,-2.2594,-2.2594,-2.2594,-2.2594,-2.2594,-2.2594,-2.2594,-2.2594,-2.2594,-2.2594,-2.2594,-2.2594,-2.2594,-2.2594,-2.2594,-2.2594,0.0,0.0,0.0,0.0,0.0,-2.2308,-2.2308,-2.2406,0.0,0.0,0.0,0.0,0.0,-2.2464,-2.2585,-2.2594,-2.2594,-2.2594,-2.2594,-2.2594,-2.2594,-2.2628,-2.2826,-2.3117,-2.3143,-2.3374,-2.3636,-2.1943,-2.1369,-2.1572,-2.0125,-2.1058,-2.3327,-2.2789,-2.3247,-2.4206,-2.4569,-2.3191,-2.1375,0.0,0.0,-2.8077,-2.8077,-2.7853,-2.7638,-2.7368,-2.7206,-2.6999,-2.6736,-2.6291,-2.6017,-2.6072,-2.5743,-2.5459,-2.5395,-2.5496,-2.5551,-2.5551,-2.5551,-2.545,-2.5255,-2.5113,-2.5061,-2.5061,-2.4678,-2.4544,-2.4666,-2.4993,-2.5155,-2.5155,-2.5054,-2.4588,-2.3748,-2.3748,-2.3326,-2.2594,-2.2594,-2.2594,-2.2594,-2.2594,-2.2594,-2.2594,-2.2594,-2.2594,-2.2594,-2.2594,-2.2594,-2.2594,-2.2594,-2.2594,-2.2594,-2.2594,-2.2594,-2.2594,-2.2594,-2.2594,-2.2594,-2.2594,-2.2594,-2.2594,-2.2594,-2.2594,-2.2594,-2.2594,-2.2594,-2.2594,-2.2594,-2.2594,-2.2594,-2.2594,-2.2594,-2.2594,-2.2594,-2.2594,-2.2594,-2.2594,-2.2594,0.0,0.0,-2.2507,-2.2507,-2.2507,-2.2507,-2.2429,0.0,0.0,0.0,0.0,-2.2088,-2.2266,-2.2585,-2.2594,-2.2594,-2.2594,-2.2594,-2.2594,-2.2603,-2.2843,-2.3032,-2.3126,-2.3408,-2.3742,-2.4002,-2.2955,-2.2821,-2.3199,-2.1454,-2.1817,-2.3383,-2.3528,-2.3311,-2.303,-2.403,-2.3038,-2.1268,-2.8291,-2.8184,-2.8067,-2.8067,-2.7853,-2.7476,-2.7043,-2.6881,-2.6663,-2.6245,-2.5907,-2.5734,-2.5907,-2.5523,-2.5247,-2.5221,-2.5221,-2.5174,-2.5017,-2.5026,-2.497,-2.4821,-2.4821,-2.4821,-2.4821,-2.4607,-2.4511,-2.4628,-2.4765,-2.4774,-2.4774,-2.4641,-2.4297,-2.38,-2.3791,-2.3419,-2.2809,-2.2809,-2.2757,-2.2594,-2.2594,-2.2594,-2.2594,-2.2594,-2.2594,-2.2594,-2.2594,-2.2594,-2.2594,-2.2594,-2.2594,-2.2594,-2.2594,-2.2594,-2.2594,-2.2594,-2.2594,-2.2594,-2.2594,-2.2594,-2.2594,-2.2594,-2.2594,-2.2594,-2.2594,-2.2594,-2.2594,-2.2594,-2.2594,-2.2594,-2.2594,-2.2594,-2.2594,-2.2594,-2.2594,-2.2594,-2.2594,-2.2594,0.0,-2.2594,-2.2594,-2.2594,-2.2594,-2.2594,-2.2508,-2.2311,-2.2244,0.0,-2.2244,-2.2244,-2.2388,-2.2594,-2.2594,-2.2594,-2.2594,-2.2926,-2.3072,-2.3072,-2.3557,-2.3887,-2.4009,-2.4262,-2.4459,-2.4588,-2.3764,-2.3476,-2.3536,-2.2191,-2.2184,-2.3023,-2.3489,-2.3117,-2.2425,-2.3384,-2.2614,-2.1211,-2.8291,-2.8291,-2.8291,-2.8291,-2.8121,-2.7799,-2.7206,-2.6926,-2.66,-2.6008,-2.5615,-2.5505,-2.5789,-2.5302,-2.5026,-2.5165,-2.5221,-2.5072,-2.4821,-2.4821,-2.4821,-2.4821,-2.4821,-2.4821,-2.4821,-2.4821,-2.4821,-2.4821,-2.4432,-2.427,-2.4261,-2.399,-2.3819,-2.3785,-2.3759,-2.3545,-2.3203,-2.3203,-2.298,-2.268,-2.268,-2.2645,-2.2594,-2.2594,-2.2594,-2.2594,-2.2594,-2.2594,-2.2594,-2.2594,-2.2594,-2.2594,-2.2594,-2.2594,-2.2594,-2.2594,-2.2594,-2.2594,-2.2594,-2.2594,-2.2594,-2.2594,-2.2594,-2.2594,-2.2594,-2.2594,-2.2594,-2.2594,-2.2594,-2.2594,-2.2594,-2.2594,-2.2594,-2.2594,-2.2594,-2.2594,-2.2594,0.0,-2.2594,-2.2594,-2.2594,-2.2594,-2.2594,-2.2594,-2.2594,-2.2594,-2.2594,-2.2594,-2.2594,-2.2594,-2.2594,-2.2594,-2.2594,-2.2628,-2.2739,-2.3331,-2.3625,-2.3738,-2.4385,-2.4845,-2.5111,-2.5173,-2.5205,-2.5165,-2.4437,-2.3815,-2.3368,-2.258,-2.2353,-2.2498,-2.3243,-2.2926,-2.212,-2.2874,-2.231,-2.1219,-2.8291,-2.8291,-2.8291,-2.8291,-2.8291,-2.813,-2.7799,-2.7745,-2.7584,-2.7215,-2.6718,-2.6382,-2.6436,-2.5898,-2.5459,-2.5221,-2.5221,-2.5072,-2.4821,-2.4821,-2.4821,-2.4821,-2.4821,-2.4821,-2.4821,-2.4821,-2.4821,-2.4821,-2.4761,-2.4727,-2.4727,-2.4667,-2.447,-2.4099,-2.4145,-2.3948,-2.3614,-2.3588,-2.3365,-2.3023,-2.3023,-2.2835,-2.2594,-2.2594,-2.2594,-2.2594,-2.2594,-2.2594,-2.2594,-2.2594,-2.2594,-2.2594,-2.2594,-2.2594,-2.2594,-2.2594,-2.2594,-2.2594,-2.2594,-2.2594,-2.2594,-2.2594,-2.2594,-2.2594,-2.2594,-2.2594,-2.2594,-2.2594,-2.2594,-2.2594,-2.2594,-2.2594,-2.2594,-2.2594,-2.2594,-2.2594,-2.2594,0.0,-2.2594,-2.2594,-2.2594,-2.2594,-2.2594,-2.2594,-2.2594,-2.2594,-2.2594,-2.2594,-2.2594,-2.2594,-2.2594,-2.2594,-2.2594,-2.2858,-2.3451,-2.3564,-2.386,-2.4446,-2.4836,-2.5058,-2.5129,-2.5448,-2.5452,-2.5165,-2.5055,-2.4381,-2.3359,-2.3255,-2.2805,-2.2305,-2.3649,-2.314,-2.1838,-2.3262,-2.2658,-2.1175,-2.8291,-2.8291,-2.8291,-2.8291,-2.8291,-2.813,-2.7691,-2.7638,-2.7476,-2.7043,-2.6763,-2.66,-2.66,-2.6336,-2.6008,-2.5505,-2.545,-2.5302,-2.4821,-2.4821,-2.4868,-2.5017,-2.4868,-2.4821,-2.4821,-2.4821,-2.4821,-2.4821,-2.4821,-2.4821,-2.4821,-2.4821,-2.4727,-2.4492,-2.4492,-2.4342,-2.399,-2.3973,-2.3751,-2.3408,-2.3408,-2.3186,-2.2852,-2.2852,-2.2774,-2.2594,-2.2594,-2.2594,-2.2594,-2.2594,-2.2594,-2.2594,-2.2594,-2.2594,-2.2594,-2.2594,-2.2594,-2.2594,-2.2594,-2.2594,-2.2594,-2.2594,-2.2594,-2.2594,-2.2594,-2.2594,-2.2594,-2.2594,-2.2594,-2.2594,-2.2594,-2.2594,-2.2594,-2.2594,-2.2594,0.0,0.0,-2.2594,-2.2594,-2.2594,-2.2594,-2.2594,-2.2594,-2.2594,-2.2594,-2.2594,-2.2594,-2.2594,-2.2594,-2.2594,-2.2594,-2.2594,-2.2952,-2.3313,-2.3599,-2.4314,-2.4817,-2.5155,-2.5505,-2.5639,-2.5648,-2.5654,-2.5514,-2.5221,-2.5221,-2.4778,-2.4175,-2.4175,-2.344,-2.2418,-2.3286,-2.2587,-2.1208,-2.2105,-2.1891,-2.121,-2.8291,-2.8291,-2.8291,-2.8291,-2.8291,-2.813,-2.7701,-2.7593,-2.7476,-2.7034,-2.6871,-2.6772,-2.6772,-2.6654,-2.6382,-2.5953,-2.5898,-2.5743,-2.5366,-2.5145,-2.5026,-2.5119,-2.4923,-2.4821,-2.4821,-2.4821,-2.4821,-2.4821,-2.4821,-2.4821,-2.4821,-2.4821,-2.4821,-2.4821,-2.4821,-2.465,-2.4313,-2.4313,-2.4145,-2.3794,-2.3794,-2.358,-2.3254,-2.3254,-2.3014,-2.2731,-2.2731,-2.2671,-2.2594,-2.2594,-2.2594,-2.2594,-2.2594,-2.2594,-2.2594,-2.2594,-2.2594,-2.2594,-2.2594,-2.2594,-2.2594,-2.2594,-2.2594,-2.2594,-2.2594,-2.2594,-2.2594,-2.2594,-2.2594,-2.2594,-2.2594,-2.2594,-2.2594,-2.2594,0.0,0.0,0.0,-2.2594,-2.2594,-2.2594,-2.2594,-2.2594,-2.2594,-2.2594,-2.2594,-2.2594,-2.2594,-2.2594,-2.2594,-2.2594,-2.2687,-2.2833,-2.3331,-2.3729,-2.4069,-2.5022,-2.5576,-2.5729,-2.5928,-2.6017,-2.6017,-2.5789,-2.5514,-2.5221,-2.5221,-2.5072,-2.4821,-2.4821,-2.4126,-2.3066,-2.3236,-2.2476,-2.1275,-2.1385,-2.1353,-2.1194,-2.8291,-2.8291,-2.8291,-2.8291,-2.8291,-2.8291,-2.8237,-2.8237,-2.8237,-2.8184,-2.7701,-2.7323,-2.7323,-2.6881,-2.66,-2.6545,-2.6545,-2.66,-2.6826,-2.6063,-2.5412,-2.4868,-2.4821,-2.4821,-2.4821,-2.4821,-2.4821,-2.4821,-2.4821,-2.4821,-2.4821,-2.4821,-2.4821,-2.4821,-2.4821,-2.4804,-2.4778,-2.4778,-2.4556,-2.4133,-2.4133,-2.3973,-2.3657,-2.3657,-2.3417,-2.3074,-2.3074,-2.2843,-2.2594,-2.2594,-2.2594,-2.2594,-2.2594,-2.2594,-2.2594,-2.2594,-2.2594,-2.2594,-2.2594,-2.2594,-2.2594,-2.2594,-2.2594,-2.2594,-2.2594,-2.2594,-2.2594,-2.2594,-2.2594,-2.2594,-2.2594,-2.2594,-2.2594,-2.2594,0.0,0.0,-2.2594,-2.2594,-2.2594,-2.2594,-2.2594,-2.2594,-2.2594,-2.2594,-2.2594,-2.2594,-2.2594,-2.2594,-2.2594,-2.2594,-2.2858,-2.3495,-2.3581,-2.4191,-2.5432,-2.5237,-2.5451,-2.6082,-2.5835,-2.5743,-2.5743,-2.5688,-2.5514,-2.5221,-2.5221,-2.5072,-2.4821,-2.4821,-2.4727,-2.4611,-2.4325,-2.3613,-2.2788,-2.2505,-2.1847,-2.1115,-2.8291,-2.8291,-2.8291,-2.8291,-2.8291,-2.8291,-2.8291,-2.8291,-2.8291,-2.8291,-2.8077,-2.797,-2.797,-2.7799,-2.7476,-2.7152,-2.7098,-2.6989,-2.6772,-2.6063,-2.5412,-2.4821,-2.4821,-2.4821,-2.4821,-2.4821,-2.4821,-2.4821,-2.4821,-2.4821,-2.4821,-2.4821,-2.4821,-2.4821,-2.4821,-2.4821,-2.4821,-2.4821,-2.4735,-2.4598,-2.4598,-2.4376,-2.4033,-2.4033,-2.3794,-2.3451,-2.3451,-2.3374,-2.3228,-2.298,-2.2895,-2.286,-2.2671,-2.2594,-2.2594,-2.2594,-2.2594,-2.2594,-2.2594,-2.2594,-2.2594,-2.2594,-2.2594,-2.2594,-2.2594,-2.2594,-2.2594,-2.2594,-2.2594,-2.2594,-2.2594,-2.2594,-2.2594,-2.2594,0.0,-2.2594,-2.2594,-2.2594,-2.2594,-2.2594,-2.2594,-2.2594,-2.2594,-2.2594,-2.2594,-2.2594,-2.2594,-2.2594,-2.2594,-2.2978,-2.3703,-2.4799,-2.4624,-2.4757,-2.5264,-2.5568,-2.5755,-2.5852,-2.5569,-2.5395,-2.5395,-2.5247,-2.509,-2.497,-2.497,-2.4701,-2.4266,-2.4628,-2.4346,-2.3649,-2.3535,-2.3026,-2.2326,-2.18,-2.1279,-2.0862,-2.8291,-2.8291,-2.8291,-2.8291,-2.8291,-2.8291,-2.8291,-2.8291,-2.8291,-2.8291,-2.8291,-2.8291,-2.8291,-2.8291,-2.813,-2.7701,-2.7701,-2.753,-2.7152,-2.6391,-2.5633,-2.4821,-2.4821,-2.4821,-2.4821,-2.4821,-2.4821,-2.4821,-2.4821,-2.4821,-2.4821,-2.4821,-2.4821,-2.4821,-2.4821,-2.4821,-2.4821,-2.4821,-2.4821,-2.4821,-2.4821,-2.4603,-2.4364,-2.4364,-2.4179,-2.3845,-2.3845,-2.3776,-2.3648,-2.3374,-2.3288,-2.322,-2.2894,-2.2688,-2.2594,-2.2594,-2.2594,-2.2594,-2.2594,-2.2594,-2.2594,-2.2594,-2.2594,-2.2594,-2.2594,-2.2594,-2.2594,-2.2594,-2.2594,-2.2594,-2.2594,-2.2594,-2.2594,-2.2594,-2.2594,-2.2594,-2.2594,-2.2594,-2.2594,-2.2594,-2.2594,-2.2594,-2.2594,-2.2594,-2.2594,-2.2594,-2.2594,-2.2696,-2.2926,-2.3772,-2.4605,-2.5406,-2.5442,-2.5343,-2.5126,-2.56,-2.5734,-2.5514,-2.5009,-2.4889,-2.5072,-2.4701,-2.4645,-2.4821,-2.4821,-2.4449,-2.3942,-2.4225,-2.3951,-2.3235,-2.261,-2.2345,-2.2194,-2.1167,-2.0777,-2.0659,-2.8291,-2.8291,-2.8291,-2.8291,-2.8291,-2.8291,-2.8291,-2.8291,-2.8291,-2.8291,-2.8291,-2.8291,-2.8291,-2.8291,-2.8291,-2.8291,-2.8291,-2.8291,-2.8291,-2.7206,-2.6063,-2.4876,-2.4821,-2.4821,-2.4821,-2.4821,-2.4821,-2.4821,-2.4821,-2.4821,-2.4821,-2.4821,-2.4821,-2.4821,-2.4821,-2.4821,-2.4821,-2.4821,-2.4821,-2.4821,-2.4821,-2.4821,-2.4821,-2.4821,-2.4573,-2.4185,-2.4185,-2.3999,-2.3727,-2.3718,-2.3718,-2.3658,-2.3237,-2.286,-2.2603,-2.2603,-2.2603,-2.2603,-2.2594,-2.2594,-2.2594,-2.2594,-2.2594,-2.2594,-2.2594,-2.2594,-2.2594,-2.2594,-2.2594,-2.2594,-2.2594,-2.2594,-2.2594,-2.2594,-2.2594,-2.2594,-2.2594,-2.2594,-2.2594,-2.2594,-2.2594,-2.2594,-2.2594,-2.2594,-2.2594,-2.2594,-2.2603,-2.2926,-2.359,-2.4897,-2.5424,-2.512,-2.5765,-2.5789,-2.5221,-2.5221,-2.5221,-2.5174,-2.4299,-2.4186,-2.4774,-2.4146,-2.4178,-2.4765,-2.4765,-2.4457,-2.3843,-2.3499,-2.3556,-2.3685,-2.174,-2.1797,-2.2759,-2.0862,-2.0427,-2.0628,-2.8291,-2.8291,-2.8291,-2.8291,-2.8291,-2.8291,-2.8291,-2.8291,-2.8291,-2.8291,-2.8291,-2.8291,-2.8291,-2.8291,-2.8291,-2.8291,-2.8291,-2.813,-2.7701,-2.6989,-2.6273,-2.5467,-2.5034,-2.4821,-2.4821,-2.4821,-2.4821,-2.4821,-2.4821,-2.4821,-2.4821,-2.4821,-2.4821,-2.4821,-2.4821,-2.4821,-2.4821,-2.4821,-2.4821,-2.4821,-2.4821,-2.4821,-2.4821,-2.4821,-2.4744,-2.4641,-2.4641,-2.4573,-2.4436,-2.4153,-2.4059,-2.3999,-2.3622,-2.3478,-2.3332,-2.3023,-2.2946,-2.2886,-2.2671,-2.2594,-2.2594,-2.2594,-2.2594,-2.2594,-2.2594,-2.2594,-2.2594,-2.2594,-2.2594,-2.2594,-2.2594,-2.2594,-2.2594,-2.2594,-2.2594,-2.2594,-2.2594,-2.2594,-2.2594,-2.2594,-2.2594,-2.2594,-2.2594,-2.2594,-2.2594,-2.2594,-2.2843,-2.3436,-2.458,-2.488,-2.5127,-2.551,-2.5507,-2.5395,-2.5221,-2.5221,-2.477,-2.3927,-2.3473,-2.3029,-2.2539,-2.2097,-2.2025,-2.2232,-2.2429,-2.2146,-2.1622,-2.2142,-2.2209,-2.1882,-2.1303,-2.1364,-2.1604,-2.055,-2.0119,-2.0047,-2.8291,-2.8291,-2.8291,-2.8291,-2.8291,-2.8291,-2.8291,-2.8291,-2.8291,-2.8291,-2.8291,-2.8291,-2.8291,-2.8291,-2.8291,-2.8291,-2.8291,-2.8023,-2.7431,-2.7098,-2.6663,-2.6063,-2.5467,-2.5034,-2.4821,-2.4821,-2.4821,-2.4821,-2.4821,-2.4821,-2.4821,-2.4821,-2.4821,-2.4821,-2.4821,-2.4821,-2.4821,-2.4821,-2.4821,-2.4821,-2.4821,-2.4821,-2.4821,-2.4821,-2.4821,-2.4821,-2.4821,-2.4821,-2.4787,-2.4547,-2.4304,-2.4142,-2.3965,-2.3944,-2.3947,-2.3504,-2.3496,-2.3566,-2.298,-2.2817,-2.2791,-2.2637,-2.2594,-2.2594,-2.2594,-2.2594,-2.2594,-2.2594,-2.2594,-2.2594,-2.2594,-2.2594,-2.2594,-2.2594,-2.2594,-2.2594,-2.2594,-2.2594,-2.2594,-2.2594,-2.2594,-2.2594,-2.2594,-2.2594,-2.2654,-2.2808,-2.3367,-2.4086,-2.4878,-2.5037,-2.523,-2.5505,-2.5284,-2.5174,-2.5017,-2.5017,-2.4676,-2.3944,-2.3068,-2.2485,-2.2135,-2.1161,-2.0845,-2.1137,-2.1285,-2.0984,-2.0446,-2.0858,-2.0984,-2.0893,-2.0348,-2.0573,-2.1099,-2.0173,-1.9834,-1.978,-2.8291,-2.8291,-2.8291,-2.8291,-2.8291,-2.8291,-2.8291,-2.8291,-2.8291,-2.8291,-2.8291,-2.8291,-2.8291,-2.8291,-2.8291,-2.8291,-2.8291,-2.8077,-2.7539,-2.7431,-2.7152,-2.6708,-2.6063,-2.5467,-2.4876,-2.4821,-2.4821,-2.4821,-2.4821,-2.4821,-2.4821,-2.4821,-2.4821,-2.4821,-2.4821,-2.4821,-2.4821,-2.4821,-2.4821,-2.4821,-2.4821,-2.4821,-2.4821,-2.4821,-2.4821,-2.4821,-2.4821,-2.4821,-2.4821,-2.4821,-2.4581,-2.4227,-2.4227,-2.4435,-2.4518,-2.3946,-2.414,-2.4333,-2.3427,-2.316,-2.3074,-2.274,-2.2645,-2.2637,-2.2603,-2.2594,-2.2594,-2.2594,-2.2594,-2.2594,-2.2594,-2.2594,-2.2594,-2.2594,-2.2594,-2.2594,-2.2594,-2.2594,-2.2594,-2.2594,-2.2594,-2.2594,-2.2594,-2.2628,-2.2817,-2.3238,-2.4129,-2.4698,-2.4733,-2.5274,-2.5459,-2.5,-2.511,-2.5017,-2.4646,-2.4646,-2.459,-2.4479,-2.2793,-2.2195,-2.2474,-2.0755,-2.0261,-2.0787,-2.0816,-2.0475,-1.999,-1.9727,-1.9964,-2.0399,-1.9235,-1.97,-2.0925,-1.976,-1.9529,-1.9726,-2.8291,-2.8291,-2.8291,-2.8291,-2.8291,-2.8291,-2.8291,-2.8291,-2.8291,-2.8291,-2.8291,-2.8291,-2.8291,-2.8291,-2.8291,-2.8291,-2.8291,-2.8237,-2.813,-2.7647,-2.7377,-2.7206,-2.6227,-2.5633,-2.5523,-2.5034,-2.4821,-2.4821,-2.4821,-2.4821,-2.4821,-2.4821,-2.4821,-2.4821,-2.4821,-2.4821,-2.4821,-2.4821,-2.4821,-2.4821,-2.4821,-2.4821,-2.4821,-2.4821,-2.4821,-2.4821,-2.4821,-2.4821,-2.4821,-2.4821,-2.4761,-2.4693,-2.4693,-2.4696,-2.4677,-2.4205,-2.4164,-2.4194,-2.3727,-2.3562,-2.346,-2.3083,-2.2989,-2.2912,-2.2663,-2.2594,-2.2594,-2.2594,-2.2594,-2.2594,-2.2594,-2.2594,-2.2594,-2.2594,-2.2594,-2.2594,-2.2594,-2.2594,-2.2594,-2.2594,-2.2594,-2.2594,-2.2594,-2.2818,-2.3375,-2.4277,-2.4306,-2.4522,-2.5035,-2.5038,-2.4518,-2.3488,-2.4406,-2.4406,-2.3376,-2.3384,-2.3038,-2.2305,-2.1618,-2.0529,-1.9055,-1.8414,-1.8167,-1.8292,-1.8507,-1.852,-1.8423,-1.8761,-1.9025,-1.9192,-1.915,-1.9417,-1.9744,-1.9459,-1.9407,-1.9452,-2.8291,-2.8291,-2.8291,-2.8291,-2.8291,-2.8291,-2.8291,-2.8291,-2.8291,-2.8291,-2.8291,-2.8291,-2.8291,-2.8291,-2.8291,-2.8291,-2.8291,-2.8291,-2.8291,-2.8023,-2.7809,-2.7809,-2.6718,-2.6118,-2.6118,-2.5255,-2.4821,-2.4821,-2.4821,-2.4821,-2.4821,-2.4821,-2.4821,-2.4821,-2.4821,-2.4821,-2.4821,-2.4821,-2.4821,-2.4821,-2.4821,-2.4821,-2.4821,-2.4821,-2.4821,-2.4821,-2.4821,-2.4821,-2.4821,-2.4821,-2.4821,-2.4821,-2.4821,-2.4979,-2.5157,-2.4628,-2.4668,-2.4746,-2.4113,-2.3948,-2.3845,-2.3468,-2.3374,-2.3228,-2.2723,-2.2594,-2.2594,-2.2594,-2.2594,-2.2594,-2.2594,-2.2594,-2.2594,-2.2594,-2.2594,-2.2594,-2.2594,-2.2695,-2.2795,-2.2795,-2.307,-2.3354,-2.3538,-2.3852,-2.4298,-2.487,-2.49,-2.5084,-2.5441,-2.5302,-2.4684,-2.3488,-2.4064,-2.4064,-2.3432,-2.2862,-2.2305,-2.1851,-2.0745,-1.994,-1.9441,-1.8117,-1.7485,-1.7491,-1.7624,-1.769,-1.7755,-1.8206,-1.8473,-1.8637,-1.8998,-1.92,-1.9424,-1.9424,-1.9424,-1.9424,-2.8291,-2.8291,-2.8291,-2.8291,-2.8291,-2.8291,-2.8291,-2.8291,-2.8291,-2.8291,-2.8291,-2.8291,-2.8291,-2.8291,-2.8291,-2.8291,-2.8184,-2.813,-2.813,-2.8077,-2.8014,-2.8014,-2.6989,-2.6445,-2.6445,-2.5357,-2.4821,-2.4821,-2.4821,-2.4821,-2.4821,-2.4821,-2.4821,-2.4821,-2.4821,-2.4821,-2.4821,-2.4821,-2.4821,-2.4821,-2.4821,-2.4821,-2.4821,-2.4821,-2.4821,-2.4821,-2.4821,-2.4821,-2.4821,-2.4821,-2.4821,-2.4821,-2.4821,-2.5145,-2.5467,-2.4932,-2.5145,-2.5342,-2.4528,-2.4279,-2.4239,-2.3862,-2.3768,-2.3632,-2.2946,-2.274,-2.2697,-2.2697,-2.2645,-2.2594,-2.2594,-2.2594,-2.2594,-2.2594,-2.2644,-2.2644,-2.2644,-2.2957,-2.3151,-2.3151,-2.3706,-2.4259,-2.4641,-2.4925,-2.5138,-2.5209,-2.5501,-2.5688,-2.5688,-2.5688,-2.5174,-2.3935,-2.4103,-2.3991,-2.36,-2.2587,-2.2078,-2.2078,-2.0069,-1.9666,-2.0558,-1.8571,-1.7661,-1.7661,-1.7661,-1.7661,-1.7661,-1.8018,-1.8252,-1.8532,-1.8823,-1.9185,-1.9424,-1.9424,-1.9424,-1.9424,-2.8291,-2.8291,-2.8291,-2.8291,-2.8291,-2.8291,-2.8291,-2.8291,-2.8291,-2.8291,-2.8291,-2.8291,-2.8291,-2.8291,-2.8291,-2.8291,-2.7809,-2.7539,-2.7539,-2.7098,-2.6817,-2.6817,-2.6172,-2.5844,-2.5844,-2.5145,-2.4821,-2.4821,-2.4821,-2.4821,-2.4821,-2.4821,-2.4821,-2.4821,-2.4821,-2.4821,-2.4821,-2.4821,-2.4821,-2.4821,-2.4821,-2.4821,-2.4821,-2.4821,-2.4821,-2.4821,-2.4821,-2.4821,-2.4821,-2.4821,-2.4821,-2.4821,-2.4821,-2.4876,-2.4932,-2.4821,-2.4876,-2.4915,-2.4753,-2.4744,-2.4641,-2.4256,-2.4153,-2.4042,-2.3667,-2.3271,-2.304,-2.304,-2.2826,-2.2594,-2.2594,-2.2594,-2.2594,-2.2594,-2.2795,-2.2946,-2.2946,-2.3505,-2.387,-2.387,-2.4268,-2.4659,-2.4996,-2.5085,-2.5253,-2.5581,-2.5652,-2.5688,-2.5688,-2.5688,-2.5174,-2.3935,-2.4898,-2.4437,-2.2353,-2.2191,-2.2078,-2.2078,-1.9673,-1.859,-1.8758,-1.8415,-1.8305,-1.8305,-1.8305,-1.8305,-1.8298,-1.8648,-1.8823,-1.8881,-1.9185,-1.9366,-1.9424,-1.9424,-1.9424,-1.9424,-2.8291,-2.8291,-2.8291,-2.8291,-2.8291,-2.8291,-2.8291,-2.8291,-2.8291,-2.8291,-2.8291,-2.8291,-2.8291,-2.8291,-2.8184,-2.7809,-2.753,-2.726,-2.6989,-2.6708,-2.66,-2.66,-2.6008,-2.5688,-2.5688,-2.509,-2.4821,-2.4821,-2.4821,-2.4821,-2.4821,-2.4821,-2.4821,-2.4821,-2.4821,-2.4821,-2.4821,-2.4821,-2.4821,-2.4821,-2.4821,-2.4821,-2.4821,-2.4821,-2.4821,-2.4821,-2.4821,-2.4821,-2.4821,-2.4821,-2.4821,-2.4821,-2.4821,-2.4821,-2.4821,-2.4821,-2.4821,-2.4821,-2.4821,-2.4821,-2.4778,-2.4607,-2.4564,-2.4521,-2.435,-2.4016,-2.3682,-2.3468,-2.334,-2.322,-2.322,-2.322,-2.3272,-2.3427,-2.3531,-2.3685,-2.3849,-2.4266,-2.4722,-2.5043,-2.5276,-2.5539,-2.5892,-2.5937,-2.601,-2.6181,-2.619,-2.619,-2.619,-2.619,-2.5348,-2.3488,-2.4556,-2.4047,-2.1623,-2.1623,-2.1623,-2.1566,-1.9809,-1.912,-1.9461,-1.8706,-1.8421,-1.8421,-1.8421,-1.8421,-1.8421,-1.8765,-1.8874,-1.8933,-1.9243,-1.9424,-1.9424,-1.9424,-1.9424,-1.9424]},{"header":{"parameterUnit":"m.s-1","parameterCategory":1,"la1":30.6,"la2":28.766,"lo1":-90.7593,"lo2":-88.6598,"dy":0.0162,"dx":0.0183,"nx":116,"ny":114,"refTime":"2023-03-01T06:00:00:Z","depth":0,"parameterNumber":3,"parameterNumberName":"V-component_of_WINDS"},"data":[0.0,0.0,0.0,0.0,0.0,0.0,0.0,0.0,0.0,0.0,0.0,0.0,0.0,0.0,0.0,0.0,0.0,0.0,0.0,0.0,0.0,0.0,0.0,0.0,0.0,0.0,0.0,0.0,0.0,0.0,0.0,0.0,0.0,0.0,0.0,0.0,0.0,0.0,0.0,0.0,0.0,0.0,0.0,0.0,0.0,0.0,0.0,0.0,0.0,0.0,0.0,0.0,0.0,0.0,0.0,0.0,0.0,0.0,0.0,0.0,0.0,0.0,0.0,0.0,0.0,0.0,0.0,0.0,0.0,0.0,0.0,0.0,0.0,0.0,0.0,0.0,0.0,0.0,0.0,0.0,0.0,0.0,0.0,0.0,0.0,0.0,0.0,0.0,0.0,0.0,0.0,0.0,0.0,0.0,0.0,0.0,0.0,0.0,0.0,0.0,0.0,0.0,0.0,0.0,0.0,0.0,0.0,0.0,0.0,0.0,0.0,0.0,0.0,0.0,0.0,0.0,0.0,0.0,0.0,0.0,0.0,0.0,0.0,0.0,0.0,0.0,0.0,0.0,0.0,0.0,0.0,0.0,0.0,0.0,0.0,0.0,0.0,0.0,0.0,0.0,0.0,0.0,0.0,0.0,0.0,0.0,0.0,0.0,0.0,0.0,0.0,0.0,0.0,0.0,0.0,0.0,0.0,0.0,0.0,0.0,0.0,0.0,0.0,0.0,0.0,0.0,0.0,0.0,0.0,0.0,0.0,0.0,0.0,0.0,0.0,0.0,0.0,0.0,0.0,0.0,0.0,0.0,0.0,0.0,0.0,0.0,0.0,0.0,0.0,0.0,0.0,0.0,0.0,0.0,0.0,0.0,0.0,0.0,0.0,0.0,0.0,0.0,0.0,0.0,0.0,0.0,0.0,0.0,0.0,0.0,0.0,0.0,0.0,0.0,0.0,0.0,0.0,0.0,0.0,0.0,0.0,0.0,0.0,0.0,0.0,0.0,0.0,0.0,0.0,0.0,0.0,0.0,0.0,0.0,0.0,0.0,0.0,0.0,0.0,0.0,0.0,0.0,0.0,0.0,0.0,0.0,0.0,0.0,0.0,0.0,0.0,0.0,0.0,0.0,0.0,0.0,0.0,0.0,0.0,0.0,0.0,0.0,0.0,0.0,0.0,0.0,0.0,0.0,0.0,0.0,0.0,0.0,0.0,0.0,0.0,0.0,0.0,0.0,0.0,0.0,0.0,0.0,0.0,0.0,0.0,0.0,0.0,0.0,0.0,0.0,0.0,0.0,0.0,0.0,0.0,0.0,0.0,0.0,0.0,0.0,0.0,0.0,0.0,0.0,0.0,0.0,0.0,0.0,0.0,0.0,0.0,0.0,0.0,0.0,0.0,0.0,0.0,0.0,0.0,0.0,0.0,0.0,0.0,0.0,0.0,0.0,0.0,0.0,0.0,0.0,0.0,0.0,0.0,0.0,0.0,0.0,0.0,0.0,0.0,0.0,0.0,0.0,0.0,0.0,0.0,0.0,0.0,0.0,0.0,0.0,0.0,0.0,0.0,0.0,0.0,0.0,0.0,0.0,0.0,0.0,0.0,0.0,0.0,0.0,0.0,0.0,0.0,0.0,0.0,0.0,0.0,0.0,0.0,0.0,0.0,0.0,0.0,0.0,0.0,0.0,0.0,0.0,0.0,0.0,0.0,0.0,0.0,0.0,0.0,0.0,0.0,0.0,0.0,0.0,0.0,0.0,0.0,0.0,0.0,0.0,0.0,0.0,0.0,0.0,0.0,0.0,0.0,0.0,0.0,0.0,0.0,0.0,0.0,0.0,0.0,0.0,0.0,0.0,0.0,0.0,0.0,0.0,0.0,0.0,0.0,0.0,0.0,0.0,0.0,0.0,0.0,0.0,0.0,0.0,0.0,0.0,0.0,0.0,0.0,0.0,0.0,0.0,0.0,0.0,0.0,0.0,0.0,0.0,0.0,0.0,0.0,0.0,0.0,0.0,0.0,0.0,0.0,0.0,0.0,0.0,0.0,0.0,0.0,0.0,0.0,0.0,0.0,0.0,0.0,0.0,0.0,0.0,0.0,0.0,0.0,0.0,0.0,0.0,0.0,0.0,0.0,0.0,0.0,0.0,0.0,0.0,0.0,0.0,0.0,0.0,0.0,0.0,0.0,0.0,0.0,0.0,0.0,0.0,0.0,0.0,0.0,0.0,0.0,0.0,0.0,0.0,0.0,0.0,0.0,0.0,0.0,0.0,0.0,0.0,0.0,0.0,0.0,0.0,0.0,0.0,0.0,0.0,0.0,0.0,0.0,0.0,0.0,0.0,0.0,0.0,0.0,0.0,0.0,0.0,0.0,0.0,0.0,0.0,0.0,0.0,0.0,0.0,0.0,0.0,0.0,0.0,0.0,0.0,0.0,0.0,0.0,0.0,0.0,0.0,0.0,0.0,0.0,0.0,0.0,0.0,0.0,0.0,0.0,0.0,0.0,0.0,0.0,0.0,0.0,0.0,0.0,0.0,0.0,0.0,0.0,0.0,0.0,0.0,0.0,0.0,0.0,0.0,0.0,0.0,0.0,0.0,0.0,0.0,0.0,0.0,0.0,0.0,0.0,0.0,0.0,0.0,0.0,0.0,0.0,0.0,0.0,0.0,0.0,0.0,0.0,0.0,0.0,0.0,0.0,0.0,0.0,0.0,0.0,0.0,0.0,0.0,0.0,0.0,0.0,0.0,0.0,0.0,0.0,0.0,0.0,0.0,0.0,0.0,0.0,0.0,0.0,0.0,0.0,0.0,0.0,0.0,0.0,0.0,0.0,0.0,0.0,0.0,0.0,0.0,0.0,0.0,0.0,0.0,0.0,0.0,0.0,0.0,0.0,0.0,0.0,0.0,0.0,0.0,0.0,0.0,0.0,0.0,0.0,0.0,0.0,0.0,0.0,0.0,0.0,0.0,0.0,0.0,0.0,0.0,0.0,0.0,0.0,0.0,0.0,0.0,0.0,0.0,0.0,0.0,0.0,0.0,0.0,0.0,0.0,0.0,0.0,0.0,0.0,0.0,0.0,0.0,0.0,0.0,0.0,0.0,0.0,0.0,0.0,0.0,0.0,0.0,0.0,0.0,0.0,0.0,0.0,0.0,0.0,0.0,0.0,0.0,0.0,0.0,0.0,0.0,0.0,0.0,0.0,0.0,0.0,0.0,0.0,0.0,0.0,0.0,0.0,0.0,0.0,0.0,0.0,0.0,0.0,0.0,0.0,0.0,0.0,0.0,0.0,0.0,0.0,0.0,0.0,0.0,0.0,0.0,0.0,0.0,0.0,0.0,0.0,0.0,0.0,0.0,0.0,0.0,0.0,0.0,0.0,0.0,0.0,0.0,0.0,0.0,0.0,0.0,0.0,0.0,0.0,0.0,0.0,0.0,0.0,0.0,0.0,0.0,0.0,0.0,0.0,0.0,0.0,0.0,0.0,0.0,0.0,0.0,0.0,0.0,0.0,0.0,0.0,0.0,0.0,0.0,0.0,0.0,0.0,0.0,0.0,0.0,0.0,0.0,0.0,0.0,0.0,0.0,0.0,0.0,0.0,0.0,0.0,0.0,0.0,0.0,0.0,0.0,0.0,0.0,0.0,0.0,0.0,0.0,0.0,0.0,0.0,0.0,0.0,0.0,0.0,0.0,0.0,0.0,0.0,0.0,0.0,0.0,0.0,0.0,0.0,0.0,0.0,0.0,0.0,0.0,0.0,0.0,0.0,0.0,0.0,0.0,0.0,0.0,0.0,0.0,0.0,0.0,0.0,0.0,0.0,0.0,0.0,0.0,0.0,0.0,0.0,0.0,0.0,0.0,0.0,0.0,0.0,0.0,0.0,0.0,0.0,0.0,0.0,0.0,0.0,0.0,0.0,0.0,0.0,0.0,0.0,0.0,0.0,0.0,0.0,0.0,0.0,0.0,0.0,0.0,0.0,0.0,0.0,0.0,0.0,0.0,0.0,0.0,0.0,0.0,0.0,0.0,0.0,0.0,0.0,0.0,0.0,0.0,0.0,0.0,0.0,0.0,0.0,0.0,0.0,0.0,0.0,0.0,0.0,0.0,0.0,0.0,0.0,0.0,0.0,0.0,0.0,0.0,0.0,0.0,0.0,0.0,0.0,0.0,0.0,0.0,0.0,0.0,0.0,0.0,0.0,0.0,0.0,0.0,0.0,0.0,0.0,0.0,0.0,0.0,0.0,0.0,0.0,0.0,0.0,0.0,0.0,0.0,0.0,0.0,0.0,0.0,0.0,0.0,0.0,0.0,0.0,0.0,0.0,0.0,0.0,0.0,0.0,0.0,0.0,0.0,0.0,0.0,0.0,0.0,0.0,0.0,0.0,0.0,0.0,0.0,0.0,0.0,0.0,0.0,0.0,0.0,0.0,0.0,0.0,0.0,0.0,0.0,0.0,0.0,0.0,0.0,0.0,0.0,0.0,0.0,0.0,0.0,0.0,0.0,0.0,0.0,0.0,0.0,0.0,0.0,0.0,0.0,0.0,0.0,0.0,0.0,0.0,0.0,0.0,0.0,0.0,0.0,0.0,0.0,0.0,0.0,0.0,0.0,0.0,0.0,0.0,0.0,0.0,0.0,0.0,0.0,0.0,0.0,0.0,0.0,0.0,0.0,0.0,0.0,0.0,0.0,0.0,0.0,0.0,0.0,0.0,0.0,0.0,0.0,0.0,0.0,0.0,0.0,0.0,0.0,0.0,0.0,0.0,0.0,0.0,0.0,0.0,0.0,0.0,0.0,0.0,0.0,0.0,0.0,0.0,0.0,0.0,0.0,0.0,0.0,0.0,0.0,0.0,0.0,0.0,0.0,0.0,0.0,0.0,0.0,0.0,0.0,0.0,0.0,0.0,0.0,0.0,0.0,0.0,0.0,0.0,0.0,0.0,0.0,0.0,0.0,0.0,0.0,0.0,0.0,0.0,0.0,0.0,0.0,0.0,0.0,0.0,0.0,0.0,0.0,0.0,0.0,0.0,0.0,0.0,0.0,0.0,0.0,0.0,0.0,0.0,0.0,0.0,0.0,0.0,0.0,0.0,0.0,0.0,0.0,0.0,0.0,0.0,0.0,0.0,0.0,0.0,0.0,0.0,0.0,0.0,0.0,0.0,0.0,0.0,0.0,0.0,0.0,0.0,0.0,0.0,0.0,0.0,0.0,0.0,0.0,0.0,0.0,0.0,0.0,0.0,0.0,0.0,0.0,0.0,0.0,0.0,0.0,0.0,0.0,0.0,0.0,0.0,0.0,0.0,0.0,0.0,0.0,0.0,0.0,0.0,0.0,0.0,0.0,0.0,0.0,0.0,0.0,0.0,0.0,0.0,0.0,0.0,0.0,0.0,0.0,0.0,0.0,0.0,0.0,0.0,0.0,0.0,0.0,0.0,0.0,0.0,0.0,0.0,0.0,0.0,0.0,0.0,0.0,0.0,0.0,0.0,0.0,0.0,0.0,0.0,0.0,0.0,0.0,0.0,0.0,0.0,0.0,0.0,0.0,0.0,0.0,0.0,0.0,0.0,0.0,0.0,0.0,0.0,0.0,0.0,0.0,0.0,0.0,0.0,0.0,0.0,0.0,0.0,0.0,0.0,0.0,0.0,0.0,0.0,0.0,0.0,0.0,0.0,0.0,0.0,0.0,0.0,0.0,0.0,0.0,0.0,0.0,0.0,0.0,0.0,0.0,0.0,0.0,0.0,0.0,0.0,0.0,0.0,0.0,0.0,0.0,0.0,0.0,0.0,0.0,0.0,0.0,0.0,0.0,0.0,0.0,0.0,0.0,0.0,0.0,0.0,0.0,0.0,0.0,0.0,0.0,0.0,0.0,0.0,0.0,0.0,0.0,0.0,0.0,0.0,0.0,0.0,0.0,0.0,0.0,0.0,0.0,0.0,0.0,0.0,0.0,0.0,0.0,0.0,0.0,0.0,0.0,0.0,0.0,0.0,0.0,0.0,0.0,0.0,0.0,0.0,0.0,0.0,0.0,0.0,0.0,0.0,0.0,0.0,0.0,0.0,0.0,0.0,0.0,0.0,0.0,0.0,0.0,0.0,0.0,4.1106,0.0,0.0,0.0,0.0,0.0,0.0,0.0,0.0,0.0,0.0,0.0,0.0,0.0,0.0,0.0,0.0,0.0,0.0,0.0,0.0,0.0,0.0,0.0,0.0,0.0,0.0,0.0,0.0,0.0,0.0,0.0,0.0,0.0,0.0,0.0,0.0,0.0,0.0,0.0,3.7018,3.7498,3.8196,3.7824,3.7183,3.6413,0.0,0.0,0.0,0.0,0.0,0.0,0.0,0.0,0.0,0.0,0.0,0.0,0.0,0.0,0.0,0.0,0.0,0.0,0.0,0.0,0.0,0.0,0.0,0.0,0.0,0.0,0.0,0.0,0.0,0.0,0.0,0.0,0.0,0.0,0.0,0.0,0.0,0.0,0.0,0.0,0.0,0.0,0.0,0.0,0.0,0.0,0.0,0.0,0.0,0.0,0.0,0.0,0.0,0.0,0.0,0.0,0.0,0.0,0.0,0.0,0.0,0.0,0.0,0.0,0.0,0.0,0.0,0.0,0.0,0.0,0.0,4.1508,0.0,0.0,0.0,0.0,0.0,0.0,0.0,0.0,0.0,0.0,0.0,0.0,0.0,0.0,0.0,0.0,0.0,0.0,0.0,0.0,0.0,0.0,0.0,3.7671,3.7743,3.7655,3.7759,3.7801,0.0,0.0,0.0,0.0,0.0,0.0,0.0,3.7714,3.7778,3.8006,3.8581,3.9155,3.9724,3.9692,3.8967,3.7638,3.6774,0.0,0.0,0.0,0.0,0.0,0.0,0.0,0.0,0.0,0.0,0.0,0.0,0.0,0.0,0.0,0.0,0.0,0.0,0.0,0.0,0.0,0.0,0.0,0.0,0.0,0.0,0.0,0.0,0.0,0.0,0.0,0.0,0.0,0.0,0.0,0.0,0.0,0.0,0.0,0.0,0.0,0.0,0.0,0.0,0.0,0.0,0.0,0.0,0.0,0.0,0.0,0.0,0.0,0.0,0.0,0.0,0.0,0.0,0.0,0.0,0.0,0.0,0.0,4.3694,4.3516,4.2986,4.3117,4.3151,4.3104,4.2579,4.2417,4.2449,4.136,0.0,0.0,0.0,0.0,0.0,0.0,0.0,0.0,0.0,0.0,0.0,0.0,0.0,0.0,0.0,0.0,0.0,0.0,0.0,0.0,0.0,3.7943,3.821,3.8181,3.8673,3.899,3.899,0.0,0.0,0.0,0.0,0.0,3.9146,3.8518,3.8557,3.9255,3.9972,4.042,4.0626,4.0499,4.0388,4.023,3.8978,3.8213,3.7857,0.0,0.0,0.0,0.0,0.0,0.0,0.0,0.0,0.0,0.0,0.0,0.0,0.0,0.0,0.0,0.0,0.0,0.0,0.0,0.0,0.0,0.0,0.0,0.0,0.0,0.0,0.0,0.0,0.0,0.0,0.0,0.0,0.0,0.0,0.0,0.0,0.0,0.0,0.0,0.0,0.0,4.2653,4.2704,0.0,0.0,0.0,0.0,0.0,0.0,0.0,0.0,0.0,0.0,0.0,0.0,0.0,4.326,4.3291,4.395,4.4204,4.4103,4.4734,4.501,4.4931,4.4957,4.4956,4.4963,4.4877,0.0,4.1805,4.146,0.0,0.0,0.0,0.0,0.0,0.0,0.0,0.0,0.0,0.0,0.0,0.0,0.0,0.0,0.0,0.0,0.0,0.0,0.0,0.0,0.0,3.9161,3.9671,3.9999,4.0271,4.026,3.9862,3.9829,0.0,0.0,0.0,3.9232,3.9295,3.951,4.0266,4.1516,4.1697,4.1999,4.2419,4.2374,4.2207,4.1897,4.1293,4.0261,3.892,3.8623,0.0,0.0,0.0,0.0,0.0,0.0,0.0,0.0,0.0,0.0,0.0,0.0,0.0,0.0,0.0,0.0,0.0,0.0,0.0,0.0,0.0,0.0,0.0,0.0,0.0,0.0,0.0,0.0,0.0,0.0,0.0,0.0,0.0,0.0,0.0,0.0,0.0,0.0,0.0,4.1976,4.2545,4.2447,4.2031,4.1547,0.0,0.0,0.0,0.0,0.0,0.0,0.0,0.0,0.0,4.4477,4.4429,4.4694,4.5364,4.5717,4.5828,4.578,4.6115,4.6102,4.5802,4.5802,4.5606,4.5303,4.5303,4.4464,4.3093,4.3005,4.2641,4.2082,0.0,0.0,0.0,0.0,4.2218,4.2473,0.0,0.0,0.0,0.0,0.0,0.0,0.0,0.0,0.0,0.0,0.0,0.0,3.9581,4.0426,4.114,4.1582,4.1825,4.1671,4.107,4.11,4.0865,4.0239,4.01,4.0135,4.0346,4.1202,4.2108,4.3152,4.3138,4.337,4.3831,4.3773,4.3509,4.3078,4.3031,4.1857,3.9913,3.9834,3.9486,3.8836,0.0,0.0,0.0,0.0,0.0,0.0,0.0,0.0,0.0,0.0,0.0,0.0,0.0,0.0,0.0,0.0,0.0,0.0,0.0,0.0,0.0,0.0,0.0,0.0,0.0,0.0,0.0,0.0,0.0,0.0,0.0,0.0,0.0,0.0,0.0,0.0,0.0,4.2623,4.3004,4.2636,4.281,4.2636,0.0,0.0,0.0,0.0,0.0,0.0,4.3925,4.3925,4.4501,4.5699,4.5652,4.6035,4.698,4.6998,4.6998,4.6998,4.6998,4.6795,4.6405,4.6405,4.6168,4.5716,4.5716,4.5428,4.4871,4.4386,4.4095,4.3853,4.3283,4.3059,4.3143,4.3432,4.3575,4.3795,0.0,0.0,0.0,0.0,0.0,0.0,0.0,0.0,0.0,0.0,0.0,4.0216,4.0249,4.1426,4.2228,4.2236,4.2961,4.3301,4.307,4.3242,4.3249,4.2994,4.2507,4.2623,4.3463,4.3898,4.3855,4.3298,4.391,4.4204,4.4192,4.3987,4.3831,4.3752,4.3672,4.2682,4.1022,4.0833,4.0434,3.9855,3.8987,0.0,0.0,0.0,0.0,0.0,0.0,0.0,0.0,0.0,0.0,0.0,0.0,0.0,0.0,0.0,0.0,0.0,0.0,0.0,0.0,0.0,0.0,0.0,0.0,0.0,0.0,0.0,0.0,0.0,0.0,0.0,0.0,0.0,0.0,0.0,0.0,0.0,0.0,4.4555,4.4746,0.0,0.0,0.0,0.0,4.3775,4.3857,4.4417,4.5606,4.5664,4.606,4.6886,4.6903,4.6921,4.6998,4.6998,4.6998,4.6998,4.6998,4.6998,4.6957,4.6957,4.6934,4.6911,4.6911,4.6893,4.6717,4.4955,4.3784,4.3136,4.2976,4.2984,4.322,4.4317,4.485,4.5199,0.0,0.0,0.0,0.0,0.0,0.0,0.0,0.0,3.8665,3.9556,4.0371,4.1228,4.2196,4.3078,4.3847,4.4492,4.48,4.4809,4.4453,4.4498,4.4043,4.2987,4.3197,4.3834,4.4853,4.4839,4.5051,4.5555,4.5534,4.5468,4.5372,4.5285,4.4957,4.4384,4.4367,4.3539,4.2197,4.2211,4.1621,4.0685,4.0459,3.9804,0.0,0.0,0.0,0.0,0.0,0.0,0.0,0.0,0.0,0.0,0.0,0.0,0.0,0.0,0.0,0.0,0.0,0.0,0.0,0.0,0.0,0.0,0.0,0.0,0.0,0.0,0.0,0.0,0.0,0.0,0.0,0.0,0.0,0.0,0.0,0.0,0.0,4.4692,4.5169,0.0,4.4436,4.4655,4.4933,4.511,4.5612,4.609,4.6551,4.6569,4.6694,4.698,4.6998,4.6998,4.6998,4.6998,4.6998,4.6998,4.6998,4.6998,4.6998,4.6998,4.6998,4.6998,4.6998,4.6998,4.6939,4.6295,4.5853,4.5605,4.5558,4.5582,4.5664,4.6064,4.6258,4.6381,0.0,0.0,0.0,0.0,0.0,0.0,0.0,0.0,3.9286,4.0438,4.1347,4.2355,4.3583,4.4354,4.5069,4.5734,4.5938,4.5909,4.5694,4.5335,4.4712,4.3792,4.416,4.4781,4.5577,4.5687,4.61,4.6865,4.659,4.6381,4.6211,4.6211,4.5844,4.5205,4.5152,4.4574,4.3568,4.361,4.2783,4.1421,4.1212,4.0633,3.9826,0.0,0.0,0.0,0.0,0.0,0.0,0.0,0.0,0.0,0.0,0.0,0.0,0.0,0.0,0.0,0.0,0.0,0.0,0.0,0.0,0.0,0.0,0.0,0.0,0.0,0.0,0.0,0.0,0.0,0.0,0.0,0.0,0.0,0.0,0.0,4.5517,4.4692,4.5552,4.5891,4.5088,4.5731,4.6195,4.6195,4.6671,4.6934,4.6998,4.6975,4.6957,4.6998,4.6998,4.6998,4.6998,4.6998,4.6998,4.6998,4.6998,4.6998,4.6998,4.6998,4.6998,4.6998,4.6998,4.6998,4.6998,4.6998,4.6998,4.6998,4.6998,4.6998,4.6998,4.6998,4.6998,4.6998,0.0,0.0,0.0,0.0,0.0,0.0,0.0,3.9289,4.029,4.1154,4.2406,4.3508,4.4259,4.5224,4.5811,4.5837,4.6186,4.6519,4.6761,4.5822,4.5374,4.5606,4.5511,4.5577,4.5838,4.6587,4.6998,4.698,4.6998,4.6865,4.659,4.659,4.6471,4.6186,4.6062,4.5674,4.5108,4.4974,4.3848,4.2078,4.1231,4.1195,4.148,0.0,0.0,0.0,0.0,0.0,0.0,0.0,0.0,0.0,0.0,0.0,0.0,0.0,0.0,0.0,0.0,0.0,0.0,0.0,0.0,0.0,0.0,0.0,0.0,0.0,0.0,0.0,0.0,0.0,0.0,0.0,0.0,0.0,4.4728,4.5316,4.5552,4.4763,4.6052,4.6694,4.5887,4.6534,4.6998,4.6998,4.6865,4.6865,4.6998,4.6865,4.6865,4.6998,4.6998,4.702,4.7002,4.702,4.702,4.7002,4.702,4.6998,4.6998,4.6998,4.6998,4.6998,4.6998,4.6998,4.6998,4.6998,4.6998,4.6998,4.6998,4.6998,4.6998,4.6998,4.6998,4.6998,0.0,0.0,0.0,0.0,0.0,0.0,0.0,3.9216,4.021,4.2389,4.3091,4.392,4.5232,4.5715,4.6168,4.6701,4.6747,4.6753,4.6739,4.6442,4.623,4.6097,4.6076,4.6255,4.6659,4.6873,4.6934,4.6865,4.6934,4.6801,4.6471,4.6566,4.6471,4.6211,4.6161,4.5802,4.525,4.5214,4.4567,4.3551,4.2895,4.265,4.266,0.0,0.0,0.0,0.0,0.0,0.0,0.0,0.0,0.0,0.0,0.0,0.0,0.0,0.0,0.0,0.0,0.0,0.0,0.0,0.0,0.0,0.0,0.0,0.0,0.0,0.0,0.0,0.0,0.0,0.0,0.0,0.0,4.5425,4.5212,4.6046,4.6519,4.6086,4.6529,4.673,4.6406,4.6583,4.6708,4.6708,4.6772,4.6819,4.6865,4.6911,4.6957,4.6998,4.6998,4.7143,4.7417,4.7143,4.7143,4.7417,4.7143,4.6998,4.6998,4.6998,4.6998,4.6998,4.6998,4.6998,4.6998,4.6998,4.6998,4.6998,4.6998,4.6998,4.6998,4.6998,4.6998,4.6998,0.0,0.0,0.0,0.0,0.0,0.0,0.0,3.9375,4.0407,4.2882,4.3385,4.4014,4.5399,4.5912,4.6339,4.6817,4.6605,4.6629,4.6963,4.6672,4.6502,4.6509,4.6305,4.6536,4.7187,4.7025,4.6888,4.6795,4.6888,4.6795,4.6566,4.6637,4.6637,4.6542,4.6405,4.6168,4.5835,4.5708,4.5433,4.4993,4.4305,4.386,4.3457,4.2929,4.2657,4.2551,4.223,4.1859,4.1478,4.1478,0.0,0.0,0.0,0.0,0.0,0.0,0.0,0.0,0.0,0.0,0.0,0.0,0.0,0.0,0.0,0.0,0.0,0.0,0.0,0.0,0.0,0.0,0.0,0.0,4.6089,4.6529,4.642,4.6645,4.6754,4.6613,4.6661,4.6708,4.6684,4.6835,4.6954,4.6999,4.72,4.7335,4.7378,4.7262,4.7196,4.7258,4.7258,4.7371,4.7591,4.7545,4.7545,4.7611,4.7524,4.7323,4.702,4.7169,4.7165,4.6998,4.6998,4.6998,4.6998,4.6998,4.6998,0.0,0.0,0.0,0.0,0.0,4.6998,4.6998,0.0,0.0,0.0,0.0,0.0,0.0,0.0,3.9542,4.0688,4.2832,4.3336,4.394,4.5111,4.5938,4.6376,4.6377,4.6119,4.6313,4.7149,4.663,4.6433,4.6753,4.646,4.6668,4.7472,4.7007,4.6772,4.6754,4.6772,4.6772,4.6795,4.6778,4.6865,4.6998,4.6731,4.6637,4.6637,4.6357,4.6235,4.6137,4.5451,4.4783,4.4147,4.3508,4.3294,4.3265,4.2645,4.2385,4.2317,4.2317,0.0,0.0,0.0,0.0,0.0,0.0,0.0,0.0,0.0,0.0,0.0,0.0,0.0,0.0,0.0,0.0,0.0,0.0,0.0,0.0,0.0,0.0,0.0,0.0,4.753,4.808,4.7848,4.719,4.6737,4.6719,4.6742,4.6806,4.6898,4.7248,4.7491,4.7614,4.7862,4.8042,4.8176,0.0,0.0,0.0,0.0,4.7695,4.7738,4.804,4.804,4.7738,4.8059,4.7838,4.7143,4.7503,4.7482,4.7138,4.7138,4.7116,4.707,4.707,4.7048,4.6998,4.6998,4.6998,4.6998,4.6998,4.6998,4.6998,0.0,0.0,0.0,0.0,0.0,0.0,0.0,3.8984,4.012,4.2198,4.3078,4.4014,4.5356,4.5963,4.6099,4.5737,4.596,4.6103,4.603,4.6544,4.6743,4.6559,4.7132,4.744,4.7323,4.6893,4.659,4.6495,4.659,4.6637,4.6637,4.6731,4.6865,4.6998,4.6952,4.6911,4.6911,4.6637,4.6405,4.6161,4.5794,4.5641,4.5554,4.5042,4.5148,4.56,4.5667,4.5302,4.481,4.481,4.4372,4.381,4.367,4.3617,0.0,0.0,0.0,0.0,0.0,0.0,0.0,0.0,0.0,0.0,0.0,0.0,0.0,0.0,0.0,0.0,0.0,0.0,0.0,4.691,4.7414,4.7844,4.7945,4.7681,4.7515,4.7563,4.7663,4.7702,4.7604,4.7666,4.7727,4.7747,4.7906,4.8023,4.8042,4.8041,4.8059,4.8079,4.8079,4.8233,4.8568,4.8328,4.8328,4.8568,0.0,0.0,4.7961,4.804,4.804,4.7979,4.7979,4.7797,4.7482,4.7482,4.7284,4.6998,4.6998,4.6998,4.6998,4.6998,4.6998,4.6998,0.0,0.0,0.0,0.0,0.0,0.0,0.0,3.8574,3.9489,4.1507,4.2235,4.299,4.4113,4.4687,4.4834,4.4571,4.5118,4.5477,4.5356,4.62,4.6799,4.7039,4.7226,4.7288,4.7196,4.6737,4.6495,4.6495,4.6495,4.6525,4.659,4.659,4.6725,4.6888,4.6888,4.6952,4.6998,4.6865,4.6637,4.6398,4.6112,4.5963,4.5862,4.5503,4.5529,4.5829,4.6087,4.5958,4.5642,4.5642,4.5378,4.4975,4.463,4.4507,4.4302,0.0,0.0,0.0,0.0,0.0,0.0,0.0,0.0,0.0,0.0,0.0,0.0,0.0,0.0,4.5865,0.0,0.0,4.7406,4.8043,4.8344,4.8549,4.8639,4.8621,4.8403,4.7868,4.7868,4.7906,4.7906,4.8083,4.8217,4.8292,4.8586,4.8711,4.8657,4.8513,4.844,4.844,4.8421,4.8513,4.8747,4.8712,4.8694,4.8694,4.873,4.8532,4.8155,4.8384,4.8384,4.8195,4.8195,4.8079,4.7901,4.7901,4.7797,4.7588,4.7371,4.7187,4.6998,4.6998,4.6998,4.6998,0.0,0.0,0.0,0.0,0.0,0.0,0.0,3.8238,3.8902,4.0641,4.1248,4.1835,4.2621,4.3269,4.3593,4.3436,4.4068,4.455,4.4758,4.578,4.6672,4.7324,4.7071,4.6931,4.7017,4.6643,4.6495,4.659,4.6495,4.6477,4.659,4.6495,4.6566,4.6795,4.6754,4.6842,4.6998,4.6865,4.6684,4.6477,4.6161,4.593,4.5701,4.5485,4.5423,4.5511,4.576,4.5887,4.5887,4.5887,4.5912,4.5858,4.5246,4.4998,4.4662,4.3441,4.3358,0.0,0.0,0.0,0.0,0.0,0.0,0.0,0.0,0.0,4.4924,4.5801,4.625,4.6796,4.7841,4.7971,4.8209,4.918,4.9324,4.9308,4.9324,4.9409,4.9144,4.8235,4.8122,4.8178,4.8272,4.8567,4.878,4.8885,4.9244,4.9393,4.9292,4.8974,4.8801,4.8818,4.8748,4.8784,4.8853,4.9129,4.9096,4.8785,4.9144,4.8991,4.8384,4.8765,4.8765,4.844,4.8347,4.8309,4.8309,4.8233,4.8195,4.8157,4.784,4.7524,4.7214,4.7143,4.7165,4.7236,0.0,0.0,0.0,0.0,0.0,0.0,0.0,0.0,3.8622,3.9491,4.0548,4.1441,4.1977,4.286,4.3269,4.2845,4.3101,4.3461,4.3914,4.5429,4.6348,4.6436,4.673,4.6863,4.6753,4.6625,4.659,4.659,4.659,4.659,4.659,4.659,4.6661,4.6778,4.6684,4.6754,4.6957,4.6357,4.6161,4.6211,4.5675,4.5476,4.545,4.5423,4.5537,4.5786,4.6062,4.6161,4.6161,4.6161,4.6308,4.6501,4.6412,4.6058,4.5467,4.4458,4.3565,4.267,4.159,4.2353,4.365,4.4296,4.5055,4.5975,0.0,0.0,4.7022,4.8159,4.845,4.8644,4.9211,4.9277,4.9315,4.9474,4.9374,4.934,4.9459,4.939,4.9308,4.9311,4.9311,4.9311,4.9327,4.9276,4.9241,4.9241,4.9228,4.923,4.9211,4.9162,4.9179,4.9225,4.9225,4.9276,4.9412,4.9443,4.9443,4.9412,4.9459,4.9427,4.9345,4.9393,4.9393,4.9345,4.8903,4.8728,4.8711,4.8347,4.8195,4.8195,4.8157,4.8098,4.802,4.7674,4.7756,4.8078,0.0,0.0,0.0,0.0,0.0,0.0,0.0,0.0,0.0,3.8683,3.9193,3.9844,4.0682,4.1408,4.1795,4.1644,4.2587,4.3279,4.3554,4.5107,4.5995,4.5995,4.6168,4.6217,4.6186,4.6308,4.6423,4.6477,4.6566,4.6637,4.6708,4.6637,4.6661,4.6778,4.6661,4.6661,4.6731,4.6381,4.6137,4.5938,4.5727,4.5537,4.5397,4.5397,4.5209,4.4965,4.5242,4.5341,0.0,4.5341,4.5415,4.547,4.547,4.5332,4.4918,4.3767,4.3422,4.3527,4.3935,4.415,4.4554,0.0,4.6283,4.6709,4.7352,4.7444,4.7658,4.8614,4.9006,4.9279,4.9459,4.9443,4.9374,0.0,4.9324,4.9324,4.9374,4.939,4.9443,4.949,4.9424,4.9374,4.9374,4.9324,4.9273,4.9244,4.926,4.9244,4.9195,4.9228,4.9276,4.9308,4.926,4.9276,4.9374,4.9327,4.9329,4.9329,4.9358,4.9374,4.9374,4.9474,4.9509,4.9493,4.9276,4.9211,4.9193,4.9044,4.8957,4.894,4.8658,4.873,4.887,4.8195,4.8059,4.8195,0.0,0.0,0.0,0.0,0.0,0.0,0.0,0.0,0.0,0.0,3.8238,3.8668,3.9671,4.0154,4.0444,4.059,4.1931,4.2915,4.3272,4.4576,4.5416,4.5641,4.5744,4.5795,4.5744,4.6038,4.6259,4.6332,4.6429,4.6518,4.659,4.6495,4.6495,4.6566,4.6447,4.6423,4.6495,4.6277,4.6038,4.5786,4.5727,4.5572,4.538,4.5156,4.4768,4.4337,4.4522,4.4458,4.4302,4.4302,4.4334,4.4366,4.4366,4.4276,4.3965,4.2964,4.2905,4.3469,4.4868,4.5153,0.0,4.6746,4.7388,4.768,4.768,4.7961,4.835,4.8876,4.926,4.9509,4.9509,4.9424,4.9358,4.9358,4.9358,4.9358,4.9358,4.944,4.9493,4.9459,4.939,4.9343,4.9244,4.9228,4.9228,4.9195,4.923,4.9228,4.9195,4.9244,4.9292,4.9308,4.926,4.926,4.934,4.9311,4.9279,4.9279,4.9343,4.9358,4.9358,4.9459,4.9509,4.9509,4.9509,4.9509,4.9509,4.9509,4.9509,4.9459,4.9127,4.9193,4.9427,4.8801,4.8568,4.8568,0.0,0.0,0.0,0.0,0.0,0.0,0.0,0.0,0.0,0.0,0.0,0.0,0.0,3.948,3.9688,3.9817,4.0959,4.2047,4.2953,4.3726,4.4465,4.5186,4.558,4.5735,4.5606,4.5988,4.6211,4.6211,4.6211,4.6161,4.6038,4.6013,4.6013,4.6013,4.5879,4.5955,4.6186,4.5795,4.5675,4.5786,4.5511,4.5397,4.5311,4.4596,4.4328,4.4311,4.4311,4.3845,4.3249,4.3249,4.3388,4.353,4.353,4.3208,4.281,4.2492,4.1876,0.0,0.0,0.0,4.5773,4.7,4.8373,4.9421,4.9421,4.9456,4.9456,4.9474,4.949,4.9509,4.9509,4.9509,4.949,4.949,4.949,4.949,4.949,4.9509,4.9459,4.9324,4.9424,4.9396,0.0,4.9101,4.9133,4.9197,4.9133,4.9133,4.9197,4.9195,4.9228,4.9308,4.9308,4.9358,4.949,4.949,4.949,4.949,4.949,4.949,4.949,4.9509,4.9509,4.9509,4.9509,4.9509,4.9509,4.9509,4.9509,4.9509,4.9474,4.9493,4.9509,4.9459,4.9459,4.9459,0.0,0.0,0.0,0.0,0.0,0.0,0.0,0.0,0.0,0.0,0.0,0.0,0.0,0.0,0.0,0.0,4.0217,4.0869,4.1191,4.2729,4.3741,4.3997,4.4981,4.5511,4.5459,4.576,4.5938,4.5938,4.6112,4.6186,4.6137,4.6137,4.6137,4.6137,4.5988,4.5938,4.5912,4.5693,4.5563,4.5537,4.545,4.5113,4.463,4.4397,4.3672,4.2775,0.0,4.262,4.2413,4.2413,4.2445,4.25,4.25,4.21,0.0,4.138,0.0,0.0,0.0,0.0,4.7036,4.8425,4.9137,4.9509,4.9509,4.9509,4.9509,4.9509,4.9039,4.8626,4.8626,4.8626,4.8626,4.8626,4.9114,4.9509,4.9509,4.9509,4.9474,4.944,4.939,0.0,0.0,0.0,0.0,4.9133,4.9166,4.9197,4.926,4.9361,4.9409,4.9424,4.9424,4.944,4.9509,4.9509,4.9509,4.9509,4.9509,4.9509,4.9509,4.9509,4.9509,4.9509,4.9509,4.9509,4.9509,4.9509,4.9509,4.9509,4.9509,4.9509,4.9509,4.9509,4.9509,4.9509,0.0,0.0,0.0,0.0,0.0,0.0,0.0,0.0,0.0,0.0,0.0,0.0,0.0,0.0,0.0,0.0,0.0,4.0093,4.0342,4.1569,4.2415,4.2667,4.3501,4.3963,4.3963,4.4143,4.4231,4.4231,4.4889,4.5207,4.5207,4.5672,4.5905,4.5905,4.5829,4.5778,4.5709,4.5295,4.5114,4.5044,4.4742,4.432,4.388,4.3603,4.2861,0.0,4.1705,4.1619,4.1619,4.1619,4.1619,4.1619,4.1619,4.1352,0.0,0.0,0.0,0.0,0.0,4.6974,4.7776,4.9171,4.9509,4.9509,4.9509,4.9509,4.9509,4.9509,4.8814,4.8194,4.8194,4.8194,4.8101,4.7819,4.8476,4.9039,4.9039,4.9039,4.9118,4.9387,4.939,4.9324,0.0,0.0,0.0,4.9164,4.9214,4.9295,4.9374,4.944,4.9509,4.9509,4.9509,4.9509,4.9509,4.9509,4.9509,4.9509,4.9509,4.9509,4.9509,4.9509,4.9509,4.9509,4.9509,4.9509,4.9509,4.9509,4.9509,4.9509,4.9509,4.9509,4.9509,4.9509,4.9509,4.9509,0.0,0.0,0.0,0.0,0.0,0.0,0.0,0.0,0.0,0.0,0.0,0.0,0.0,0.0,0.0,0.0,0.0,0.0,4.0323,4.0315,4.0591,4.1299,4.1393,4.1438,4.1438,4.1438,4.1438,4.1438,4.2694,4.3339,4.3356,4.4633,4.5224,4.5224,4.5224,4.5303,4.5356,4.4552,4.4293,4.435,4.3541,4.3197,4.3076,4.2292,4.1981,4.1861,4.1153,4.0912,4.0912,4.0912,0.0,0.0,0.0,0.0,0.0,0.0,0.0,4.4329,4.6689,4.7558,4.8056,4.9206,4.949,4.9509,4.9493,4.949,4.949,4.9434,4.8739,4.8119,0.0,0.0,4.7894,4.7124,4.7706,4.8269,4.8269,4.8269,4.8521,0.0,0.0,0.0,0.0,0.0,0.0,4.9308,0.0,4.9358,4.949,4.9509,4.9509,4.9509,4.9509,4.9509,4.9509,4.9509,4.9509,4.9509,4.9509,4.9509,4.9509,4.9509,4.9509,4.9509,4.9509,4.9509,4.9509,4.9509,4.9509,4.9509,4.9509,4.9509,4.9509,4.9509,4.9509,4.9509,0.0,0.0,0.0,0.0,0.0,0.0,0.0,0.0,0.0,0.0,0.0,0.0,0.0,0.0,0.0,0.0,0.0,0.0,3.8545,3.9474,4.0087,4.0268,4.1244,4.1776,4.1776,4.1776,4.1776,4.1776,4.2097,4.228,4.2297,4.2618,4.2774,4.2774,4.2774,4.2801,4.2864,4.3022,4.3134,4.3151,4.3348,4.3024,4.2431,4.2241,4.176,4.117,4.0981,4.0912,4.0912,0.0,0.0,0.0,0.0,4.2447,4.2956,0.0,0.0,4.5663,4.7479,4.8392,4.8901,4.919,4.9377,4.9459,4.9295,4.9377,4.9321,4.8664,4.7875,4.7105,0.0,0.0,0.0,4.703,4.8232,0.0,4.9171,4.9171,0.0,4.9421,0.0,4.9474,4.9427,4.9443,0.0,0.0,4.9358,4.9358,4.949,4.9509,4.9509,4.9509,4.9509,4.9509,4.9509,4.9509,4.9509,4.9509,4.9509,4.9509,4.9509,4.9509,4.9509,4.9509,4.9509,4.9509,4.9509,4.9509,4.9509,4.9509,4.9509,4.9509,4.9509,4.9509,4.9509,4.9509,0.0,0.0,0.0,0.0,0.0,0.0,0.0,0.0,0.0,0.0,0.0,0.0,0.0,0.0,0.0,0.0,0.0,0.0,0.0,3.8646,3.9028,3.9028,3.9743,4.0137,4.0137,4.0137,4.0137,4.0137,4.0746,4.1034,4.105,4.1615,4.1902,4.1902,4.1902,4.193,4.1977,4.1897,4.1893,0.0,0.0,4.1836,4.1426,4.1646,4.141,4.0982,4.0935,4.1119,4.1447,0.0,0.0,4.2784,4.2927,4.3328,4.39,4.5007,0.0,4.6691,4.8131,4.8791,4.9062,4.9062,4.9214,4.9252,4.8728,4.8784,4.8683,4.7856,4.6952,0.0,4.5777,0.0,0.0,0.0,0.0,0.0,4.8927,4.8927,4.9077,0.0,4.9509,0.0,4.9509,4.9509,4.9509,0.0,4.9424,4.9424,4.9509,4.9509,4.9509,4.9509,4.9509,4.9509,4.9509,4.9509,4.9509,4.9509,4.9509,4.9509,4.9509,4.9509,4.9509,4.9509,0.0,4.9509,4.9509,4.9509,4.9509,4.9509,4.9509,4.9509,4.9509,4.9509,4.9509,4.9509,0.0,0.0,0.0,0.0,0.0,0.0,0.0,0.0,0.0,0.0,3.7344,0.0,0.0,0.0,0.0,0.0,0.0,0.0,0.0,0.0,3.7963,3.7963,3.7963,3.7963,3.7963,3.7963,3.7963,3.7963,3.9146,3.9706,3.9722,4.0879,4.1426,4.1426,4.1426,4.1492,4.155,4.0893,4.0635,4.0751,4.055,4.0424,4.049,0.0,4.1117,4.107,4.0959,4.1378,4.2137,0.0,4.3283,4.3462,4.3729,4.4144,4.4783,4.6155,4.6858,4.7426,4.8564,4.8891,4.8874,4.8874,4.9012,4.8922,4.8049,4.7991,4.7871,4.6952,0.0,4.5458,4.5461,4.6042,4.6352,4.5902,0.0,4.8217,4.8345,4.8363,4.8645,4.9415,4.9509,4.9509,4.9509,4.9509,4.9509,4.9509,4.9509,4.9509,4.9509,4.9509,4.9509,4.9509,4.9509,4.9509,4.9509,4.9509,4.9509,4.9509,4.9509,4.9509,4.9509,4.9509,4.9509,4.9509,4.9509,4.9509,4.9509,4.9509,4.9509,4.9509,4.9509,4.9509,4.9509,4.9509,4.9509,4.9509,0.0,0.0,0.0,0.0,0.0,0.0,0.0,0.0,0.0,0.0,3.6337,3.6906,0.0,0.0,0.0,0.0,0.0,0.0,0.0,0.0,0.0,3.8307,3.8209,3.8193,3.8307,3.8193,3.8193,3.8307,3.8549,3.8655,3.8655,3.8897,3.9002,3.9002,3.9002,3.903,3.907,3.9346,3.9495,3.9584,4.0402,4.0659,4.0611,4.1157,0.0,0.0,4.0959,4.1378,4.2137,4.293,4.3754,4.456,4.5194,4.5723,4.6269,4.7129,4.7454,4.7715,4.8641,4.8785,4.8641,4.8641,4.8803,4.8703,4.7712,4.7647,0.0,0.0,4.5369,4.5056,4.4399,4.4922,4.5696,4.6408,0.0,0.0,0.0,0.0,4.934,0.0,0.0,0.0,0.0,0.0,0.0,0.0,0.0,4.9509,4.9509,4.9509,4.9509,4.9509,4.9509,4.9509,4.9509,4.9509,4.9509,4.9509,4.9509,4.9509,4.9509,4.9509,4.9509,4.9509,4.9509,0.0,4.9509,4.9509,4.9509,4.9509,4.9509,4.9509,4.9509,4.9509,4.9509,4.9509,0.0,0.0,0.0,0.0,0.0,0.0,0.0,3.4731,3.485,3.5216,3.5317,3.577,3.6906,3.6936,3.7147,0.0,0.0,0.0,0.0,0.0,0.0,0.0,3.8351,3.8335,3.8391,3.8351,0.0,0.0,0.0,3.8391,3.8391,0.0,0.0,3.8504,3.842,3.842,3.8504,3.8711,3.8777,3.8843,3.9662,4.0103,4.0343,0.0,0.0,0.0,0.0,0.0,4.2068,4.2447,4.342,4.4636,4.5373,4.5938,4.6418,4.6776,4.7226,4.7695,4.8097,4.8326,4.8439,4.8439,4.8605,4.8417,4.7072,0.0,0.0,0.0,4.452,4.4358,4.4063,0.0,0.0,0.0,0.0,0.0,0.0,0.0,0.0,0.0,0.0,0.0,0.0,0.0,0.0,0.0,0.0,4.9281,4.9493,4.9393,4.9345,4.9345,4.923,4.923,4.9345,4.9345,4.9345,4.9345,4.9443,4.9509,4.9509,4.9509,4.9509,4.9509,4.9509,0.0,4.9509,4.9509,4.9509,4.9509,4.9509,4.9509,4.9509,4.9509,4.9509,4.9509,0.0,0.0,0.0,0.0,0.0,0.0,0.0,3.4731,3.4783,3.4902,3.4668,3.492,3.5929,3.6134,3.6461,0.0,0.0,0.0,0.0,0.0,0.0,0.0,0.0,0.0,0.0,0.0,0.0,0.0,0.0,0.0,0.0,0.0,0.0,0.0,0.0,0.0,3.8532,3.8448,3.8391,0.0,0.0,0.0,0.0,0.0,0.0,0.0,0.0,0.0,4.1792,4.1964,4.281,4.3949,4.4699,4.5336,4.5817,4.5898,4.655,4.725,4.7515,4.7937,4.8306,4.8306,4.842,4.8108,4.6503,4.6257,0.0,0.0,4.38,4.3769,4.3878,0.0,4.4781,0.0,4.6541,0.0,0.0,0.0,0.0,0.0,0.0,0.0,0.0,0.0,0.0,0.0,0.0,0.0,4.9345,4.923,4.9129,4.9129,4.8978,4.8995,4.9214,4.9214,4.923,4.9262,4.9427,4.9509,4.9509,4.9509,4.9509,4.9509,4.9509,0.0,0.0,4.9509,4.9509,4.9509,4.9509,4.9509,4.9509,4.9509,4.9509,4.9509,0.0,0.0,0.0,0.0,0.0,0.0,0.0,3.4868,3.4902,3.4902,3.4868,3.4868,3.485,3.5234,3.577,0.0,0.0,0.0,0.0,0.0,0.0,0.0,0.0,0.0,0.0,0.0,0.0,0.0,0.0,0.0,0.0,0.0,0.0,0.0,0.0,0.0,0.0,3.8408,0.0,0.0,0.0,0.0,0.0,0.0,0.0,0.0,0.0,0.0,0.0,0.0,0.0,4.2361,4.3155,4.3888,4.4576,4.4994,0.0,0.0,4.7286,4.7937,4.8306,4.8306,4.8306,4.7903,4.6305,0.0,0.0,4.388,4.3549,4.3532,4.3531,4.3604,4.395,4.4873,4.5776,4.6677,0.0,0.0,0.0,0.0,0.0,0.0,0.0,0.0,0.0,0.0,0.0,0.0,4.896,4.8943,4.8926,4.8926,4.8909,4.8995,4.9214,4.9214,4.9279,4.9474,4.949,4.9509,4.9509,4.9509,4.9509,4.9509,4.9509,0.0,0.0,4.9509,4.9509,4.9509,4.9509,4.9509,4.9509,4.9509,4.9509,4.9509,0.0,0.0,0.0,0.0,0.0,0.0,3.4902,3.4902,3.4902,3.4902,3.4902,3.4868,3.485,3.4902,3.5201,3.5738,0.0,0.0,0.0,0.0,0.0,0.0,0.0,0.0,0.0,0.0,0.0,0.0,0.0,0.0,0.0,0.0,0.0,0.0,0.0,0.0,0.0,0.0,0.0,0.0,0.0,0.0,0.0,0.0,0.0,0.0,0.0,0.0,0.0,0.0,0.0,0.0,4.1861,4.2327,0.0,0.0,4.5117,4.5922,4.6922,4.7733,4.8306,4.8306,4.7938,4.7278,4.6159,0.0,4.4856,4.3718,4.3515,4.3515,4.3515,4.3515,4.3624,4.404,4.488,0.0,0.0,0.0,0.0,0.0,0.0,0.0,0.0,0.0,0.0,0.0,0.0,0.0,4.855,4.866,4.8732,4.8732,4.8605,4.8642,4.8838,4.8959,4.9062,4.9148,4.9377,4.9509,4.9509,4.9509,4.9509,4.9509,4.9509,0.0,0.0,4.9509,4.9509,4.9509,4.9509,4.9509,4.9509,4.9509,4.9509,4.9509,0.0,0.0,0.0,0.0,0.0,3.5082,3.5082,3.5082,3.5082,3.5082,3.5082,3.5034,3.5001,3.4883,3.4949,3.5219,3.5335,0.0,0.0,0.0,0.0,0.0,0.0,0.0,0.0,0.0,3.7727,3.8391,3.8391,0.0,0.0,0.0,0.0,0.0,0.0,0.0,0.0,0.0,0.0,0.0,0.0,0.0,0.0,0.0,0.0,0.0,0.0,0.0,0.0,0.0,0.0,0.0,0.0,4.1257,4.1947,0.0,4.4347,4.5361,4.6297,4.7304,4.8132,4.8267,4.77,4.6892,0.0,0.0,4.447,4.3663,4.3515,4.3515,4.3515,4.3515,4.3515,4.3515,4.428,4.4899,4.4899,0.0,0.0,0.0,0.0,0.0,0.0,0.0,0.0,0.0,0.0,0.0,4.8306,4.842,4.8514,4.8514,4.8382,4.8401,4.8587,4.875,4.8838,4.8909,4.9181,4.9313,4.9313,4.9313,4.9313,4.9329,4.9396,0.0,0.0,4.9493,4.9509,4.9509,4.9509,4.9509,4.9509,4.9509,4.9509,4.9509,0.0,0.0,0.0,0.0,0.0,0.0,3.5504,3.5504,3.5504,3.5504,3.5504,3.5439,3.5213,3.518,3.5115,3.4935,3.5219,0.0,0.0,0.0,0.0,0.0,0.0,0.0,0.0,0.0,3.7727,3.8391,3.8391,3.8391,3.8391,0.0,0.0,0.0,0.0,0.0,0.0,0.0,0.0,0.0,0.0,0.0,0.0,0.0,0.0,0.0,0.0,0.0,0.0,0.0,0.0,0.0,0.0,4.0912,4.1067,4.1809,4.2921,4.4189,4.5388,4.664,4.7715,4.8172,4.77,4.6892,0.0,0.0,4.447,4.3663,4.3515,4.3515,4.3515,4.3515,4.3515,4.3515,4.4176,4.4709,4.4709,0.0,0.0,0.0,0.0,0.0,0.0,0.0,0.0,0.0,0.0,0.0,4.8306,4.8306,4.8306,4.8306,4.8306,4.8401,4.8587,4.8605,4.8714,4.8909,4.8909,4.8909,4.8909,4.8909,4.8909,4.8926,0.0,0.0,0.0,4.9427,4.9509,4.9509,4.9509,4.9509,4.9509,4.9509,4.9509,4.9509,0.0,0.0,0.0,0.0,0.0,0.0,0.0,3.5504,3.5504,3.5504,3.5504,3.5472,3.5407,3.5294,3.518,3.5115,3.5085,0.0,0.0,0.0,0.0,0.0,0.0,0.0,0.0,3.6024,3.6368,3.7041,3.7041,3.7266,3.7727,3.7727,3.796,0.0,0.0,0.0,0.0,0.0,0.0,0.0,0.0,0.0,0.0,0.0,0.0,0.0,0.0,0.0,0.0,0.0,0.0,0.0,0.0,0.0,0.0,4.1188,0.0,0.0,4.4223,4.5,4.5651,4.6118,4.5634,4.5055,4.5077,0.0,4.3809,4.3551,4.3515,4.3515,4.3515,4.3515,4.3515,4.3515,4.3699,4.4066,0.0,0.0,0.0,0.0,0.0,0.0,0.0,0.0,0.0,0.0,0.0,0.0,4.8306,4.8306,4.8306,4.8306,4.8306,4.8325,4.8383,4.8532,4.8623,4.8714,4.882,4.8909,4.8909,4.8909,4.8909,0.0,0.0,0.0,0.0,4.9262,4.9377,4.9509,4.9509,4.9509,4.9509,4.9509,4.9509,4.9509,0.0,0.0,0.0,0.0,0.0,0.0,0.0,3.5504,3.5504,3.5504,3.5504,3.5504,3.5504,3.5392,3.5326,3.5326,3.518,0.0,0.0,0.0,0.0,0.0,0.0,0.0,3.5512,3.5512,3.5802,3.6415,3.6415,3.66,3.7027,3.7027,3.7237,3.7637,3.7637,0.0,0.0,0.0,0.0,0.0,0.0,0.0,3.8898,0.0,0.0,0.0,0.0,0.0,0.0,0.0,0.0,0.0,0.0,0.0,0.0,0.0,0.0,0.0,0.0,4.388,4.4444,4.4931,4.4558,0.0,0.0,0.0,4.3515,4.3515,4.3515,4.3515,4.3515,4.3515,4.3515,4.3515,4.3515,4.3773,0.0,0.0,0.0,0.0,0.0,0.0,0.0,0.0,0.0,0.0,0.0,0.0,4.8306,4.8306,4.8306,4.8306,4.8306,4.8306,4.8306,4.842,4.8495,4.8495,4.8624,4.8678,4.8678,4.8678,4.8678,0.0,0.0,0.0,0.0,4.9062,4.9164,4.9281,4.9281,4.9313,4.9377,4.9377,4.9443,4.9509,0.0,0.0,0.0,0.0,0.0,0.0,0.0,3.5504,3.5504,3.5504,3.5504,3.5504,3.5504,3.5504,3.5504,3.5504,0.0,0.0,0.0,0.0,0.0,0.0,0.0,0.0,3.5591,3.5623,3.5832,3.6259,3.6259,3.6291,3.6322,3.6322,3.6353,3.6415,3.6415,3.6768,0.0,0.0,0.0,0.0,0.0,0.0,0.0,0.0,0.0,0.0,0.0,0.0,0.0,0.0,0.0,0.0,0.0,0.0,0.0,0.0,0.0,0.0,0.0,0.0,0.0,0.0,0.0,0.0,0.0,0.0,0.0,4.3515,4.3515,4.3515,4.3515,4.3515,4.3515,4.3515,4.3551,0.0,0.0,0.0,0.0,0.0,0.0,0.0,0.0,0.0,0.0,0.0,0.0,0.0,4.8306,4.8306,4.8306,4.8306,4.8306,4.8306,4.8306,4.8306,4.8306,4.8306,4.8306,4.8306,4.8306,4.8306,4.8306,0.0,0.0,0.0,0.0,4.8803,4.8891,4.8909,4.8909,4.9012,4.9179,4.9179,4.9297,4.9459,0.0,0.0,0.0,0.0,0.0,0.0,0.0,0.0,0.0,0.0,3.5504,3.5504,3.5504,3.5504,3.5504,0.0,0.0,0.0,0.0,0.0,0.0,0.0,0.0,0.0,3.4702,3.4883,3.4902,3.4872,3.4872,3.5121,3.5642,3.5642,3.5929,3.6415,3.6415,3.6768,0.0,0.0,0.0,0.0,0.0,0.0,0.0,0.0,0.0,0.0,3.9348,3.9919,0.0,0.0,0.0,0.0,0.0,0.0,0.0,0.0,4.0912,0.0,0.0,0.0,0.0,0.0,0.0,0.0,0.0,0.0,0.0,0.0,0.0,0.0,0.0,4.3515,4.3515,4.3515,4.4011,4.4709,0.0,0.0,0.0,0.0,0.0,0.0,0.0,0.0,0.0,0.0,0.0,4.8306,4.8306,4.8306,4.8306,4.8306,4.8306,4.8306,4.8306,4.8306,4.8306,4.8306,4.8306,4.8306,4.8306,4.8306,4.8306,0.0,0.0,0.0,4.8605,4.8641,4.8767,4.8909,4.8909,4.8926,4.8978,4.8978,4.8995,4.9062,0.0,0.0,0.0,0.0,0.0,0.0,0.0,0.0,0.0,0.0,0.0,3.5504,3.5504,3.5504,0.0,0.0,0.0,0.0,0.0,0.0,0.0,0.0,0.0,3.4883,3.4549,3.4631,3.4597,3.4414,3.4414,3.4601,3.4938,3.4938,3.5121,3.5529,3.6134,3.66,0.0,0.0,0.0,0.0,3.8234,0.0,0.0,0.0,0.0,0.0,3.9044,3.962,0.0,4.0326,4.0676,4.1105,0.0,0.0,0.0,0.0,4.0912,0.0,0.0,0.0,0.0,0.0,0.0,0.0,0.0,0.0,0.0,0.0,0.0,0.0,0.0,0.0,0.0,0.0,4.4727,0.0,0.0,0.0,0.0,0.0,0.0,0.0,0.0,0.0,0.0,0.0,0.0,4.8306,4.8306,4.8306,4.8306,4.8306,4.8306,4.8306,4.8306,4.8306,4.8306,4.8306,4.8306,4.8306,4.8306,4.8306,4.8306,0.0,0.0,0.0,4.8458,4.8458,4.8532,4.8624,4.8624,4.8678,4.8767,4.8767,4.882,4.8926,0.0,0.0,0.0,0.0,0.0,0.0,0.0,0.0,0.0,0.0,0.0,0.0,0.0,0.0,0.0,0.0,0.0,0.0,0.0,0.0,0.0,0.0,3.5082,3.5049,3.4698,3.4731,3.4616,3.4414,3.4414,3.4414,3.4414,3.4414,3.4414,3.4433,3.5627,3.6228,3.6384,3.734,3.7972,0.0,3.8075,0.0,0.0,0.0,0.0,0.0,0.0,0.0,0.0,4.0111,4.0618,4.1163,4.0989,0.0,0.0,0.0,0.0,0.0,0.0,0.0,4.1073,4.1006,4.16,4.2218,0.0,0.0,0.0,0.0,0.0,0.0,0.0,4.425,0.0,0.0,0.0,0.0,0.0,0.0,0.0,0.0,0.0,0.0,0.0,0.0,0.0,0.0,0.0,4.8306,4.8306,4.8306,4.8306,4.8306,4.8306,4.8306,4.8306,4.8306,4.8306,4.8306,4.8306,4.8306,4.8306,4.8306,4.8306,4.8306,0.0,0.0,4.8306,4.8306,4.8306,4.8306,4.8306,4.8383,4.855,4.855,4.866,4.8803,0.0,0.0,0.0,0.0,0.0,0.0,0.0,0.0,0.0,0.0,0.0,0.0,0.0,0.0,0.0,0.0,0.0,0.0,0.0,0.0,0.0,3.4902,3.5082,3.5049,3.4698,3.4817,3.4716,3.4414,3.4414,3.4414,3.4414,3.4414,3.4414,3.4414,3.4861,3.5387,3.6024,3.6676,3.7368,3.8001,3.8234,0.0,0.0,0.0,0.0,0.0,0.0,0.0,0.0,3.9893,4.0466,4.1186,4.1099,0.0,0.0,0.0,0.0,0.0,4.0912,4.136,4.1767,4.1485,4.1799,4.23,4.2692,0.0,0.0,0.0,0.0,0.0,0.0,4.4618,4.4929,0.0,0.0,0.0,0.0,0.0,0.0,0.0,0.0,0.0,0.0,0.0,0.0,0.0,0.0,4.8306,4.8306,4.8306,4.8306,4.8306,4.8306,4.8306,4.8306,4.8306,4.8306,4.8306,4.8306,4.8306,4.8306,4.8306,4.8306,4.8306,0.0,4.8306,4.8306,4.8306,4.8306,4.8306,4.8306,4.8325,4.8344,4.8344,4.8363,4.842,0.0,0.0,0.0,0.0,0.0,0.0,0.0,0.0,0.0,0.0,0.0,0.0,0.0,0.0,0.0,0.0,0.0,0.0,0.0,0.0,3.5001,3.4902,3.5001,3.4916,3.4698,3.465,3.4534,3.4414,3.4414,3.4414,3.4414,3.4162,3.4025,3.3971,3.4476,3.5192,3.6025,3.6492,3.7249,3.8177,0.0,0.0,0.0,0.0,0.0,0.0,0.0,0.0,0.0,0.0,4.0351,4.1186,4.114,0.0,0.0,0.0,0.0,0.0,4.0912,4.1307,4.1852,4.24,4.2802,4.3186,4.3653,4.4112,0.0,0.0,0.0,0.0,0.0,0.0,0.0,0.0,0.0,0.0,0.0,0.0,0.0,0.0,0.0,0.0,0.0,0.0,0.0,0.0,0.0,0.0,4.8306,4.8306,4.8306,4.8306,4.8306,4.8306,4.8306,4.8306,4.8306,4.8306,4.8306,4.8306,4.8306,4.8306,4.8306,4.8306,0.0,4.8306,4.8306,4.8306,4.8306,4.8306,4.8306,4.8306,4.8306,4.8306,4.8306,4.8325,0.0,0.0,0.0,0.0,0.0,0.0,0.0,0.0,0.0,0.0,0.0,0.0,0.0,0.0,0.0,0.0,0.0,0.0,0.0,3.5001,3.4968,3.4968,3.4902,3.4817,3.4698,3.4563,3.4448,3.4414,3.4414,3.4467,3.4568,3.4438,3.4317,3.423,3.4629,3.5372,3.6291,3.6523,3.7265,3.8221,0.0,0.0,0.0,0.0,0.0,0.0,0.0,0.0,0.0,0.0,0.0,0.0,0.0,0.0,0.0,4.0912,4.0912,4.0912,4.0912,4.1256,4.1871,4.2959,4.3399,4.3806,4.4641,4.4953,4.505,0.0,0.0,0.0,0.0,4.5828,0.0,0.0,0.0,0.0,0.0,0.0,0.0,0.0,0.0,0.0,0.0,0.0,0.0,0.0,0.0,0.0,4.8306,4.8306,4.8306,4.8306,4.8306,4.8306,4.8306,4.8306,4.8306,4.8306,4.8306,4.8306,4.8306,4.8306,4.8306,4.8306,4.8306,4.8306,4.8306,4.8306,4.8306,4.8306,4.8306,4.8306,4.8306,4.8306,4.8306,4.8325,0.0,0.0,0.0,0.0,0.0,0.0,0.0,0.0,0.0,0.0,0.0,0.0,0.0,0.0,0.0,0.0,0.0,0.0,0.0,3.5294,3.518,3.518,3.4898,3.4698,3.4698,3.4698,3.4597,3.4414,3.4414,3.4668,3.5169,3.5752,3.6006,3.6006,3.5676,3.601,3.6829,3.6782,3.716,3.7788,3.8049,0.0,0.0,0.0,0.0,0.0,0.0,0.0,0.0,0.0,0.0,0.0,0.0,0.0,4.1047,4.0935,4.0912,4.0912,4.0912,4.1419,4.2098,4.2619,4.2852,4.3445,4.537,4.5205,4.4839,4.5553,0.0,0.0,0.0,4.7551,0.0,0.0,0.0,0.0,0.0,0.0,0.0,0.0,0.0,0.0,0.0,0.0,0.0,0.0,0.0,0.0,4.8306,4.8306,4.8306,4.8306,4.8306,4.8306,4.8306,4.8306,4.8306,4.8306,4.8306,4.8306,4.8306,4.8306,4.8306,4.8306,4.8306,4.8306,4.8306,4.8306,4.8306,4.8306,4.8306,4.8306,4.8306,4.8306,4.8306,4.8306,0.0,0.0,0.0,0.0,0.0,0.0,0.0,0.0,0.0,0.0,0.0,0.0,0.0,0.0,0.0,0.0,0.0,0.0,0.0,3.5261,3.5148,3.5001,3.4817,3.4631,3.4515,3.4515,3.4481,3.4414,3.4264,3.4385,3.4691,3.5041,3.5204,3.5222,3.5469,3.6135,3.7011,3.6889,3.734,3.8135,3.8164,3.8266,0.0,0.0,0.0,0.0,0.0,0.0,0.0,0.0,4.0252,4.0843,4.11,4.1152,4.107,4.0935,4.0912,4.0912,4.0912,4.1643,4.255,4.301,4.3368,4.4023,4.5698,4.5843,4.5774,4.6411,4.6425,0.0,0.0,0.0,0.0,0.0,0.0,0.0,0.0,0.0,0.0,0.0,0.0,0.0,0.0,0.0,0.0,0.0,0.0,0.0,4.8306,4.8306,4.8306,4.8306,4.8306,4.8306,4.8306,4.8306,4.8306,4.8306,4.8306,4.8306,4.8306,4.8306,4.8306,4.8306,4.8306,4.8306,4.8306,4.8306,4.8306,4.8306,4.8306,4.8306,4.8306,4.8306,4.8306,4.8306,0.0,0.0,0.0,0.0,0.0,0.0,0.0,0.0,0.0,0.0,0.0,0.0,0.0,0.0,0.0,0.0,0.0,0.0,3.5115,3.5148,3.5082,3.4835,3.4765,3.4597,3.4414,3.4264,3.4196,3.4196,3.4491,3.4743,3.499,3.5499,3.5708,3.5644,3.6104,3.6737,3.7445,3.7342,3.7711,3.8323,3.8237,3.825,0.0,0.0,0.0,0.0,0.0,0.0,0.0,0.0,4.0044,4.0546,4.1053,4.1157,4.1099,4.0959,4.1067,4.1257,4.1257,4.1857,4.2671,4.3533,4.3765,4.4261,4.599,4.6191,4.6255,4.7117,4.7166,4.7086,4.7128,0.0,0.0,0.0,0.0,0.0,0.0,0.0,0.0,0.0,0.0,0.0,0.0,0.0,0.0,0.0,0.0,0.0,0.0,4.8306,4.8306,4.8306,4.8306,4.8306,4.8306,4.8306,4.8306,4.8306,4.8306,4.8306,4.8306,4.8306,4.8306,4.8306,4.8306,4.8306,4.8306,4.8306,4.8306,4.8306,4.8306,4.8306,4.8306,4.8306,4.8306,4.8306,0.0,0.0,0.0,0.0,0.0,0.0,0.0,0.0,0.0,0.0,0.0,0.0,0.0,0.0,0.0,0.0,0.0,0.0,3.4935,3.5082,3.5063,3.4698,3.4698,3.4597,3.4414,3.4025,3.3805,3.3805,3.5163,3.5947,3.6227,3.7551,3.8078,3.7905,3.7905,3.802,3.8209,3.8209,3.8209,3.8209,3.8209,3.8209,3.818,0.0,0.0,0.0,0.0,0.0,0.0,0.0,3.9977,4.0666,4.1076,4.1209,4.1163,4.0965,4.1429,4.1999,4.1999,4.2016,4.2413,4.4068,0.0,0.0,4.6286,4.6185,4.6055,4.7575,4.7881,4.7881,4.7881,0.0,0.0,0.0,0.0,0.0,0.0,0.0,0.0,0.0,0.0,0.0,0.0,0.0,0.0,0.0,0.0,0.0,0.0,4.8306,4.8306,4.8306,4.8306,4.8306,4.8306,4.8306,4.8306,4.8306,4.8306,4.8306,4.8306,4.8306,4.8306,4.8306,4.8306,4.8306,4.8306,4.8306,4.8306,4.8306,4.8306,4.8306,4.8306,4.8306,4.8306,4.8306,0.0,0.0,0.0,0.0,0.0,0.0,0.0,0.0,0.0,0.0,0.0,0.0,0.0,0.0,0.0,0.0,0.0,0.0,3.4902,3.485,3.4683,3.4298,3.4128,3.4059,3.3991,3.4308,3.4629,3.4942,3.5661,3.6213,3.6554,3.7072,3.7328,3.7433,3.7889,3.8209,3.8335,3.8237,3.8209,3.818,3.8049,3.8078,3.8209,0.0,0.0,0.0,0.0,0.0,0.0,0.0,0.0,0.0,4.0919,4.1209,4.1163,4.0965,4.105,4.124,4.124,4.2016,0.0,4.3592,0.0,0.0,0.0,4.6623,0.0,0.0,4.784,4.7881,4.7881,0.0,0.0,0.0,0.0,0.0,0.0,0.0,0.0,0.0,0.0,0.0,0.0,0.0,0.0,0.0,0.0,0.0,0.0,4.8306,4.8306,4.8306,4.8306,4.8306,4.8306,4.8306,4.8306,4.8306,4.8306,4.8306,4.8306,4.8306,4.8306,4.8306,4.8306,4.8306,4.8306,4.8306,4.8306,4.8306,4.8306,4.8306,4.8306,4.8306,4.8306,4.8306,0.0,0.0,0.0,0.0,0.0,0.0,0.0,0.0,0.0,0.0,3.4968,3.4902,0.0,0.0,0.0,0.0,0.0,0.0,0.0,3.4501,3.4366,3.4128,3.3991,3.4011,3.4206,3.4996,3.558,3.5882,3.6166,3.6492,3.6891,3.7252,3.7447,3.7492,3.7992,3.8193,3.8193,3.8107,3.8123,3.8209,3.8049,3.8107,3.825,0.0,0.0,0.0,0.0,0.0,0.0,0.0,0.0,0.0,4.0594,4.103,4.1233,4.1375,4.1384,4.1481,4.2085,4.2723,0.0,4.4512,4.5231,4.5978,4.703,0.0,0.0,0.0,0.0,4.7819,4.7819,4.7759,0.0,0.0,0.0,0.0,0.0,0.0,0.0,0.0,0.0,0.0,0.0,0.0,0.0,0.0,0.0,0.0,0.0,4.8306,4.8306,4.8306,4.8306,4.8306,4.8306,4.8306,4.8306,4.8306,4.8306,4.8306,4.8306,4.8306,4.8306,4.8306,4.8306,4.8306,4.8306,4.8306,4.8306,4.8306,4.8306,4.8306,4.8306,4.8306,4.8306,4.8306,0.0,0.0,0.0,0.0,0.0,0.0,0.0,0.0,0.0,0.0,3.4868,3.4835,0.0,0.0,0.0,0.0,0.0,0.0,0.0,3.4099,3.4099,3.4059,3.4059,3.4288,3.4817,3.582,3.6492,3.6737,3.6768,3.6951,3.7284,3.7905,3.8107,3.7934,3.8107,3.8078,3.7934,3.7934,3.802,3.8209,3.8209,3.825,3.8379,3.8266,0.0,0.0,0.0,0.0,0.0,0.0,0.0,0.0,4.0211,4.0778,4.1325,4.1914,4.2037,4.2327,4.3707,4.3707,0.0,4.6216,4.6369,0.0,4.7688,4.7847,4.7699,4.7699,0.0,4.7717,4.7717,0.0,0.0,0.0,0.0,0.0,0.0,0.0,0.0,0.0,0.0,0.0,0.0,0.0,0.0,0.0,0.0,0.0,0.0,4.8306,4.8306,4.8306,4.8306,4.8306,4.8306,4.8306,4.8306,4.8306,4.8306,4.8306,4.8306,4.8306,4.8306,4.8306,4.8306,4.8306,4.8306,4.8306,4.8306,4.8306,4.8306,4.8306,4.8306,4.8306,4.8306,4.8306,0.0,0.0,0.0,0.0,0.0,0.0,0.0,0.0,0.0,0.0,0.0,0.0,0.0,0.0,0.0,0.0,0.0,0.0,0.0,3.4094,3.3991,3.3709,3.3709,3.4119,3.4922,3.5758,3.6707,3.7844,3.796,3.7931,3.7743,3.8049,3.818,3.8135,3.802,3.8078,3.8278,3.8164,3.8164,3.8209,3.8209,3.8237,3.8237,3.8209,3.818,0.0,0.0,0.0,0.0,0.0,0.0,0.0,4.0211,4.0778,4.1221,4.129,4.1639,4.2061,4.2413,4.3276,0.0,0.0,4.6822,4.7713,4.7955,4.7927,4.784,4.7717,4.7717,4.7717,0.0,0.0,0.0,0.0,0.0,0.0,0.0,0.0,0.0,0.0,0.0,0.0,0.0,0.0,0.0,0.0,0.0,0.0,4.8306,4.8306,4.8306,4.8306,4.8306,4.8306,4.8306,4.8306,4.8306,0.0,4.8306,4.8306,4.8306,4.8306,4.8306,4.8306,4.8306,4.8306,4.8306,4.8306,4.8306,4.8306,4.8306,4.8306,4.8306,4.8306,4.8306,4.8306,0.0,0.0,0.0,0.0,0.0,0.0,0.0,0.0,0.0,0.0,0.0,0.0,0.0,0.0,0.0,0.0,0.0,0.0,0.0,0.0,3.3493,3.3333,3.3646,3.4375,3.552,3.5994,3.686,3.8049,3.8221,3.8193,3.8049,3.8049,3.8107,3.8209,3.8078,3.8135,3.8294,3.8237,3.8209,3.8209,3.8209,3.8237,3.8294,3.8294,3.8266,3.818,3.7963,0.0,0.0,0.0,0.0,0.0,0.0,0.0,4.0935,4.1556,4.1648,4.1788,4.281,0.0,0.0,4.5861,0.0,4.7909,4.805,4.8006,4.7881,4.7819,0.0,0.0,0.0,0.0,0.0,0.0,0.0,0.0,0.0,0.0,0.0,0.0,0.0,0.0,0.0,0.0,0.0,0.0,0.0,4.8306,4.8306,4.8306,4.8306,4.8306,4.8306,4.8306,4.8306,4.8306,4.8306,4.8306,4.8306,4.8306,4.8306,4.8306,4.8306,4.8306,4.8306,4.8306,4.8306,4.8306,4.8306,4.8306,4.8306,4.8306,4.8306,4.8306,4.8306,4.8306,0.0,0.0,0.0,0.0,0.0,0.0,0.0,0.0,0.0,0.0,0.0,0.0,0.0,0.0,0.0,0.0,0.0,0.0,0.0,0.0,0.0,3.3108,3.3716,3.4691,3.5947,3.6182,3.6814,3.7876,3.8078,3.8209,3.8209,3.802,3.8049,3.8209,3.8209,3.8209,3.8221,3.8209,3.8209,3.8221,3.8221,3.8294,3.8391,3.8363,3.8294,3.818,3.7963,0.0,3.7671,3.7539,0.0,0.0,0.0,0.0,4.061,4.1715,4.1671,4.1676,4.3421,0.0,4.4046,4.6323,4.7218,0.0,4.8108,4.8067,4.7943,0.0,0.0,0.0,0.0,0.0,0.0,0.0,0.0,0.0,0.0,0.0,0.0,0.0,0.0,0.0,0.0,0.0,0.0,0.0,0.0,4.8306,4.8306,4.8306,4.8306,4.8306,4.8306,4.8306,4.8306,4.8306,4.8306,4.8306,4.8306,4.8306,4.8306,4.8306,4.8306,4.8306,4.8306,4.8306,4.8306,4.8306,4.8306,4.8306,4.8306,4.8306,4.8306,4.8306,4.8306,4.8324,0.0,0.0,0.0,0.0,0.0,0.0,0.0,0.0,0.0,0.0,3.3556,3.3382,0.0,0.0,0.0,0.0,0.0,0.0,0.0,0.0,0.0,3.3521,3.3779,3.4419,3.5449,3.5802,3.6538,3.773,3.8049,3.8209,3.8209,3.818,3.8164,3.8209,3.8209,3.825,3.8379,3.8266,3.8266,3.8363,3.8363,3.8363,3.8408,3.825,3.8209,3.8151,3.7847,3.77,3.7671,3.7539,3.7943,0.0,0.0,0.0,4.0417,4.0495,4.1226,4.2085,0.0,0.0,4.5093,0.0,4.7266,4.7692,0.0,0.0,0.0,0.0,0.0,0.0,0.0,0.0,0.0,0.0,0.0,0.0,0.0,0.0,0.0,0.0,0.0,0.0,0.0,0.0,0.0,0.0,4.8267,4.8306,4.8306,4.8306,4.8306,4.8306,4.8306,4.8306,4.8306,4.8306,4.8306,4.8306,4.8306,4.8306,4.8306,4.8306,4.8306,4.8306,4.8306,4.8306,4.8306,4.8306,4.8306,4.8306,4.8306,4.8306,4.8306,4.8306,4.8306,4.8416,0.0,0.0,0.0,0.0,0.0,0.0,0.0,0.0,0.0,0.0,0.0,3.2966,0.0,0.0,0.0,0.0,0.0,0.0,0.0,0.0,0.0,3.3262,3.3556,3.4283,3.5482,3.585,3.6615,3.7817,3.7963,3.7934,3.7756,3.7756,3.7844,3.8033,3.8164,3.8164,3.8148,3.825,3.8294,3.8294,3.8294,3.8479,3.8698,3.821,3.8306,3.8566,3.7932,3.77,3.7671,3.7539,3.7685,3.8001,3.8379,0.0,0.0,0.0,4.0664,4.1315,4.2381,4.3623,4.491,0.0,4.6863,4.7313,4.7772,0.0,0.0,0.0,0.0,0.0,0.0,0.0,0.0,0.0,0.0,0.0,0.0,0.0,0.0,0.0,0.0,0.0,0.0,0.0,0.0,0.0,4.8267,4.8306,4.8306,4.8306,4.8306,4.8306,4.8306,4.8306,4.8306,4.8306,4.8306,4.8306,4.8306,4.8306,4.8306,4.8306,4.8306,4.8306,4.8306,4.8306,4.8306,4.8306,4.8306,4.8306,4.8306,4.8306,4.8306,4.8306,4.8306,4.8416,0.0,0.0,0.0,0.0,0.0,0.0,0.0,0.0,0.0,0.0,0.0,0.0,0.0,0.0,0.0,0.0,0.0,0.0,0.0,0.0,0.0,0.0,3.3331,3.4143,3.5627,3.57,3.6445,3.7847,3.7743,3.761,3.7417,3.7506,3.7623,3.777,3.8033,3.8062,3.7988,3.8234,3.825,3.8123,3.8344,3.8643,3.8958,3.8547,3.8709,3.9076,3.8225,3.7912,3.785,3.7603,3.751,3.7642,3.8157,3.8407,0.0,0.0,0.0,4.0813,0.0,0.0,4.4125,4.5544,4.6159,4.6618,0.0,0.0,0.0,0.0,0.0,0.0,0.0,0.0,0.0,0.0,0.0,0.0,0.0,0.0,0.0,0.0,0.0,0.0,0.0,0.0,0.0,0.0,4.8267,4.8306,4.8306,4.8306,4.8306,4.8306,4.8306,4.8306,4.8306,4.8306,4.8306,4.8306,4.8306,4.8306,4.8306,4.8306,4.8306,4.8306,4.8306,4.8306,4.8306,4.8306,4.8306,4.8306,4.8306,4.8306,4.8306,4.8306,4.8434,4.8746,0.0,0.0,0.0,0.0,0.0,0.0,0.0,0.0,0.0,0.0,0.0,0.0,3.2739,3.3016,3.3122,3.2775,0.0,0.0,0.0,0.0,0.0,0.0,0.0,0.0,3.5834,3.5149,3.5738,3.77,3.7373,3.7298,3.7417,3.774,3.7695,3.7447,3.777,3.8017,3.8209,3.8193,3.8094,3.7998,3.867,3.8974,3.907,3.9511,3.972,3.9625,3.8774,3.846,3.8365,3.7731,0.0,3.7716,3.773,3.8173,3.8805,0.0,0.0,0.0,0.0,4.2282,0.0,4.4605,0.0,0.0,0.0,0.0,0.0,0.0,0.0,0.0,0.0,0.0,0.0,0.0,0.0,0.0,0.0,0.0,0.0,0.0,0.0,0.0,0.0,0.0,0.0,0.0,4.8267,4.8306,4.8306,4.8306,4.8306,4.8306,4.8306,4.8306,4.8306,4.8306,4.8306,4.8306,4.8306,4.8306,4.8306,4.8306,4.8306,4.8306,4.8306,4.8306,4.8306,4.8306,4.8306,4.8306,4.8306,4.8306,4.8306,4.8306,4.882,4.9665,0.0,0.0,0.0,0.0,0.0,0.0,0.0,0.0,0.0,0.0,0.0,0.0,0.0,3.281,3.286,3.2704,3.281,0.0,0.0,0.0,0.0,0.0,0.0,0.0,3.537,3.5764,3.6536,3.77,3.7671,3.7626,3.7596,3.7714,3.7639,3.7417,3.7873,3.8004,3.7876,3.7963,3.7905,3.7823,3.8537,3.9019,3.9278,3.9042,3.9533,4.0135,3.8934,3.8507,3.8476,0.0,0.0,0.0,3.7671,3.7801,3.8144,3.9172,4.0351,0.0,0.0,0.0,0.0,4.3583,0.0,0.0,0.0,0.0,0.0,0.0,0.0,0.0,0.0,0.0,0.0,0.0,0.0,0.0,0.0,0.0,0.0,0.0,0.0,0.0,0.0,0.0,0.0,0.0,0.0,4.8306,4.8306,4.8306,4.8306,4.8306,4.8306,4.8306,4.8306,4.8306,4.8306,4.8306,4.8306,4.8306,4.8306,4.8306,4.8306,4.8306,4.8306,4.8306,4.8306,4.8306,4.8306,4.8306,4.8306,4.8306,4.8306,4.8306,4.8838,4.9721,0.0,0.0,0.0,0.0,0.0,0.0,0.0,0.0,3.3619,3.3138,0.0,0.0,0.0,0.0,3.2704,3.2704,3.2704,3.2775,3.2881,3.2775,0.0,0.0,0.0,0.0,3.5257,3.592,3.6763,3.77,3.7567,3.7449,3.7359,3.7182,3.7182,3.7342,3.7278,3.74,3.7596,3.7759,3.7759,3.7692,3.8596,3.9042,3.9171,3.9202,3.9645,4.0119,3.9249,3.8932,0.0,0.0,0.0,0.0,3.8189,3.821,3.8451,3.9289,0.0,0.0,4.1777,0.0,0.0,0.0,0.0,0.0,0.0,0.0,0.0,0.0,0.0,0.0,0.0,0.0,0.0,0.0,0.0,0.0,0.0,0.0,0.0,0.0,0.0,0.0,0.0,0.0,0.0,0.0,0.0,0.0,4.8306,4.8306,4.8306,4.8306,4.8306,4.8306,4.8306,4.8306,4.8306,4.8306,4.8306,4.8306,4.8306,4.8306,4.8306,4.8306,4.8306,4.8306,4.8306,4.8306,4.8306,4.8306,4.8306,4.8306,4.8306,4.8306,4.9022,5.0068,0.0,0.0,0.0,0.0,0.0,0.0,0.0,0.0,3.5011,3.4596,0.0,0.0,0.0,0.0,0.0,3.2797,3.2761,3.2761,3.2761,3.2761,3.2761,3.2761,3.3225,3.4147,3.5599,3.5585,3.6252,3.7671,3.7029,3.6708,3.6677,3.6145,3.6355,3.7098,3.5922,3.6121,3.7354,3.7533,3.7565,3.7589,3.8918,3.9092,3.8697,4.0072,4.0166,0.0,3.9769,3.9815,0.0,4.0047,0.0,0.0,0.0,0.0,0.0,0.0,0.0,0.0,0.0,0.0,0.0,0.0,0.0,0.0,0.0,0.0,0.0,0.0,0.0,0.0,0.0,0.0,0.0,0.0,0.0,0.0,0.0,0.0,0.0,0.0,0.0,0.0,0.0,0.0,0.0,0.0,4.8306,4.8306,4.8306,4.8306,4.8306,4.8306,4.8306,4.8306,4.8306,4.8306,4.8306,4.8306,4.8306,4.8306,4.8306,4.8306,4.8306,4.8306,4.8306,4.8306,4.8306,4.8306,4.8306,4.8306,4.8306,4.8306,4.8306,4.8306,4.937,5.0802,0.0,0.0,0.0,0.0,0.0,3.5996,3.6168,3.6127,3.5892,0.0,0.0,0.0,3.4769,3.4695,3.4681,3.4798,3.4655,3.4574,3.4574,3.4426,3.4321,3.423,3.4934,3.5528,3.5963,3.6613,3.7081,3.7344,3.7254,3.6973,3.6485,3.6411,3.6216,3.589,3.5637,3.5612,3.5744,3.5947,3.6276,3.6832,3.8223,3.8965,0.0,0.0,0.0,0.0,0.0,4.0134,3.9723,0.0,3.9698,3.83,0.0,0.0,0.0,0.0,0.0,0.0,4.1255,0.0,0.0,0.0,0.0,0.0,0.0,0.0,0.0,0.0,0.0,0.0,0.0,0.0,0.0,0.0,0.0,0.0,0.0,0.0,0.0,0.0,0.0,0.0,0.0,0.0,0.0,0.0,4.8306,4.8306,4.8306,4.8306,4.8306,4.8306,4.8306,4.8306,4.8306,4.8306,4.8306,4.8306,4.8306,4.8306,4.8306,4.8306,4.8306,4.8306,4.8306,4.8306,4.8306,4.8306,4.8306,4.8306,4.8306,4.8306,4.8306,4.8306,4.937,5.0802,0.0,0.0,0.0,0.0,0.0,3.683,3.7056,3.7099,3.6974,0.0,0.0,0.0,3.5314,3.5192,3.5175,3.5257,3.5163,3.5083,3.5083,3.497,3.4853,3.4732,3.5693,3.6198,3.6089,3.7072,3.7352,3.6859,3.6888,3.6654,3.6187,3.5691,3.5591,3.5704,3.496,3.4722,3.4849,3.4691,3.5308,0.0,3.8014,0.0,0.0,4.0262,4.0705,0.0,0.0,0.0,4.0198,4.1356,4.0363,0.0,0.0,0.0,0.0,0.0,0.0,0.0,0.0,0.0,0.0,0.0,0.0,0.0,4.2361,4.3419,4.4415,0.0,0.0,0.0,0.0,0.0,0.0,0.0,0.0,0.0,0.0,0.0,0.0,0.0,0.0,0.0,0.0,4.8306,4.8306,4.8306,4.8306,4.8306,4.8306,4.8306,4.8306,4.8306,4.8306,4.8306,4.8306,4.8306,4.8306,4.8306,4.8306,4.8306,4.8306,4.8306,4.8306,4.8306,4.8306,4.8306,4.8306,4.8306,4.8306,4.8306,4.8306,4.8306,4.8306,4.8306,4.937,5.0802,0.0,0.0,3.7673,3.8062,3.7781,3.774,3.8274,3.8361,3.8216,0.0,3.7207,3.6446,3.5415,3.518,3.5112,3.5177,3.5145,3.5112,3.5112,3.508,3.5029,3.4912,3.5914,3.6415,3.626,3.7133,3.7223,3.6416,3.6315,3.6103,3.5753,3.4597,3.4729,3.5949,3.4151,0.0,3.4504,3.3911,0.0,3.659,3.7989,3.861,0.0,0.0,4.0404,3.9913,4.0895,4.1071,4.0976,4.1994,4.1507,0.0,0.0,0.0,0.0,0.0,4.0728,0.0,0.0,0.0,0.0,0.0,0.0,0.0,4.262,4.3,4.3448,4.4742,0.0,0.0,0.0,0.0,0.0,0.0,0.0,0.0,0.0,0.0,0.0,0.0,0.0,0.0,4.8306,4.8306,4.8306,4.8306,4.8306,4.8306,4.8306,4.8306,4.8306,4.8306,4.8306,4.8306,4.8306,4.8306,4.8306,4.8306,4.8306,4.8306,4.8306,4.8306,4.8306,4.8306,4.8306,4.8306,4.8306,4.8306,4.8306,4.8306,4.8306,4.8306,4.8306,4.8306,4.937,5.0802,0.0,3.9836,3.9878,3.9963,3.9912,3.9888,4.001,4.0041,3.9882,3.9397,3.8413,3.7607,3.7227,3.6996,3.7057,3.749,3.7298,3.7148,3.7148,3.6891,3.6784,3.6845,3.6861,3.6968,3.7147,3.715,3.6982,3.6644,3.6614,3.6084,3.5096,3.4932,3.4892,3.4863,3.4011,3.4042,3.4723,3.4595,0.0,3.6825,3.6979,0.0,3.9657,4.0657,4.1278,4.1646,4.2029,4.1676,4.099,4.0698,4.0931,4.1191,0.0,0.0,0.0,4.0593,0.0,0.0,0.0,0.0,0.0,0.0,0.0,0.0,4.1291,4.1809,4.2327,0.0,0.0,0.0,0.0,0.0,0.0,0.0,0.0,0.0,0.0,0.0,0.0,0.0,0.0,0.0,4.8306,4.8306,4.8306,4.8306,4.8306,4.8306,4.8306,4.8306,4.8306,4.8306,4.8306,4.8306,4.8306,4.8306,4.8306,4.8306,4.8306,4.8306,4.8306,4.8306,4.8306,4.8306,4.8306,4.8306,4.8306,4.8306,4.8306,4.8306,4.8306,4.8306,4.8306,4.8306,4.937,5.0802,0.0,4.0652,4.069,4.03,4.0396,4.0382,4.0043,4.0081,3.9951,3.9371,3.8541,3.7918,3.7721,3.7522,3.7506,3.7801,3.7801,3.7788,3.7788,3.7492,3.7358,3.7522,3.7435,3.7405,3.7567,3.7234,3.6798,3.6261,3.587,3.5581,3.5347,3.5071,3.5332,3.5962,3.5171,3.5161,3.5708,0.0,3.6276,3.7022,3.7274,0.0,3.9971,4.0876,4.1372,4.1709,4.2534,4.2606,4.2201,4.1463,4.111,0.0,0.0,4.1082,4.103,0.0,4.1712,4.2035,0.0,0.0,0.0,4.1029,0.0,0.0,0.0,4.1716,4.212,0.0,0.0,0.0,0.0,0.0,0.0,0.0,0.0,0.0,0.0,0.0,0.0,0.0,0.0,0.0,4.7975,4.7955,4.7955,4.7955,4.8172,4.8306,4.8306,4.8306,4.8191,4.7975,4.7955,4.7836,4.7609,4.7836,4.7955,4.7937,4.8191,4.8306,4.8306,4.8306,4.8306,4.8306,4.8306,4.8306,4.8306,4.8306,4.8306,4.8306,4.8306,4.8306,4.8306,4.8306,4.937,5.0802,4.0365,4.072,4.0772,3.9946,4.0182,4.0245,3.9599,3.9681,3.9608,3.8958,3.8416,3.8044,3.7927,3.7779,3.7722,3.7798,3.7993,3.8064,3.7921,3.7608,3.7533,3.7832,3.7603,3.7617,3.7937,3.738,3.677,3.6095,3.5521,3.5473,3.5943,3.5438,3.5951,3.7311,3.6644,3.655,3.6926,3.7278,0.0,3.7871,0.0,3.9221,4.0126,4.1107,4.1511,4.1707,4.3043,4.3571,4.3538,4.2718,4.1723,4.0964,4.1783,4.1605,0.0,0.0,0.0,0.0,0.0,0.0,0.0,0.0,0.0,4.1067,0.0,0.0,0.0,0.0,0.0,0.0,0.0,0.0,0.0,0.0,0.0,0.0,0.0,0.0,0.0,0.0,0.0,0.0,0.0,4.7232,4.7325,4.7572,4.7809,4.8046,4.8287,4.821,4.7995,4.7653,4.7527,4.7335,4.7089,4.7421,4.7653,4.7736,4.8132,4.8306,4.8306,4.8306,4.8306,4.8306,4.8306,4.8306,4.8306,4.8306,4.8306,4.8306,4.8306,4.8306,4.8306,4.8306,4.926,5.0582,3.9683,4.0266,4.0448,3.9322,3.9778,4.0143,3.9581,3.9781,3.9791,3.9218,3.8756,3.8493,3.8581,3.8732,3.8936,3.9251,3.9031,3.8607,3.8028,3.7654,3.7779,3.838,3.7265,3.7326,3.8832,3.7657,3.7068,3.7209,3.713,3.6901,3.6504,3.6566,3.6774,3.7158,3.746,3.7705,3.7998,0.0,3.9726,0.0,4.0381,4.0243,0.0,4.1565,4.2471,4.316,4.3968,4.4277,4.4108,0.0,4.2629,4.249,0.0,4.1377,4.2389,4.0984,0.0,0.0,0.0,0.0,0.0,0.0,4.1,0.0,0.0,0.0,4.105,4.1153,0.0,0.0,0.0,0.0,0.0,0.0,0.0,0.0,0.0,0.0,0.0,0.0,0.0,0.0,0.0,4.5908,4.637,4.7515,4.7039,4.7168,4.825,4.7915,4.7713,4.7793,4.7266,4.7222,4.7692,4.7632,4.7816,4.821,4.8267,4.8306,4.8306,4.8306,4.8306,4.8306,4.8306,4.8306,4.8306,4.8306,4.8306,4.8306,4.8306,4.8306,4.8306,4.8306,4.8912,4.9849,3.9706,4.0277,4.0639,3.9487,4.0128,4.0563,3.994,3.9503,3.9092,3.8669,3.8119,3.7856,3.8205,3.7992,0.0,0.0,0.0,3.8606,0.0,0.0,3.8134,3.844,3.7739,3.7723,3.8644,3.7678,3.7224,3.7351,3.695,3.685,3.7014,3.7069,3.7628,3.8641,3.9073,3.9613,4.0248,0.0,4.1418,0.0,0.0,0.0,0.0,4.2277,4.3417,4.4448,4.44,4.4629,4.4797,0.0,4.2834,0.0,0.0,0.0,0.0,0.0,0.0,0.0,0.0,0.0,0.0,0.0,0.0,0.0,4.1022,0.0,4.0912,0.0,0.0,0.0,0.0,0.0,0.0,0.0,0.0,0.0,0.0,0.0,0.0,0.0,0.0,0.0,0.0,0.0,0.0,0.0,4.7157,4.749,4.8268,4.7856,4.7506,4.727,4.6771,4.6465,4.64,4.666,4.7026,4.7503,4.7775,4.7897,4.7897,4.8172,4.8152,4.7897,4.8172,4.8152,4.7897,4.8151,4.809,4.787,4.813,4.8228,4.8247,4.8305,4.8799,4.9583,3.9634,4.0446,4.0944,3.9849,4.034,4.0636,3.9895,3.9027,3.8453,3.8399,3.7896,3.7671,3.7998,3.7913,0.0,0.0,3.8858,3.9015,0.0,0.0,3.8633,3.8843,3.8147,3.8107,3.883,3.7927,3.7515,3.7614,3.7112,3.7128,3.7614,3.7763,3.8433,3.9604,4.0248,4.0956,4.1694,0.0,4.2671,4.2151,4.3545,4.37,4.3084,4.3448,4.4394,4.5477,4.5037,4.5171,4.5433,4.4653,4.3348,0.0,4.4129,0.0,0.0,0.0,0.0,0.0,4.1665,0.0,0.0,0.0,0.0,0.0,0.0,0.0,0.0,0.0,0.0,0.0,0.0,0.0,0.0,0.0,0.0,0.0,0.0,0.0,0.0,0.0,0.0,0.0,0.0,0.0,0.0,4.634,4.6686,4.7186,4.7877,4.7464,4.7093,4.6835,4.6266,4.5905,4.5744,4.6038,4.6435,4.6908,4.7248,4.7399,4.7421,4.7754,4.7733,4.7421,4.7775,4.7795,4.7611,4.7913,4.7909,4.7723,4.8068,4.8187,4.8168,4.8248,4.8633,4.9215,3.9228,4.0658,4.1453,4.0223,4.0153,4.0021,3.9088,3.8352,3.8142,3.8784,3.8564,0.0,0.0,0.0,0.0,0.0,0.0,4.0155,3.9526,0.0,3.9309,0.0,0.0,3.8215,3.9919,3.8574,3.8042,3.8359,3.8343,3.8343,3.8359,3.8892,3.9162,3.9255,4.0606,4.129,4.1579,4.2643,4.3484,4.4156,4.4513,4.5072,4.562,0.0,4.5523,4.6172,4.6147,0.0,0.0,4.4732,4.4513,0.0,0.0,0.0,0.0,0.0,0.0,0.0,0.0,0.0,0.0,4.1108,0.0,0.0,0.0,0.0,4.0912,0.0,0.0,0.0,0.0,0.0,0.0,0.0,0.0,0.0,0.0,0.0,0.0,0.0,0.0,0.0,0.0,0.0,0.0,4.4957,4.5081,4.5629,4.6895,4.6507,4.6357,4.6613,4.5829,4.5778,4.6542,4.6308,4.6435,4.6908,4.6908,4.6931,4.6931,4.6931,4.6931,4.6931,4.6931,4.7182,4.7611,4.7611,4.7834,4.8168,4.8187,4.811,4.8032,4.8229,4.8324,4.8452,4.1114,4.1599,4.1683,0.0,0.0,4.088,4.0077,3.9973,4.0038,0.0,3.9849,0.0,0.0,3.9706,3.9689,0.0,0.0,3.9822,3.9825,3.9321,0.0,0.0,0.0,3.7979,0.0,3.8366,3.8075,3.8391,3.8391,3.8572,3.8925,3.9125,3.9584,4.0311,4.1287,4.2127,0.0,0.0,0.0,0.0,0.0,4.5093,4.538,0.0,4.5968,4.6196,4.6196,4.6196,0.0,4.5708,4.4987,4.4394,4.4965,4.4314,4.3517,4.4258,4.4261,0.0,0.0,0.0,4.3624,4.2139,0.0,0.0,0.0,0.0,0.0,0.0,0.0,0.0,0.0,0.0,0.0,0.0,0.0,0.0,0.0,0.0,0.0,0.0,0.0,0.0,0.0,0.0,0.0,4.4951,4.5508,4.6129,4.6868,4.6459,4.6284,4.6471,4.5871,4.5667,4.5947,4.5846,4.603,4.6435,4.6435,4.6435,4.6459,4.6747,4.6724,4.6459,4.6771,4.6799,4.6707,4.72,4.7284,4.7191,4.7783,4.7988,4.8012,4.8169,4.8228,4.8429,4.1639,4.1792,4.1742,0.0,4.1255,4.1154,4.0436,4.0464,0.0,0.0,4.049,0.0,4.0636,0.0,4.0448,0.0,4.0557,4.0457,4.0174,3.9879,0.0,3.9498,3.8637,0.0,0.0,0.0,0.0,3.8857,3.8931,3.9152,3.9506,3.9671,4.0103,4.0765,4.1408,4.2293,4.3338,4.389,4.4385,0.0,0.0,4.5428,0.0,0.0,4.6039,4.5828,0.0,4.6196,4.6196,4.6196,4.5581,4.4964,4.5898,4.5157,4.4127,4.5089,4.4963,4.4453,4.415,4.446,0.0,4.3082,4.3151,0.0,4.1704,0.0,0.0,0.0,0.0,0.0,0.0,0.0,0.0,0.0,0.0,0.0,0.0,4.0912,0.0,0.0,0.0,0.0,0.0,0.0,4.3815,4.4684,4.5214,4.5765,0.0,0.0,4.6005,4.6179,4.5821,4.5615,4.5667,4.5615,4.5718,4.593,4.5955,4.5955,4.593,4.6291,4.6242,4.593,4.6242,4.6291,4.6235,4.6695,4.6788,4.6713,4.7425,4.7702,4.7788,4.8088,4.8207,4.8429,4.0894,4.129,0.0,0.0,4.1551,0.0,0.0,0.0,4.0007,0.0,4.0661,4.0718,4.1083,4.1684,4.1929,4.1578,4.2132,4.1947,4.0673,4.0848,0.0,0.0,3.9563,3.9692,4.0043,0.0,0.0,0.0,0.0,4.0003,4.0053,4.0546,4.0731,4.0652,4.103,0.0,4.292,4.3062,4.3864,4.5086,4.5606,4.5963,4.6144,4.6196,4.574,4.5203,4.5933,4.6196,4.6196,4.6196,4.6196,4.6196,4.6196,4.6196,4.6196,4.6196,4.6196,4.6014,4.5205,4.497,4.4771,4.3881,4.3659,0.0,0.0,0.0,4.2237,0.0,0.0,0.0,0.0,0.0,0.0,0.0,0.0,0.0,0.0,0.0,0.0,0.0,0.0,0.0,0.0,4.1992,4.2672,4.4138,4.4276,0.0,0.0,0.0,4.5494,4.5795,4.5684,4.5667,4.5795,4.5667,4.5537,4.5397,4.5554,4.5528,4.5423,4.5554,4.5554,4.5423,4.5423,4.5693,4.6161,4.6211,4.6411,4.6747,4.7169,4.7323,4.7389,4.799,4.8228,4.8415,4.2236,4.1918,4.1638,0.0,4.158,4.1412,0.0,0.0,0.0,0.0,4.2728,4.2907,4.2853,4.3013,4.2873,4.2307,4.2407,0.0,0.0,0.0,0.0,4.1725,4.0775,4.0392,4.0737,4.0352,0.0,3.9698,0.0,4.0203,4.0611,4.0635,4.0843,4.1203,4.1295,4.1914,4.292,4.3254,4.4245,4.5606,4.5955,4.5814,4.5449,0.0,4.574,4.5203,4.5933,4.6196,4.6196,4.6196,4.6196,4.6196,4.6196,4.6196,4.6196,4.6196,4.6196,4.6161,4.5944,4.5874,4.5674,4.4788,4.4589,4.4331,0.0,0.0,0.0,0.0,0.0,0.0,0.0,0.0,0.0,0.0,0.0,0.0,0.0,0.0,0.0,0.0,0.0,0.0,0.0,4.2223,4.3051,4.3448,4.3983,0.0,0.0,0.0,0.0,4.5778,4.5787,4.5787,4.5795,4.5787,4.5667,4.5554,4.5563,4.5615,4.5693,4.5718,4.5718,4.5693,4.5607,4.5632,4.5795,4.6301,4.6548,4.669,4.7341,4.7657,4.778,4.8088,4.8228,4.8434,4.3226,4.2875,0.0,4.2514,0.0,0.0,4.1881,4.2026,0.0,4.3211,4.3515,0.0,4.3946,4.3972,4.3827,4.3439,4.341,0.0,4.2542,0.0,0.0,4.1974,4.1536,4.1395,4.158,4.1457,0.0,4.0763,0.0,4.101,4.1071,4.1001,4.1065,4.1261,4.1358,4.1811,4.2549,4.3437,4.4391,4.5376,4.5815,4.5835,0.0,4.6039,4.5933,4.5659,4.6056,4.6196,4.6196,4.6196,4.6196,4.6196,4.6196,4.6196,4.6196,4.6196,4.6196,4.6196,4.6196,4.6196,4.6067,4.5579,4.5474,4.524,4.4366,4.4119,4.4046,0.0,4.3613,4.3358,0.0,0.0,0.0,0.0,0.0,0.0,0.0,0.0,0.0,0.0,0.0,0.0,0.0,0.0,4.3189,4.3189,0.0,0.0,0.0,0.0,0.0,4.5316,4.5697,4.5871,4.5871,4.5871,4.5821,4.5693,4.5761,4.577,4.5795,4.5846,4.5846,4.5812,4.5718,4.5641,4.5641,4.6204,4.6381,4.6405,4.7147,4.7636,4.7902,4.8045,4.8148,4.834,4.4073,0.0,0.0,0.0,0.0,0.0,0.0,4.2329,0.0,4.351,0.0,4.3798,4.453,4.457,4.457,4.4615,0.0,4.4069,4.2865,4.3197,4.2936,4.1785,4.2291,4.2569,4.2459,4.2771,4.2662,0.0,0.0,4.1998,4.1403,4.138,4.1267,4.1117,4.129,0.0,0.0,4.369,4.4498,4.4965,4.5593,4.6005,4.6196,4.6196,4.6196,4.6196,4.6196,4.6196,4.6196,4.6196,4.6196,4.6196,4.6196,4.6196,4.6196,4.6196,4.6196,4.6196,4.6196,4.6196,4.6196,4.6196,4.6196,4.5996,4.524,4.5075,4.5009,4.4886,4.4257,4.4089,0.0,0.0,0.0,0.0,0.0,0.0,0.0,0.0,0.0,0.0,0.0,0.0,0.0,0.0,0.0,0.0,0.0,0.0,0.0,0.0,0.0,4.4836,4.5598,4.5998,4.5998,0.0,4.5947,4.5821,4.5947,4.5947,4.5846,4.5972,4.5972,4.5846,4.5838,4.5718,4.5667,4.6087,4.6259,4.6315,4.6926,4.745,4.7881,4.7881,4.8024,4.8168,4.4939,0.0,0.0,0.0,0.0,4.4259,4.4384,4.386,4.356,4.3737,4.3988,4.426,4.457,4.444,4.4412,4.4587,4.444,0.0,0.0,0.0,0.0,4.4011,4.4128,4.3902,4.3303,4.3519,4.3131,0.0,0.0,4.1998,4.1403,4.1295,4.1209,4.1163,0.0,0.0,4.3623,4.4331,0.0,4.5947,4.607,4.6147,4.6196,4.6196,4.6196,4.6196,4.6196,4.6196,4.6196,4.6196,4.6196,4.6196,4.6196,4.6196,4.6196,4.6196,4.6196,4.6196,4.6196,4.6196,4.6196,4.6196,4.6196,4.6161,4.6014,4.5905,4.5805,4.578,4.5558,4.5265,4.4908,0.0,0.0,0.0,0.0,0.0,0.0,0.0,0.0,0.0,0.0,0.0,0.0,0.0,0.0,0.0,0.0,0.0,0.0,0.0,0.0,0.0,4.5852,0.0,0.0,0.0,4.5998,4.5972,4.5998,4.6048,4.6122,4.6147,4.6147,4.6122,4.5897,4.5787,4.5821,4.637,4.6994,4.7572,4.7593,4.7657,4.7759,4.7861,4.7922,4.7984,4.5513,0.0,0.0,0.0,0.0,0.0,0.0,4.5637,4.5303,4.5133,4.5293,4.532,4.4966,4.4812,4.469,4.4474,4.4367,4.4384,4.4587,4.4412,4.4338,4.444,4.444,4.4265,4.3914,4.4247,4.3824,4.2603,0.0,0.0,4.1295,4.1198,4.1152,4.1169,0.0,4.2462,0.0,0.0,0.0,4.5653,4.6056,4.6196,4.6196,4.6196,4.6196,4.6196,4.6196,4.6196,4.6196,4.6196,4.6196,4.6196,4.6196,4.6196,4.6196,4.6196,4.6196,4.6196,4.6196,4.6196,4.6196,4.6196,4.6196,4.6196,4.6196,4.6147,4.6097,4.6097,4.5998,4.567,4.4836,4.4038,0.0,0.0,0.0,0.0,0.0,0.0,0.0,0.0,0.0,0.0,0.0,0.0,0.0,0.0,0.0,0.0,0.0,0.0,0.0,0.0,0.0,0.0,0.0,0.0,0.0,4.6097,4.6097,4.6147,4.6196,4.6196,4.6196,4.6196,4.6308,4.6161,4.5846,4.6411,4.6989,4.749,4.7407,4.7385,4.7385,4.7468,4.7803,4.8272,0.0,4.6343,0.0,0.0,4.6593,4.6692,4.7155,4.7247,4.7051,4.6492,4.6455,4.6266,4.5593,4.5496,4.5291,4.486,4.463,4.4603,4.4823,4.4496,4.4338,4.4367,4.4367,4.4367,4.4367,4.4731,4.4382,0.0,0.0,0.0,0.0,4.1568,0.0,0.0,0.0,0.0,0.0,0.0,4.5185,4.5396,4.5968,4.6196,4.6196,4.6196,4.6196,4.6196,4.6196,4.6196,4.6196,4.6196,4.6196,4.6196,4.6196,4.6196,4.6196,4.6196,4.6196,4.6196,4.6196,4.6196,4.6196,4.6196,4.6196,4.6196,4.6196,4.6196,4.6196,4.6196,4.6122,4.5795,4.491,4.4324,0.0,0.0,0.0,0.0,0.0,0.0,0.0,0.0,0.0,0.0,0.0,0.0,0.0,0.0,0.0,4.2483,4.336,4.3517,4.4073,0.0,0.0,4.6014,4.6196,0.0,4.6196,4.6196,4.6196,4.6196,4.6196,4.6196,4.6196,4.6221,4.6554,4.6411,4.5972,4.6423,4.676,4.7017,4.7084,4.7062,4.7012,4.7281,4.7815,4.8587,0.0,0.0,0.0,0.0,0.0,4.7925,4.7993,4.845,4.8308,4.6925,4.6621,4.6557,4.6642,4.649,4.6426,4.6553,4.5794,4.5395,4.5573,4.4783,4.4367,4.457,4.457,4.457,4.457,4.4598,4.4357,0.0,0.0,4.3421,0.0,0.0,0.0,0.0,0.0,0.0,0.0,4.5045,4.5501,4.6109,4.6161,4.6196,4.6196,4.6196,4.6196,4.6196,4.6196,4.6196,4.6196,4.6196,4.6196,4.6196,4.6196,4.6196,4.6196,4.6196,4.6196,4.6196,4.6196,4.6196,4.6196,4.6196,4.6196,4.6196,4.6196,4.6196,4.6196,4.6196,4.6196,4.5919,4.5033,4.5467,4.561,0.0,0.0,0.0,0.0,0.0,0.0,0.0,0.0,0.0,0.0,4.3141,0.0,0.0,4.2697,4.2699,4.3447,4.3565,4.4317,4.584,0.0,4.538,4.6196,4.6196,4.6196,4.6196,4.6196,4.6196,4.6196,4.6196,4.6196,4.6214,4.6122,4.6179,4.6374,4.6542,4.6649,4.6753,4.7017,4.6903,4.6755,4.7816,4.8235,4.8618,0.0,0.0,0.0,0.0,0.0,0.0,0.0,4.8785,4.8675,4.8101,4.7939,4.7709,4.7194,4.7083,4.6928,4.6654,4.6275,4.6153,4.6363,4.5595,4.5189,4.5263,4.4852,4.4615,4.4615,4.4748,4.4511,0.0,0.0,0.0,0.0,0.0,0.0,0.0,0.0,4.4655,4.5133,4.5565,4.5933,4.6196,4.6196,4.6196,4.6196,4.6196,4.6196,4.6196,4.6196,4.6196,4.6196,4.6196,4.6196,4.6196,4.6196,4.6196,4.6196,4.6196,4.6196,4.6196,4.6196,4.6196,4.6196,4.6196,4.6196,4.6196,4.6196,4.6196,4.6196,4.6196,4.6196,4.6084,4.5744,4.5544,4.545,4.5508,0.0,0.0,0.0,0.0,0.0,0.0,0.0,0.0,0.0,0.0,0.0,0.0,0.0,4.3131,4.3426,4.4049,4.467,4.5306,0.0,4.5832,4.6196,4.6196,4.6196,4.6196,4.6196,4.6196,4.6196,4.6196,4.635,4.6578,4.6105,4.6087,4.6465,4.6572,4.6477,4.6374,4.7421,4.7388,4.6926,4.8045,4.8802,4.9355,4.7795,0.0,4.7848,0.0,4.8254,4.8392,4.8872,4.8894,4.8863,4.8925,4.9001,4.8754,4.7967,4.7917,4.7743,4.7325,4.7059,4.6971,4.7124,4.643,4.6024,4.6024,4.5314,0.0,4.4908,4.4895,4.4586,4.4031,4.4457,0.0,0.0,0.0,0.0,0.0,4.4727,4.5169,4.5466,4.5968,4.6196,4.6196,4.6196,4.6196,4.6196,4.6196,4.6196,4.6196,4.6196,4.6196,4.6196,4.6196,4.6196,4.6196,4.6196,4.6196,4.6196,4.6196,4.6196,4.6196,4.6196,4.6196,4.6196,4.6196,4.6196,4.6196,4.6196,4.6196,4.6196,4.6196,4.6196,4.6196,4.6196,4.5709,4.5467,4.6035,0.0,0.0,0.0,0.0,0.0,0.0,4.5268,4.4935,4.4984,0.0,0.0,0.0,0.0,0.0,4.3857,4.4492,4.4974,0.0,0.0,0.0,4.6196,4.6196,4.6196,4.6196,4.6196,4.6196,4.6196,4.6196,4.6374,4.6672,4.6228,4.6358,4.6897,4.7074,4.6978,4.6805,4.8135,4.8083,4.7378,4.8537,4.9435,5.015,4.9165,4.906,4.8954,4.8832,4.861,4.8578,4.8769,4.8925,4.9063,4.9168,4.95,4.95,4.9015,4.9107,4.9182,4.9165,4.8369,4.7872,4.7872,4.7192,4.6786,0.0,0.0,4.5703,4.5703,4.4987,4.4598,4.4598,0.0,0.0,4.3807,0.0,4.4742,4.5751,4.5794,4.5938,4.6196,4.6196,4.6196,4.6196,4.6196,4.6196,4.6196,4.6196,4.6196,4.6196,4.6196,4.6196,4.6196,4.6196,4.6196,4.6196,4.6196,4.6196,4.6196,4.6196,4.6196,4.6196,4.6196,4.6196,4.6196,4.6196,4.6196,4.6196,4.6196,4.6196,4.6196,4.6196,4.6196,4.6196,4.6196,4.6196,4.613,4.6023,0.0,0.0,0.0,0.0,0.0,0.0,4.4597,4.4572,4.4697,0.0,0.0,0.0,0.0,0.0,0.0,0.0,0.0,4.6161,4.5345,0.0,4.6196,4.6196,4.6196,4.6196,4.6196,4.6196,4.6196,4.6196,4.6196,4.6221,4.6471,4.7056,4.7813,4.8284,4.8407,4.8347,4.9167,4.8905,4.8215,4.9372,5.0165,5.0809,4.9063,4.9107,4.9107,4.9094,4.9138,4.9199,4.9277,4.9216,4.9138,4.9199,4.95,4.9649,4.95,4.9619,4.9632,0.0,4.9295,4.9129,0.0,4.8441,4.8071,4.8157,4.7466,4.7071,4.7071,4.6351,4.5846,4.5618,0.0,0.0,0.0,4.47,4.5033,4.5546,4.5546,4.5778,4.6196,4.6196,4.6196,4.6196,4.6196,4.6196,4.6196,4.6196,4.6196,4.6196,4.6196,4.6196,4.6196,4.6196,4.6196,4.6196,4.6196,4.6196,4.6196,4.6196,4.6196,4.6196,4.6196,4.6196,4.6196,4.6196,4.6196,4.6196,4.6196,4.6196,4.6196,4.6196,4.6196,4.6196,4.6196,4.6196,4.6189,4.6147,4.6172,0.0,0.0,0.0,0.0,0.0,4.568,4.568,0.0,4.5606,0.0,0.0,0.0,0.0,0.0,0.0,0.0,0.0,4.5614,0.0,4.6196,4.6196,4.6196,4.6196,4.6196,4.6196,4.6196,4.6196,4.6495,4.7011,4.7289,4.7632,4.8057,4.8954,4.871,4.7909,4.9508,4.9525,4.8854,4.9985,5.0811,5.1354,4.9001,4.9032,4.9063,4.9063,4.9138,4.9229,4.9307,4.932,4.932,4.9381,4.9737,4.9942,4.9884,5.0114,0.0,4.9913,4.9825,4.9796,4.9796,4.9332,4.9131,4.9217,4.8521,4.8124,4.8124,4.7382,0.0,4.6694,4.6119,4.5757,4.5596,4.5304,4.5283,4.5555,4.5555,4.5803,4.6196,4.6196,4.6196,4.6196,4.6196,4.6196,4.6196,4.6196,4.6196,4.6196,4.6196,4.6196,4.6196,4.6196,4.6196,4.6196,4.6196,4.6196,4.6196,4.6196,4.6196,4.6196,4.6196,4.6196,4.6196,4.6196,4.6196,4.6196,4.6196,4.6196,4.6196,4.6196,4.6196,4.6196,4.6196,4.6196,4.6196,4.6196,4.6196,4.6196,4.6196,0.0,0.0,0.0,0.0,0.0,0.0,4.5635,4.554,0.0,0.0,0.0,0.0,0.0,0.0,4.538,4.5926,0.0,4.6196,4.6196,4.6196,4.6196,4.6196,4.6354,4.6635,4.6635,4.7099,4.7879,4.8322,4.8748,4.9215,5.0129,4.9852,4.9061,5.0406,5.0449,4.9821,5.0459,5.1235,5.1909,4.8987,4.8894,4.8832,0.0,4.8798,4.8813,4.9032,4.9307,4.956,4.9708,5.0114,5.0359,5.0217,5.0599,5.0682,5.0274,0.0,0.0,4.9953,4.9953,4.9953,4.9953,4.9309,4.8957,4.8957,4.8214,4.78,4.772,4.7003,4.6675,4.6658,4.5916,4.5667,4.5898,4.5898,4.6007,4.6196,4.6196,4.6196,4.6196,4.6196,4.6196,4.6196,4.6196,4.6196,4.6196,4.6196,4.6196,4.6196,4.6196,4.6196,4.6196,4.6196,4.6196,4.6196,4.6196,4.6196,4.6196,4.6196,4.6196,4.6196,4.6196,4.6196,4.6196,4.6196,4.6196,4.6196,4.6196,4.6196,4.6196,4.6196,4.6196,4.6196,4.6196,4.6196,4.6196,4.6196,0.0,0.0,0.0,0.0,0.0,4.4988,4.4988,4.531,0.0,0.0,0.0,0.0,0.0,4.5303,4.6179,4.6196,4.6196,4.6196,4.6196,4.6196,4.6196,4.6267,4.667,4.7397,4.745,4.7924,4.873,4.943,5.0191,5.0975,5.1584,5.1633,5.1335,5.164,5.1457,5.1035,5.0796,5.1482,5.241,0.0,0.0,4.9124,4.9124,4.9229,4.935,4.95,4.959,4.9725,4.9889,5.0103,5.0246,5.0217,5.0387,5.0509,5.0519,5.0446,5.0418,5.0418,5.0418,5.0492,5.0655,5.0507,5.0402,5.0402,4.9633,4.8827,4.802,4.763,4.7434,4.7434,4.7244,4.6982,4.6734,4.6734,4.6531,4.6196,4.6196,4.6196,4.6196,4.6196,4.6196,4.6196,4.6196,4.6196,4.6196,4.6196,4.6196,4.6196,4.6196,4.6196,4.6196,4.6196,4.6196,4.6196,4.6196,4.6196,4.6196,4.6196,4.6196,4.6196,4.6196,4.6196,4.6196,4.6196,4.6196,4.6196,4.6196,4.6196,4.6196,4.6196,4.6196,4.6196,4.6196,4.6196,4.6196,4.6196,4.6196,0.0,0.0,4.5891,4.5891,4.5891,4.5891,4.5733,0.0,0.0,0.0,0.0,4.5161,4.54,4.6179,4.6196,4.6196,4.6196,4.6196,4.6196,4.6214,4.6835,4.7222,4.7415,4.7994,4.8679,4.9486,4.9937,5.0514,5.12,5.1955,5.1868,5.131,5.1329,5.1449,5.1576,5.1096,5.1594,5.2475,4.9001,4.9063,4.9107,4.9107,4.9229,4.9441,4.9679,4.9767,4.9884,5.0149,5.0302,5.0369,5.0302,5.0499,5.0637,5.0585,5.0585,5.063,5.0729,5.0747,5.0774,5.0891,5.0891,5.0891,5.0891,5.0452,4.9977,4.9396,4.8868,4.8622,4.8622,4.823,4.7945,4.7736,4.7718,4.7358,4.6765,4.6765,4.653,4.6196,4.6196,4.6196,4.6196,4.6196,4.6196,4.6196,4.6196,4.6196,4.6196,4.6196,4.6196,4.6196,4.6196,4.6196,4.6196,4.6196,4.6196,4.6196,4.6196,4.6196,4.6196,4.6196,4.6196,4.6196,4.6196,4.6196,4.6196,4.6196,4.6196,4.6196,4.6196,4.6196,4.6196,4.6196,4.6196,4.6196,4.6196,4.6196,0.0,4.6196,4.6196,4.6196,4.6196,4.6196,4.6021,4.5617,4.5607,0.0,4.5607,4.5607,4.5775,4.6196,4.6196,4.6196,4.6196,4.649,4.6658,4.6658,4.7377,4.791,4.8286,4.8662,4.9327,5.0135,5.053,5.0923,5.1347,5.1964,5.1946,5.1558,5.1841,5.1922,5.1884,5.191,5.2164,5.2498,4.9001,4.9001,4.9001,4.9001,4.9077,4.926,4.959,4.972,4.9895,5.0228,5.0408,5.0464,5.0341,5.061,5.0747,5.0612,5.0585,5.0702,5.0891,5.0891,5.0891,5.0891,5.0891,5.0891,5.0891,5.0891,5.0891,5.0891,5.0233,4.9899,4.9881,4.9188,4.8837,4.8766,4.8714,4.8275,4.7573,4.7573,4.7116,4.6372,4.6372,4.6302,4.6196,4.6196,4.6196,4.6196,4.6196,4.6196,4.6196,4.6196,4.6196,4.6196,4.6196,4.6196,4.6196,4.6196,4.6196,4.6196,4.6196,4.6196,4.6196,4.6196,4.6196,4.6196,4.6196,4.6196,4.6196,4.6196,4.6196,4.6196,4.6196,4.6196,4.6196,4.6196,4.6196,4.6196,4.6196,0.0,4.6196,4.6196,4.6196,4.6196,4.6196,4.6196,4.6196,4.6196,4.6196,4.6196,4.6196,4.6196,4.6196,4.6196,4.6196,4.6267,4.6365,4.6922,4.7255,4.7352,4.7988,4.863,4.9284,4.9405,4.9871,5.0612,5.0946,5.1218,5.1424,5.1775,5.1873,5.1896,5.2358,5.2412,5.227,5.2605,5.272,5.2684,4.9001,4.9001,4.9001,4.9001,4.9001,4.9094,4.926,4.929,4.9381,4.9607,4.9854,5.0011,4.9982,5.0285,5.0509,5.0585,5.0585,5.0702,5.0891,5.0891,5.0891,5.0891,5.0891,5.0891,5.0891,5.0891,5.0891,5.0891,5.0768,5.0697,5.0697,5.0575,5.0171,4.9548,4.9504,4.91,4.8415,4.8363,4.7906,4.7204,4.7204,4.6818,4.6196,4.6196,4.6196,4.6196,4.6196,4.6196,4.6196,4.6196,4.6196,4.6196,4.6196,4.6196,4.6196,4.6196,4.6196,4.6196,4.6196,4.6196,4.6196,4.6196,4.6196,4.6196,4.6196,4.6196,4.6196,4.6196,4.6196,4.6196,4.6196,4.6196,4.6196,4.6196,4.6196,4.6196,4.6196,0.0,4.6196,4.6196,4.6196,4.6196,4.6196,4.6196,4.6196,4.6196,4.6196,4.6196,4.6196,4.6196,4.6196,4.6196,4.6196,4.648,4.7036,4.7133,4.7465,4.7979,4.8744,4.9179,4.9318,4.9945,5.0359,5.0612,5.0667,5.0973,5.1406,5.1475,5.1676,5.1915,5.1446,5.2126,5.3213,5.1943,5.2422,5.3585,4.9001,4.9001,4.9001,4.9001,4.9001,4.9094,4.932,4.935,4.9441,4.9679,4.9808,4.9895,4.9895,5.0057,5.0228,5.0464,5.0492,5.061,5.0891,5.0891,5.0846,5.0729,5.0846,5.0891,5.0891,5.0891,5.0891,5.0891,5.0891,5.0891,5.0891,5.0891,5.0697,5.0356,5.0356,4.9908,4.9188,4.9153,4.8696,4.7994,4.7994,4.7538,4.6853,4.6853,4.6565,4.6196,4.6196,4.6196,4.6196,4.6196,4.6196,4.6196,4.6196,4.6196,4.6196,4.6196,4.6196,4.6196,4.6196,4.6196,4.6196,4.6196,4.6196,4.6196,4.6196,4.6196,4.6196,4.6196,4.6196,4.6196,4.6196,4.6196,4.6196,4.6196,4.6196,0.0,0.0,4.6196,4.6196,4.6196,4.6196,4.6196,4.6196,4.6196,4.6196,4.6196,4.6196,4.6196,4.6196,4.6196,4.6196,4.6196,4.6543,4.6887,4.7203,4.7848,4.8315,4.8581,4.9389,4.9781,4.9799,5.0213,5.0481,5.0585,5.0585,5.0803,5.1114,5.1114,5.1734,5.2653,5.2766,5.3536,5.4537,5.4201,5.4013,5.3844,4.9001,4.9001,4.9001,4.9001,4.9001,4.9094,4.9337,4.9398,4.9441,4.9661,4.975,4.9825,4.9825,4.9866,5.0011,5.0257,5.0285,5.0387,5.0599,5.071,5.0747,5.0657,5.0819,5.0891,5.0891,5.0891,5.0891,5.0891,5.0891,5.0891,5.0891,5.0891,5.0891,5.0891,5.0891,5.0539,4.9987,4.9987,4.9504,4.8784,4.8784,4.8345,4.7678,4.7678,4.7187,4.6477,4.6477,4.6354,4.6196,4.6196,4.6196,4.6196,4.6196,4.6196,4.6196,4.6196,4.6196,4.6196,4.6196,4.6196,4.6196,4.6196,4.6196,4.6196,4.6196,4.6196,4.6196,4.6196,4.6196,4.6196,4.6196,4.6196,4.6196,4.6196,0.0,0.0,0.0,4.6196,4.6196,4.6196,4.6196,4.6196,4.6196,4.6196,4.6196,4.6196,4.6196,4.6196,4.6196,4.6196,4.6259,4.6427,4.6922,4.7334,4.7622,4.8583,4.9132,4.9295,4.994,5.0246,5.0246,5.0341,5.0481,5.0585,5.0585,5.0702,5.0891,5.0891,5.1591,5.2734,5.3598,5.4429,5.5244,5.5892,5.5444,5.45,4.9001,4.9001,4.9001,4.9001,4.9001,4.9001,4.9032,4.9032,4.9032,4.9063,4.9337,4.9547,4.9547,4.9767,4.9895,4.9924,4.9924,4.9895,4.9796,5.02,5.0554,5.0846,5.0891,5.0891,5.0891,5.0891,5.0891,5.0891,5.0891,5.0891,5.0891,5.0891,5.0891,5.0891,5.0891,5.0855,5.0803,5.0803,5.0346,4.9618,4.9618,4.9153,4.8503,4.8503,4.8012,4.7309,4.7309,4.6835,4.6196,4.6196,4.6196,4.6196,4.6196,4.6196,4.6196,4.6196,4.6196,4.6196,4.6196,4.6196,4.6196,4.6196,4.6196,4.6196,4.6196,4.6196,4.6196,4.6196,4.6196,4.6196,4.6196,4.6196,4.6196,4.6196,0.0,0.0,4.6196,4.6196,4.6196,4.6196,4.6196,4.6196,4.6196,4.6196,4.6196,4.6196,4.6196,4.6196,4.6196,4.6196,4.648,4.7124,4.7168,4.7736,4.8855,4.9132,4.9549,5.0102,5.0296,5.0387,5.0387,5.0415,5.0481,5.0585,5.0585,5.0702,5.0891,5.0891,5.098,5.1166,5.2166,5.3348,5.451,5.467,5.5461,5.6287,4.9001,4.9001,4.9001,4.9001,4.9001,4.9001,4.9001,4.9001,4.9001,4.9001,4.9124,4.9185,4.9185,4.926,4.9441,4.9619,4.9649,4.9708,4.9825,5.02,5.0554,5.0891,5.0891,5.0891,5.0891,5.0891,5.0891,5.0891,5.0891,5.0891,5.0891,5.0891,5.0891,5.0891,5.0891,5.0891,5.0891,5.0891,5.0715,5.0434,5.0434,4.9978,4.9276,4.9276,4.8784,4.8082,4.8082,4.7924,4.7625,4.7116,4.6941,4.6871,4.6354,4.6196,4.6196,4.6196,4.6196,4.6196,4.6196,4.6196,4.6196,4.6196,4.6196,4.6196,4.6196,4.6196,4.6196,4.6196,4.6196,4.6196,4.6196,4.6196,4.6196,4.6196,0.0,4.6196,4.6196,4.6196,4.6196,4.6196,4.6196,4.6196,4.6196,4.6196,4.6196,4.6196,4.6196,4.6196,4.6196,4.6595,4.7282,4.828,4.8458,4.8719,4.9184,4.9642,5.0007,5.0331,5.0453,5.0519,5.0519,5.0637,5.0737,5.0774,5.0774,5.1209,5.1891,5.1201,5.1768,5.3118,5.3488,5.441,5.5607,5.6423,5.635,5.5798,4.9001,4.9001,4.9001,4.9001,4.9001,4.9001,4.9001,4.9001,4.9001,4.9001,4.9001,4.9001,4.9001,4.9001,4.9094,4.9337,4.9337,4.9411,4.9619,5.0028,5.0443,5.0891,5.0891,5.0891,5.0891,5.0891,5.0891,5.0891,5.0891,5.0891,5.0891,5.0891,5.0891,5.0891,5.0891,5.0891,5.0891,5.0891,5.0891,5.0891,5.0891,5.0584,5.0092,5.0092,4.9574,4.8889,4.8889,4.8749,4.8486,4.7924,4.7748,4.7608,4.6811,4.6389,4.6196,4.6196,4.6196,4.6196,4.6196,4.6196,4.6196,4.6196,4.6196,4.6196,4.6196,4.6196,4.6196,4.6196,4.6196,4.6196,4.6196,4.6196,4.6196,4.6196,4.6196,4.6196,4.6196,4.6196,4.6196,4.6196,4.6196,4.6196,4.6196,4.6196,4.6196,4.6196,4.6196,4.6277,4.649,4.7291,4.8161,4.9066,4.9399,4.9604,4.9714,5.0109,5.0369,5.0481,5.0994,5.1031,5.0702,5.1209,5.1236,5.0891,5.0891,5.1547,5.2536,5.1803,5.2403,5.3918,5.4754,5.5305,5.5807,5.7184,5.6891,5.5811,4.9001,4.9001,4.9001,4.9001,4.9001,4.9001,4.9001,4.9001,4.9001,4.9001,4.9001,4.9001,4.9001,4.9001,4.9001,4.9001,4.9001,4.9001,4.9001,4.959,5.02,5.0863,5.0891,5.0891,5.0891,5.0891,5.0891,5.0891,5.0891,5.0891,5.0891,5.0891,5.0891,5.0891,5.0891,5.0891,5.0891,5.0891,5.0891,5.0891,5.0891,5.0891,5.0891,5.0891,5.0382,4.9723,4.9723,4.9205,4.8512,4.8495,4.8495,4.8372,4.7643,4.6871,4.6214,4.6214,4.6214,4.6214,4.6196,4.6196,4.6196,4.6196,4.6196,4.6196,4.6196,4.6196,4.6196,4.6196,4.6196,4.6196,4.6196,4.6196,4.6196,4.6196,4.6196,4.6196,4.6196,4.6196,4.6196,4.6196,4.6196,4.6196,4.6196,4.6196,4.6196,4.6196,4.6214,4.649,4.7185,4.834,4.9101,4.9301,4.9892,5.0341,5.0585,5.0585,5.0585,5.063,5.1962,5.2015,5.0935,5.2077,5.1997,5.0918,5.0918,5.1564,5.2624,5.2779,5.2753,5.2888,5.5545,5.5691,5.4607,5.636,5.6893,5.6675,4.9001,4.9001,4.9001,4.9001,4.9001,4.9001,4.9001,4.9001,4.9001,4.9001,4.9001,4.9001,4.9001,4.9001,4.9001,4.9001,4.9001,4.9094,4.9337,4.9708,5.0068,5.0526,5.0764,5.0891,5.0891,5.0891,5.0891,5.0891,5.0891,5.0891,5.0891,5.0891,5.0891,5.0891,5.0891,5.0891,5.0891,5.0891,5.0891,5.0891,5.0891,5.0891,5.0891,5.0891,5.0733,5.0522,5.0522,5.0382,5.0101,4.9521,4.9328,4.9205,4.8433,4.8004,4.7705,4.7204,4.7046,4.6923,4.6354,4.6196,4.6196,4.6196,4.6196,4.6196,4.6196,4.6196,4.6196,4.6196,4.6196,4.6196,4.6196,4.6196,4.6196,4.6196,4.6196,4.6196,4.6196,4.6196,4.6196,4.6196,4.6196,4.6196,4.6196,4.6196,4.6196,4.6196,4.6705,4.7524,4.8633,4.9094,4.9582,5.0067,5.0331,5.0519,5.0585,5.0585,5.0785,5.1166,5.1655,5.1876,5.1835,5.2216,5.2204,5.1904,5.2521,5.3466,5.4542,5.4291,5.4285,5.4502,5.5317,5.4937,5.415,5.5518,5.5655,5.5078,4.9001,4.9001,4.9001,4.9001,4.9001,4.9001,4.9001,4.9001,4.9001,4.9001,4.9001,4.9001,4.9001,4.9001,4.9001,4.9001,4.9001,4.9155,4.9488,4.9649,4.9884,5.02,5.0526,5.0764,5.0891,5.0891,5.0891,5.0891,5.0891,5.0891,5.0891,5.0891,5.0891,5.0891,5.0891,5.0891,5.0891,5.0891,5.0891,5.0891,5.0891,5.0891,5.0891,5.0891,5.0891,5.0891,5.0891,5.0891,5.082,5.0329,4.9969,4.9635,4.9135,4.8688,4.8295,4.7925,4.7777,4.7525,4.6856,4.6653,4.66,4.6284,4.6196,4.6196,4.6196,4.6196,4.6196,4.6196,4.6196,4.6196,4.6196,4.6196,4.6196,4.6196,4.6196,4.6196,4.6196,4.6196,4.6196,4.6196,4.6196,4.6196,4.6196,4.6196,4.6319,4.6635,4.7645,4.8575,4.9358,4.9672,5.0056,5.0464,5.0575,5.063,5.0729,5.0729,5.0874,5.1201,5.1965,5.2178,5.1988,5.2707,5.2749,5.2317,5.2847,5.3786,5.4869,5.4693,5.4665,5.4784,5.5342,5.4842,5.3908,5.4866,5.4865,5.4344,4.9001,4.9001,4.9001,4.9001,4.9001,4.9001,4.9001,4.9001,4.9001,4.9001,4.9001,4.9001,4.9001,4.9001,4.9001,4.9001,4.9001,4.9124,4.9428,4.9488,4.9619,4.9837,5.02,5.0526,5.0863,5.0891,5.0891,5.0891,5.0891,5.0891,5.0891,5.0891,5.0891,5.0891,5.0891,5.0891,5.0891,5.0891,5.0891,5.0891,5.0891,5.0891,5.0891,5.0891,5.0891,5.0891,5.0891,5.0891,5.0891,5.0891,5.0399,4.9811,4.9811,4.9143,4.838,4.8557,4.8417,4.8145,4.7637,4.7485,4.7309,4.6495,4.6302,4.6284,4.6214,4.6196,4.6196,4.6196,4.6196,4.6196,4.6196,4.6196,4.6196,4.6196,4.6196,4.6196,4.6196,4.6196,4.6196,4.6196,4.6196,4.6196,4.6196,4.6267,4.6653,4.7512,4.8794,4.9536,4.9606,5.0143,5.0509,5.0694,5.064,5.0729,5.0954,5.0954,5.0981,5.1034,5.2577,5.2768,5.1842,5.3372,5.3478,5.2436,5.2509,5.3166,5.4184,5.4384,5.4298,5.4198,5.547,5.5058,5.3809,5.4289,5.4393,5.4197,4.9001,4.9001,4.9001,4.9001,4.9001,4.9001,4.9001,4.9001,4.9001,4.9001,4.9001,4.9001,4.9001,4.9001,4.9001,4.9001,4.9001,4.9032,4.9094,4.9367,4.9518,4.959,5.0114,5.0443,5.0499,5.0764,5.0891,5.0891,5.0891,5.0891,5.0891,5.0891,5.0891,5.0891,5.0891,5.0891,5.0891,5.0891,5.0891,5.0891,5.0891,5.0891,5.0891,5.0891,5.0891,5.0891,5.0891,5.0891,5.0891,5.0891,5.0768,5.0627,5.0627,5.0495,5.0178,4.9627,4.9407,4.9197,4.8512,4.831,4.8099,4.7327,4.7134,4.6976,4.6337,4.6196,4.6196,4.6196,4.6196,4.6196,4.6196,4.6196,4.6196,4.6196,4.6196,4.6196,4.6196,4.6196,4.6196,4.6196,4.6196,4.6196,4.6196,4.6783,4.7662,4.896,4.9424,4.9863,5.035,5.0632,5.0972,5.1391,5.1026,5.1026,5.1442,5.146,5.1594,5.1915,5.2353,5.2789,5.3256,5.3667,5.371,5.3502,5.4131,5.4559,5.486,5.5468,5.5254,5.4575,5.4838,5.4267,5.3338,5.3463,5.3503,5.3445,4.9001,4.9001,4.9001,4.9001,4.9001,4.9001,4.9001,4.9001,4.9001,4.9001,4.9001,4.9001,4.9001,4.9001,4.9001,4.9001,4.9001,4.9001,4.9001,4.9155,4.9277,4.9277,4.9854,5.0171,5.0171,5.0655,5.0891,5.0891,5.0891,5.0891,5.0891,5.0891,5.0891,5.0891,5.0891,5.0891,5.0891,5.0891,5.0891,5.0891,5.0891,5.0891,5.0891,5.0891,5.0891,5.0891,5.0891,5.0891,5.0891,5.0891,5.0891,5.0891,5.0891,5.0792,5.0595,5.0355,5.0161,4.9905,4.9302,4.91,4.8889,4.8117,4.7924,4.7625,4.646,4.6196,4.6196,4.6196,4.6196,4.6196,4.6196,4.6196,4.6196,4.6196,4.6196,4.6196,4.6196,4.6147,4.6097,4.6097,4.6397,4.6714,4.7081,4.784,4.8601,4.934,4.9806,5.0173,5.0474,5.061,5.0892,5.1391,5.1167,5.1167,5.1416,5.1651,5.1915,5.2108,5.2495,5.2806,5.3054,5.3562,5.3813,5.3831,5.424,5.4444,5.4443,5.4809,5.4616,5.4127,5.4022,5.3661,5.3185,5.3185,5.3185,5.3185,4.9001,4.9001,4.9001,4.9001,4.9001,4.9001,4.9001,4.9001,4.9001,4.9001,4.9001,4.9001,4.9001,4.9001,4.9001,4.9001,4.9063,4.9094,4.9094,4.9124,4.9138,4.9138,4.9708,4.9999,4.9999,5.0582,5.0891,5.0891,5.0891,5.0891,5.0891,5.0891,5.0891,5.0891,5.0891,5.0891,5.0891,5.0891,5.0891,5.0891,5.0891,5.0891,5.0891,5.0891,5.0891,5.0891,5.0891,5.0891,5.0891,5.0891,5.0891,5.0891,5.0891,5.071,5.0526,5.0836,5.071,5.0415,5.0012,4.9916,4.9697,4.8924,4.8731,4.8319,4.6916,4.6495,4.6407,4.6407,4.6302,4.6196,4.6196,4.6196,4.6196,4.6196,4.6172,4.6172,4.6172,4.617,4.6182,4.6182,4.6777,4.7482,4.823,4.8918,4.9336,4.9475,5.0049,5.0415,5.0415,5.0415,5.063,5.1184,5.1105,5.1158,5.1339,5.1793,5.2012,5.2012,5.2799,5.295,5.2526,5.3365,5.3755,5.3755,5.3755,5.3755,5.3755,5.3657,5.3578,5.344,5.3339,5.3251,5.3185,5.3185,5.3185,5.3185,4.9001,4.9001,4.9001,4.9001,4.9001,4.9001,4.9001,4.9001,4.9001,4.9001,4.9001,4.9001,4.9001,4.9001,4.9001,4.9001,4.9277,4.9428,4.9428,4.9649,4.9779,4.9779,5.0143,5.0313,5.0313,5.071,5.0891,5.0891,5.0891,5.0891,5.0891,5.0891,5.0891,5.0891,5.0891,5.0891,5.0891,5.0891,5.0891,5.0891,5.0891,5.0891,5.0891,5.0891,5.0891,5.0891,5.0891,5.0891,5.0891,5.0891,5.0891,5.0891,5.0891,5.0863,5.0836,5.0891,5.0863,5.0801,5.075,5.0733,5.0522,4.9732,4.9521,4.9293,4.839,4.7713,4.7239,4.7239,4.667,4.6196,4.6196,4.6196,4.6196,4.6196,4.6097,4.6023,4.6023,4.6507,4.6847,4.6847,4.75,4.8265,4.9057,4.9231,4.9562,5.0206,5.0345,5.0415,5.0415,5.0415,5.063,5.1184,5.0766,5.0946,5.1873,5.1964,5.2012,5.2012,5.2969,5.342,5.3341,5.3481,5.3539,5.3539,5.3539,5.3539,5.3521,5.34,5.3339,5.3318,5.3251,5.3206,5.3185,5.3185,5.3185,5.3185,4.9001,4.9001,4.9001,4.9001,4.9001,4.9001,4.9001,4.9001,4.9001,4.9001,4.9001,4.9001,4.9001,4.9001,4.9063,4.9277,4.9411,4.956,4.9708,4.9837,4.9895,4.9895,5.0228,5.0415,5.0415,5.0737,5.0891,5.0891,5.0891,5.0891,5.0891,5.0891,5.0891,5.0891,5.0891,5.0891,5.0891,5.0891,5.0891,5.0891,5.0891,5.0891,5.0891,5.0891,5.0891,5.0891,5.0891,5.0891,5.0891,5.0891,5.0891,5.0891,5.0891,5.0891,5.0891,5.0891,5.0891,5.0891,5.0891,5.0891,5.0803,5.0452,5.0364,5.0276,4.9925,4.924,4.8556,4.8117,4.7723,4.7477,4.7477,4.7477,4.7452,4.7375,4.7324,4.7247,4.7187,4.7369,4.7617,4.7979,4.8297,4.8799,4.9606,4.9693,4.9831,5.016,5.0178,5.0178,5.0178,5.0178,5.0564,5.1391,5.091,5.1131,5.2203,5.2203,5.2203,5.2226,5.298,5.3254,5.3109,5.338,5.3499,5.3499,5.3499,5.3499,5.3499,5.3359,5.33,5.3279,5.323,5.3185,5.3185,5.3185,5.3185,5.3185]}]]